<?xml version="1.0" encoding="UTF-8" standalone="no" ?>
<gpx xmlns="http://www.topografix.com/GPX/1/1" xmlns:xsi="http://www.w3.org/2001/XMLSchema-instance" xsi:schemaLocation="http://www.topografix.com/GPX/1/1 http://www.topografix.com/GPX/1/1/gpx.xsd" version="1.1" creator="VisuGPX - https://www.visugpx.com">
  <metadata>
    <name>tkt trop compliqué</name>
  </metadata>
  <trk>
    <name><![CDATA[tkt trop compliqué]]></name>
    <trkseg>
      <trkpt lat="45.78144" lon="4.85638">
        <ele>174.266955</ele>
        <time>2022-04-19T10:18:55.645Z</time>
      </trkpt>
      <trkpt lat="45.78129" lon="4.85594">
        <ele>174.266955</ele>
        <time>2022-04-19T10:19:19.571Z</time>
      </trkpt>
      <trkpt lat="45.78122" lon="4.85605">
        <ele>174.266955</ele>
        <time>2022-04-19T10:19:21.463Z</time>
      </trkpt>
      <trkpt lat="45.78107" lon="4.85612">
        <ele>174.266955</ele>
        <time>2022-04-19T10:19:24.409Z</time>
      </trkpt>
      <trkpt lat="45.781" lon="4.85615">
        <ele>174.266955</ele>
        <time>2022-04-19T10:19:25.709Z</time>
      </trkpt>
      <trkpt lat="45.78037" lon="4.85636">
        <ele>174.319611</ele>
        <time>2022-04-19T10:19:36.407Z</time>
      </trkpt>
      <trkpt lat="45.78008" lon="4.85641">
        <ele>174.354986</ele>
        <time>2022-04-19T10:19:40.811Z</time>
      </trkpt>
      <trkpt lat="45.78012" lon="4.85692">
        <ele>174.399123</ele>
        <time>2022-04-19T10:19:45.929Z</time>
      </trkpt>
      <trkpt lat="45.78001" lon="4.85806">
        <ele>174.392684</ele>
        <time>2022-04-19T10:19:53.689Z</time>
      </trkpt>
      <trkpt lat="45.77999" lon="4.85812">
        <ele>174.334744</ele>
        <time>2022-04-19T10:19:54.096Z</time>
      </trkpt>
      <trkpt lat="45.77988" lon="4.85843">
        <ele>174.053821</ele>
        <time>2022-04-19T10:19:56.115Z</time>
      </trkpt>
      <trkpt lat="45.77972" lon="4.85868">
        <ele>173.777006</ele>
        <time>2022-04-19T10:19:58.037Z</time>
      </trkpt>
      <trkpt lat="45.7797" lon="4.85892">
        <ele>173.57489</ele>
        <time>2022-04-19T10:19:59.472Z</time>
      </trkpt>
      <trkpt lat="45.77965" lon="4.85935">
        <ele>173.224916</ele>
        <time>2022-04-19T10:20:02.281Z</time>
      </trkpt>
      <trkpt lat="45.77964" lon="4.85947">
        <ele>173.125961</ele>
        <time>2022-04-19T10:20:09.484Z</time>
      </trkpt>
      <trkpt lat="45.77964" lon="4.85952">
        <ele>173.078022</ele>
        <time>2022-04-19T10:20:13.034Z</time>
      </trkpt>
      <trkpt lat="45.77953" lon="4.85952">
        <ele>172.955968</ele>
        <time>2022-04-19T10:20:14.217Z</time>
      </trkpt>
      <trkpt lat="45.77952" lon="4.85966">
        <ele>172.83428</ele>
        <time>2022-04-19T10:20:15.290Z</time>
      </trkpt>
      <trkpt lat="45.77951" lon="4.85982">
        <ele>172.708927</ele>
        <time>2022-04-19T10:20:16.438Z</time>
      </trkpt>
      <trkpt lat="45.77945" lon="4.8605">
        <ele>172.462322</ele>
        <time>2022-04-19T10:20:22.735Z</time>
      </trkpt>
      <trkpt lat="45.77926" lon="4.86237">
        <ele>173.014612</ele>
        <time>2022-04-19T10:20:41.620Z</time>
      </trkpt>
      <trkpt lat="45.77924" lon="4.86255">
        <ele>173.067129</ele>
        <time>2022-04-19T10:20:43.088Z</time>
      </trkpt>
      <trkpt lat="45.77934" lon="4.86274">
        <ele>173.124984</ele>
        <time>2022-04-19T10:20:45.147Z</time>
      </trkpt>
      <trkpt lat="45.77943" lon="4.86275">
        <ele>173.079485</ele>
        <time>2022-04-19T10:20:46.163Z</time>
      </trkpt>
      <trkpt lat="45.77933" lon="4.86392">
        <ele>172.63582</ele>
        <time>2022-04-19T10:20:54.825Z</time>
      </trkpt>
      <trkpt lat="45.77919" lon="4.86492">
        <ele>172.248132</ele>
        <time>2022-04-19T10:21:01.937Z</time>
      </trkpt>
      <trkpt lat="45.77917" lon="4.86509">
        <ele>172.185858</ele>
        <time>2022-04-19T10:21:03.039Z</time>
      </trkpt>
      <trkpt lat="45.7791" lon="4.86648">
        <ele>171.624906</ele>
        <time>2022-04-19T10:21:13.001Z</time>
      </trkpt>
      <trkpt lat="45.77908" lon="4.86677">
        <ele>171.505091</ele>
        <time>2022-04-19T10:21:15.304Z</time>
      </trkpt>
      <trkpt lat="45.77907" lon="4.86691">
        <ele>171.451469</ele>
        <time>2022-04-19T10:21:16.314Z</time>
      </trkpt>
      <trkpt lat="45.77897" lon="4.86869">
        <ele>170.931127</ele>
        <time>2022-04-19T10:21:29.714Z</time>
      </trkpt>
      <trkpt lat="45.77897" lon="4.86948">
        <ele>170.777446</ele>
        <time>2022-04-19T10:21:35.658Z</time>
      </trkpt>
      <trkpt lat="45.77899" lon="4.87015">
        <ele>170.64706</ele>
        <time>2022-04-19T10:21:41.051Z</time>
      </trkpt>
      <trkpt lat="45.77903" lon="4.87102">
        <ele>170.897217</ele>
        <time>2022-04-19T10:21:48.440Z</time>
      </trkpt>
      <trkpt lat="45.77917" lon="4.87223">
        <ele>171.381602</ele>
        <time>2022-04-19T10:22:00.909Z</time>
      </trkpt>
      <trkpt lat="45.77918" lon="4.8723">
        <ele>171.40793</ele>
        <time>2022-04-19T10:22:01.619Z</time>
      </trkpt>
      <trkpt lat="45.7792" lon="4.87244">
        <ele>171.466408</ele>
        <time>2022-04-19T10:22:03.131Z</time>
      </trkpt>
      <trkpt lat="45.77942" lon="4.87383">
        <ele>172.060726</ele>
        <time>2022-04-19T10:22:16.847Z</time>
      </trkpt>
      <trkpt lat="45.77955" lon="4.87451">
        <ele>172.361106</ele>
        <time>2022-04-19T10:22:23.545Z</time>
      </trkpt>
      <trkpt lat="45.7796" lon="4.87471">
        <ele>172.45113</ele>
        <time>2022-04-19T10:22:25.614Z</time>
      </trkpt>
      <trkpt lat="45.77961" lon="4.87476">
        <ele>172.472666</ele>
        <time>2022-04-19T10:22:26.121Z</time>
      </trkpt>
      <trkpt lat="45.77965" lon="4.87496">
        <ele>172.560065</ele>
        <time>2022-04-19T10:22:28.126Z</time>
      </trkpt>
      <trkpt lat="45.77969" lon="4.87513">
        <ele>172.637195</ele>
        <time>2022-04-19T10:22:29.940Z</time>
      </trkpt>
      <trkpt lat="45.77984" lon="4.87522">
        <ele>172.734812</ele>
        <time>2022-04-19T10:22:32.418Z</time>
      </trkpt>
      <trkpt lat="45.78042" lon="4.87554">
        <ele>172.907374</ele>
        <time>2022-04-19T10:22:40.621Z</time>
      </trkpt>
      <trkpt lat="45.78111" lon="4.87593">
        <ele>173.112939</ele>
        <time>2022-04-19T10:22:49.995Z</time>
      </trkpt>
      <trkpt lat="45.78118" lon="4.87598">
        <ele>173.136701</ele>
        <time>2022-04-19T10:22:51.086Z</time>
      </trkpt>
      <trkpt lat="45.78213" lon="4.87664">
        <ele>172.758751</ele>
        <time>2022-04-19T10:23:03.232Z</time>
      </trkpt>
      <trkpt lat="45.78223" lon="4.87684">
        <ele>172.648096</ele>
        <time>2022-04-19T10:23:04.870Z</time>
      </trkpt>
      <trkpt lat="45.78231" lon="4.87718">
        <ele>172.480951</ele>
        <time>2022-04-19T10:23:07.364Z</time>
      </trkpt>
      <trkpt lat="45.78221" lon="4.8772">
        <ele>172.414435</ele>
        <time>2022-04-19T10:23:08.708Z</time>
      </trkpt>
      <trkpt lat="45.78234" lon="4.87765">
        <ele>172.185744</ele>
        <time>2022-04-19T10:23:11.967Z</time>
      </trkpt>
      <trkpt lat="45.78243" lon="4.87806">
        <ele>171.99773</ele>
        <time>2022-04-19T10:23:14.813Z</time>
      </trkpt>
      <trkpt lat="45.78248" lon="4.87826">
        <ele>171.912454</ele>
        <time>2022-04-19T10:23:16.306Z</time>
      </trkpt>
      <trkpt lat="45.78252" lon="4.87847">
        <ele>171.828339</ele>
        <time>2022-04-19T10:23:17.823Z</time>
      </trkpt>
      <trkpt lat="45.78263" lon="4.87897">
        <ele>171.621728</ele>
        <time>2022-04-19T10:23:21.656Z</time>
      </trkpt>
      <trkpt lat="45.78266" lon="4.8791">
        <ele>171.566513</ele>
        <time>2022-04-19T10:23:22.776Z</time>
      </trkpt>
      <trkpt lat="45.78283" lon="4.87987">
        <ele>171.250562</ele>
        <time>2022-04-19T10:23:28.990Z</time>
      </trkpt>
      <trkpt lat="45.78294" lon="4.88037">
        <ele>171.04691</ele>
        <time>2022-04-19T10:23:32.837Z</time>
      </trkpt>
      <trkpt lat="45.78301" lon="4.88067">
        <ele>170.98556</ele>
        <time>2022-04-19T10:23:35.212Z</time>
      </trkpt>
      <trkpt lat="45.78316" lon="4.88136">
        <ele>170.868589</ele>
        <time>2022-04-19T10:23:40.818Z</time>
      </trkpt>
      <trkpt lat="45.78318" lon="4.88146">
        <ele>170.852727</ele>
        <time>2022-04-19T10:23:41.583Z</time>
      </trkpt>
      <trkpt lat="45.78328" lon="4.88189">
        <ele>170.779556</ele>
        <time>2022-04-19T10:23:45.163Z</time>
      </trkpt>
      <trkpt lat="45.78347" lon="4.88278">
        <ele>170.62926</ele>
        <time>2022-04-19T10:23:52.683Z</time>
      </trkpt>
      <trkpt lat="45.78349" lon="4.88286">
        <ele>170.615598</ele>
        <time>2022-04-19T10:23:53.367Z</time>
      </trkpt>
      <trkpt lat="45.78359" lon="4.88332">
        <ele>170.668262</ele>
        <time>2022-04-19T10:23:57.183Z</time>
      </trkpt>
      <trkpt lat="45.78371" lon="4.88387">
        <ele>170.733869</ele>
        <time>2022-04-19T10:24:01.802Z</time>
      </trkpt>
      <trkpt lat="45.78384" lon="4.88445">
        <ele>170.803304</ele>
        <time>2022-04-19T10:24:07.295Z</time>
      </trkpt>
      <trkpt lat="45.78388" lon="4.88463">
        <ele>170.825316</ele>
        <time>2022-04-19T10:24:09.020Z</time>
      </trkpt>
      <trkpt lat="45.78393" lon="4.88486">
        <ele>170.852863</ele>
        <time>2022-04-19T10:24:11.235Z</time>
      </trkpt>
      <trkpt lat="45.78428" lon="4.8865">
        <ele>171.239611</ele>
        <time>2022-04-19T10:24:26.830Z</time>
      </trkpt>
      <trkpt lat="45.78428" lon="4.8865">
        <ele>171.239611</ele>
        <time>2022-04-19T10:24:26.856Z</time>
      </trkpt>
      <trkpt lat="45.78428" lon="4.8865">
        <ele>171.239611</ele>
        <time>2022-04-19T10:24:26.881Z</time>
      </trkpt>
      <trkpt lat="45.78432" lon="4.8867">
        <ele>171.296233</ele>
        <time>2022-04-19T10:24:28.705Z</time>
      </trkpt>
      <trkpt lat="45.78435" lon="4.88681">
        <ele>171.327289</ele>
        <time>2022-04-19T10:24:29.743Z</time>
      </trkpt>
      <trkpt lat="45.78479" lon="4.88875">
        <ele>172.027354</ele>
        <time>2022-04-19T10:24:48.704Z</time>
      </trkpt>
      <trkpt lat="45.78484" lon="4.889">
        <ele>172.139204</ele>
        <time>2022-04-19T10:24:51.183Z</time>
      </trkpt>
      <trkpt lat="45.78486" lon="4.8891">
        <ele>172.180796</ele>
        <time>2022-04-19T10:24:52.168Z</time>
      </trkpt>
      <trkpt lat="45.785" lon="4.88915">
        <ele>172.267042</ele>
        <time>2022-04-19T10:24:54.093Z</time>
      </trkpt>
      <trkpt lat="45.78503" lon="4.88913">
        <ele>172.283336</ele>
        <time>2022-04-19T10:24:54.429Z</time>
      </trkpt>
      <trkpt lat="45.78508" lon="4.8892">
        <ele>172.328327</ele>
        <time>2022-04-19T10:24:55.454Z</time>
      </trkpt>
      <trkpt lat="45.78516" lon="4.88954">
        <ele>172.477288</ele>
        <time>2022-04-19T10:24:59.016Z</time>
      </trkpt>
      <trkpt lat="45.78515" lon="4.88967">
        <ele>172.532079</ele>
        <time>2022-04-19T10:25:00.271Z</time>
      </trkpt>
      <trkpt lat="45.78499" lon="4.88992">
        <ele>172.672942</ele>
        <time>2022-04-19T10:25:03.733Z</time>
      </trkpt>
      <trkpt lat="45.78437" lon="4.8906">
        <ele>172.871453</ele>
        <time>2022-04-19T10:25:15.299Z</time>
      </trkpt>
      <trkpt lat="45.78362" lon="4.89125">
        <ele>173.086036</ele>
        <time>2022-04-19T10:25:25.327Z</time>
      </trkpt>
      <trkpt lat="45.78331" lon="4.89136">
        <ele>173.049895</ele>
        <time>2022-04-19T10:25:28.916Z</time>
      </trkpt>
      <trkpt lat="45.78398" lon="4.89209">
        <ele>172.650163</ele>
        <time>2022-04-19T10:25:37.501Z</time>
      </trkpt>
      <trkpt lat="45.78409" lon="4.89191">
        <ele>172.573129</ele>
        <time>2022-04-19T10:25:39.446Z</time>
      </trkpt>
      <trkpt lat="45.78427" lon="4.89176">
        <ele>172.472511</ele>
        <time>2022-04-19T10:25:41.464Z</time>
      </trkpt>
      <trkpt lat="45.78429" lon="4.89165">
        <ele>172.43579</ele>
        <time>2022-04-19T10:25:42.383Z</time>
      </trkpt>
      <trkpt lat="45.78422" lon="4.89161">
        <ele>172.399727</ele>
        <time>2022-04-19T10:25:43.326Z</time>
      </trkpt>
      <trkpt lat="45.7839" lon="4.89188">
        <ele>172.277411</ele>
        <time>2022-04-19T10:25:47.072Z</time>
      </trkpt>
      <trkpt lat="45.78371" lon="4.89208">
        <ele>172.30417</ele>
        <time>2022-04-19T10:25:50.581Z</time>
      </trkpt>
      <trkpt lat="45.78358" lon="4.89228">
        <ele>172.324988</ele>
        <time>2022-04-19T10:25:53.887Z</time>
      </trkpt>
      <trkpt lat="45.78357" lon="4.89256">
        <ele>172.346965</ele>
        <time>2022-04-19T10:25:57.097Z</time>
      </trkpt>
      <trkpt lat="45.78396" lon="4.89429">
        <ele>172.497618</ele>
        <time>2022-04-19T10:26:19.076Z</time>
      </trkpt>
      <trkpt lat="45.7841" lon="4.89479">
        <ele>172.558328</ele>
        <time>2022-04-19T10:26:25.811Z</time>
      </trkpt>
      <trkpt lat="45.7844" lon="4.89544">
        <ele>172.645501</ele>
        <time>2022-04-19T10:26:35.211Z</time>
      </trkpt>
      <trkpt lat="45.78444" lon="4.89544">
        <ele>172.651824</ele>
        <time>2022-04-19T10:26:35.726Z</time>
      </trkpt>
      <trkpt lat="45.78434" lon="4.89509">
        <ele>172.694424</ele>
        <time>2022-04-19T10:26:39.951Z</time>
      </trkpt>
      <trkpt lat="45.78437" lon="4.89505">
        <ele>172.700784</ele>
        <time>2022-04-19T10:26:40.764Z</time>
      </trkpt>
      <trkpt lat="45.78413" lon="4.89422">
        <ele>172.667163</ele>
        <time>2022-04-19T10:26:50.267Z</time>
      </trkpt>
      <trkpt lat="45.7851" lon="4.89378">
        <ele>172.324295</ele>
        <time>2022-04-19T10:27:01.639Z</time>
      </trkpt>
      <trkpt lat="45.78628" lon="4.89306">
        <ele>171.944625</ele>
        <time>2022-04-19T10:27:15.220Z</time>
      </trkpt>
      <trkpt lat="45.78631" lon="4.89298">
        <ele>171.927204</ele>
        <time>2022-04-19T10:27:16.231Z</time>
      </trkpt>
      <trkpt lat="45.78752" lon="4.89192">
        <ele>171.893894</ele>
        <time>2022-04-19T10:27:38.763Z</time>
      </trkpt>
      <trkpt lat="45.78761" lon="4.89207">
        <ele>171.964401</ele>
        <time>2022-04-19T10:27:41.362Z</time>
      </trkpt>
      <trkpt lat="45.78772" lon="4.89291">
        <ele>172.249605</ele>
        <time>2022-04-19T10:27:52.240Z</time>
      </trkpt>
      <trkpt lat="45.78778" lon="4.89316">
        <ele>172.335744</ele>
        <time>2022-04-19T10:27:54.814Z</time>
      </trkpt>
      <trkpt lat="45.78817" lon="4.89438">
        <ele>172.684883</ele>
        <time>2022-04-19T10:28:08.113Z</time>
      </trkpt>
      <trkpt lat="45.78848" lon="4.89497">
        <ele>172.828387</ele>
        <time>2022-04-19T10:28:14.914Z</time>
      </trkpt>
      <trkpt lat="45.78901" lon="4.89582">
        <ele>173.024275</ele>
        <time>2022-04-19T10:28:24.644Z</time>
      </trkpt>
      <trkpt lat="45.78891" lon="4.89622">
        <ele>172.868554</ele>
        <time>2022-04-19T10:28:27.743Z</time>
      </trkpt>
      <trkpt lat="45.78876" lon="4.89679">
        <ele>172.642407</ele>
        <time>2022-04-19T10:28:31.992Z</time>
      </trkpt>
      <trkpt lat="45.78872" lon="4.8975">
        <ele>172.378712</ele>
        <time>2022-04-19T10:28:36.818Z</time>
      </trkpt>
      <trkpt lat="45.7893" lon="4.90023">
        <ele>172.546356</ele>
        <time>2022-04-19T10:28:59.079Z</time>
      </trkpt>
      <trkpt lat="45.78982" lon="4.90151">
        <ele>173.997025</ele>
        <time>2022-04-19T10:29:18.521Z</time>
      </trkpt>
      <trkpt lat="45.79007" lon="4.90191">
        <ele>174.737302</ele>
        <time>2022-04-19T10:29:25.912Z</time>
      </trkpt>
      <trkpt lat="45.79043" lon="4.90229">
        <ele>175.617318</ele>
        <time>2022-04-19T10:29:34.809Z</time>
      </trkpt>
      <trkpt lat="45.7906" lon="4.90245">
        <ele>176.021457</ele>
        <time>2022-04-19T10:29:38.194Z</time>
      </trkpt>
      <trkpt lat="45.791" lon="4.90308">
        <ele>176.061211</ele>
        <time>2022-04-19T10:29:47.452Z</time>
      </trkpt>
      <trkpt lat="45.79124" lon="4.90384">
        <ele>175.896418</ele>
        <time>2022-04-19T10:29:54.265Z</time>
      </trkpt>
      <trkpt lat="45.79133" lon="4.9043">
        <ele>175.801604</ele>
        <time>2022-04-19T10:29:57.330Z</time>
      </trkpt>
      <trkpt lat="45.79135" lon="4.90503">
        <ele>175.492997</ele>
        <time>2022-04-19T10:30:01.902Z</time>
      </trkpt>
      <trkpt lat="45.79117" lon="4.90684">
        <ele>173.548535</ele>
        <time>2022-04-19T10:30:13.204Z</time>
      </trkpt>
      <trkpt lat="45.79112" lon="4.90811">
        <ele>172.82815</ele>
        <time>2022-04-19T10:30:22.220Z</time>
      </trkpt>
      <trkpt lat="45.79123" lon="4.90891">
        <ele>172.699436</ele>
        <time>2022-04-19T10:30:28.800Z</time>
      </trkpt>
      <trkpt lat="45.79144" lon="4.90985">
        <ele>172.542893</ele>
        <time>2022-04-19T10:30:37.628Z</time>
      </trkpt>
      <trkpt lat="45.79434" lon="4.92246">
        <ele>172.2532</ele>
        <time>2022-04-19T10:32:25.666Z</time>
      </trkpt>
      <trkpt lat="45.79453" lon="4.92339">
        <ele>172.493763</ele>
        <time>2022-04-19T10:32:34.635Z</time>
      </trkpt>
      <trkpt lat="45.79463" lon="4.92354">
        <ele>172.544583</ele>
        <time>2022-04-19T10:32:36.781Z</time>
      </trkpt>
      <trkpt lat="45.79483" lon="4.92441">
        <ele>172.772942</ele>
        <time>2022-04-19T10:32:45.178Z</time>
      </trkpt>
      <trkpt lat="45.795" lon="4.92468">
        <ele>172.85681</ele>
        <time>2022-04-19T10:32:48.603Z</time>
      </trkpt>
      <trkpt lat="45.7952" lon="4.92486">
        <ele>172.92396</ele>
        <time>2022-04-19T10:32:51.747Z</time>
      </trkpt>
      <trkpt lat="45.79589" lon="4.92527">
        <ele>173.144124</ele>
        <time>2022-04-19T10:33:00.944Z</time>
      </trkpt>
      <trkpt lat="45.79704" lon="4.92565">
        <ele>173.626064</ele>
        <time>2022-04-19T10:33:16.161Z</time>
      </trkpt>
      <trkpt lat="45.79735" lon="4.92583">
        <ele>173.808449</ele>
        <time>2022-04-19T10:33:20.756Z</time>
      </trkpt>
      <trkpt lat="45.79766" lon="4.92608">
        <ele>174.008132</ele>
        <time>2022-04-19T10:33:25.757Z</time>
      </trkpt>
      <trkpt lat="45.79793" lon="4.92641">
        <ele>174.210401</ele>
        <time>2022-04-19T10:33:30.792Z</time>
      </trkpt>
      <trkpt lat="45.79845" lon="4.9269">
        <ele>174.628274</ele>
        <time>2022-04-19T10:33:39.445Z</time>
      </trkpt>
      <trkpt lat="45.79902" lon="4.92709">
        <ele>175.071034</ele>
        <time>2022-04-19T10:33:47.842Z</time>
      </trkpt>
      <trkpt lat="45.79951" lon="4.92721">
        <ele>175.450851</ele>
        <time>2022-04-19T10:33:55.347Z</time>
      </trkpt>
      <trkpt lat="45.80001" lon="4.92719">
        <ele>175.757041</ele>
        <time>2022-04-19T10:34:02.461Z</time>
      </trkpt>
      <trkpt lat="45.80038" lon="4.92709">
        <ele>175.854998</ele>
        <time>2022-04-19T10:34:07.675Z</time>
      </trkpt>
      <trkpt lat="45.80111" lon="4.9268">
        <ele>176.052559</ele>
        <time>2022-04-19T10:34:17.556Z</time>
      </trkpt>
      <trkpt lat="45.80122" lon="4.92664">
        <ele>176.093061</ele>
        <time>2022-04-19T10:34:19.432Z</time>
      </trkpt>
      <trkpt lat="45.80135" lon="4.92608">
        <ele>176.144261</ele>
        <time>2022-04-19T10:34:23.983Z</time>
      </trkpt>
      <trkpt lat="45.80149" lon="4.92593">
        <ele>175.996061</ele>
        <time>2022-04-19T10:34:25.835Z</time>
      </trkpt>
      <trkpt lat="45.80166" lon="4.9259">
        <ele>175.851908</ele>
        <time>2022-04-19T10:34:27.621Z</time>
      </trkpt>
      <trkpt lat="45.80187" lon="4.92607">
        <ele>175.651121</ele>
        <time>2022-04-19T10:34:29.978Z</time>
      </trkpt>
      <trkpt lat="45.80192" lon="4.92618">
        <ele>175.572413</ele>
        <time>2022-04-19T10:34:31.316Z</time>
      </trkpt>
      <trkpt lat="45.8022" lon="4.92716">
        <ele>174.949264</ele>
        <time>2022-04-19T10:34:41.367Z</time>
      </trkpt>
      <trkpt lat="45.80227" lon="4.92834">
        <ele>174.375949</ele>
        <time>2022-04-19T10:34:52.750Z</time>
      </trkpt>
      <trkpt lat="45.80267" lon="4.93038">
        <ele>173.542192</ele>
        <time>2022-04-19T10:35:15.052Z</time>
      </trkpt>
      <trkpt lat="45.80294" lon="4.93195">
        <ele>173.139999</ele>
        <time>2022-04-19T10:35:32.593Z</time>
      </trkpt>
      <trkpt lat="45.80306" lon="4.93319">
        <ele>172.69802</ele>
        <time>2022-04-19T10:35:45.352Z</time>
      </trkpt>
      <trkpt lat="45.80318" lon="4.93387">
        <ele>172.349755</ele>
        <time>2022-04-19T10:35:52.286Z</time>
      </trkpt>
      <trkpt lat="45.80314" lon="4.93411">
        <ele>172.228487</ele>
        <time>2022-04-19T10:35:54.733Z</time>
      </trkpt>
      <trkpt lat="45.8032" lon="4.93408">
        <ele>172.18228</ele>
        <time>2022-04-19T10:35:55.321Z</time>
      </trkpt>
      <trkpt lat="45.80356" lon="4.93392">
        <ele>171.914797</ele>
        <time>2022-04-19T10:35:59.149Z</time>
      </trkpt>
      <trkpt lat="45.8046" lon="4.93348">
        <ele>171.794438</ele>
        <time>2022-04-19T10:36:15.205Z</time>
      </trkpt>
      <trkpt lat="45.80494" lon="4.93335">
        <ele>171.844164</ele>
        <time>2022-04-19T10:36:19.066Z</time>
      </trkpt>
      <trkpt lat="45.80517" lon="4.9333">
        <ele>171.877557</ele>
        <time>2022-04-19T10:36:22.480Z</time>
      </trkpt>
      <trkpt lat="45.80557" lon="4.93345">
        <ele>171.935957</ele>
        <time>2022-04-19T10:36:28.798Z</time>
      </trkpt>
      <trkpt lat="45.80589" lon="4.93353">
        <ele>172.331104</ele>
        <time>2022-04-19T10:36:33.993Z</time>
      </trkpt>
      <trkpt lat="45.8061" lon="4.93342">
        <ele>172.633129</ele>
        <time>2022-04-19T10:36:37.616Z</time>
      </trkpt>
      <trkpt lat="45.8062" lon="4.9333">
        <ele>172.805557</ele>
        <time>2022-04-19T10:36:39.774Z</time>
      </trkpt>
      <trkpt lat="45.80632" lon="4.93317">
        <ele>173.012621</ele>
        <time>2022-04-19T10:36:42.263Z</time>
      </trkpt>
      <trkpt lat="45.80649" lon="4.93309">
        <ele>173.257657</ele>
        <time>2022-04-19T10:36:45.101Z</time>
      </trkpt>
      <trkpt lat="45.80658" lon="4.93308">
        <ele>173.380103</ele>
        <time>2022-04-19T10:36:46.647Z</time>
      </trkpt>
      <trkpt lat="45.80669" lon="4.93289">
        <ele>173.617368</ele>
        <time>2022-04-19T10:36:49.340Z</time>
      </trkpt>
      <trkpt lat="45.80668" lon="4.93282">
        <ele>173.682962</ele>
        <time>2022-04-19T10:36:50.062Z</time>
      </trkpt>
      <trkpt lat="45.80676" lon="4.93261">
        <ele>173.903973</ele>
        <time>2022-04-19T10:36:52.863Z</time>
      </trkpt>
      <trkpt lat="45.807" lon="4.93236">
        <ele>174.307082</ele>
        <time>2022-04-19T10:36:57.803Z</time>
      </trkpt>
      <trkpt lat="45.80723" lon="4.93227">
        <ele>174.574635</ele>
        <time>2022-04-19T10:37:01.807Z</time>
      </trkpt>
      <trkpt lat="45.80738" lon="4.93234">
        <ele>174.747554</ele>
        <time>2022-04-19T10:37:04.835Z</time>
      </trkpt>
      <trkpt lat="45.80745" lon="4.93228">
        <ele>174.832403</ele>
        <time>2022-04-19T10:37:06.196Z</time>
      </trkpt>
      <trkpt lat="45.80749" lon="4.93213">
        <ele>174.944745</ele>
        <time>2022-04-19T10:37:07.986Z</time>
      </trkpt>
      <trkpt lat="45.80748" lon="4.93204">
        <ele>175.011721</ele>
        <time>2022-04-19T10:37:09.015Z</time>
      </trkpt>
      <trkpt lat="45.80755" lon="4.93163">
        <ele>175.329277</ele>
        <time>2022-04-19T10:37:13.720Z</time>
      </trkpt>
      <trkpt lat="45.80826" lon="4.93097">
        <ele>176.220789</ele>
        <time>2022-04-19T10:37:25.861Z</time>
      </trkpt>
      <trkpt lat="45.80854" lon="4.93071">
        <ele>176.262964</ele>
        <time>2022-04-19T10:37:30.181Z</time>
      </trkpt>
      <trkpt lat="45.80867" lon="4.93059">
        <ele>176.253424</ele>
        <time>2022-04-19T10:37:32.111Z</time>
      </trkpt>
      <trkpt lat="45.80906" lon="4.9303">
        <ele>176.224889</ele>
        <time>2022-04-19T10:37:37.413Z</time>
      </trkpt>
      <trkpt lat="45.80935" lon="4.93033">
        <ele>176.206018</ele>
        <time>2022-04-19T10:37:40.591Z</time>
      </trkpt>
      <trkpt lat="45.80963" lon="4.93065">
        <ele>176.182499</ele>
        <time>2022-04-19T10:37:44.464Z</time>
      </trkpt>
      <trkpt lat="45.81042" lon="4.93187">
        <ele>176.081747</ele>
        <time>2022-04-19T10:37:56.933Z</time>
      </trkpt>
      <trkpt lat="45.81147" lon="4.93341">
        <ele>176.204954</ele>
        <time>2022-04-19T10:38:15.808Z</time>
      </trkpt>
      <trkpt lat="45.81228" lon="4.93424">
        <ele>176.564809</ele>
        <time>2022-04-19T10:38:29.413Z</time>
      </trkpt>
      <trkpt lat="45.81267" lon="4.93474">
        <ele>176.587611</ele>
        <time>2022-04-19T10:38:35.999Z</time>
      </trkpt>
      <trkpt lat="45.81306" lon="4.93563">
        <ele>176.451466</ele>
        <time>2022-04-19T10:38:44.288Z</time>
      </trkpt>
      <trkpt lat="45.81308" lon="4.93567">
        <ele>176.445247</ele>
        <time>2022-04-19T10:38:44.643Z</time>
      </trkpt>
      <trkpt lat="45.81309" lon="4.9357">
        <ele>176.441909</ele>
        <time>2022-04-19T10:38:44.855Z</time>
      </trkpt>
      <trkpt lat="45.8132" lon="4.93587">
        <ele>176.412169</ele>
        <time>2022-04-19T10:38:46.601Z</time>
      </trkpt>
      <trkpt lat="45.81334" lon="4.93589">
        <ele>176.386287</ele>
        <time>2022-04-19T10:38:48.070Z</time>
      </trkpt>
      <trkpt lat="45.81336" lon="4.93588">
        <ele>176.381862</ele>
        <time>2022-04-19T10:38:48.316Z</time>
      </trkpt>
      <trkpt lat="45.81363" lon="4.93586">
        <ele>176.332092</ele>
        <time>2022-04-19T10:38:51.229Z</time>
      </trkpt>
      <trkpt lat="45.81378" lon="4.93601">
        <ele>176.284103</ele>
        <time>2022-04-19T10:38:53.248Z</time>
      </trkpt>
      <trkpt lat="45.81395" lon="4.93637">
        <ele>176.170273</ele>
        <time>2022-04-19T10:38:56.424Z</time>
      </trkpt>
      <trkpt lat="45.81414" lon="4.93678">
        <ele>176.039478</ele>
        <time>2022-04-19T10:39:00.175Z</time>
      </trkpt>
      <trkpt lat="45.81469" lon="4.93802">
        <ele>175.651522</ele>
        <time>2022-04-19T10:39:11.204Z</time>
      </trkpt>
      <trkpt lat="45.8147" lon="4.93806">
        <ele>175.63894</ele>
        <time>2022-04-19T10:39:11.540Z</time>
      </trkpt>
      <trkpt lat="45.81478" lon="4.93823">
        <ele>175.627282</ele>
        <time>2022-04-19T10:39:13.068Z</time>
      </trkpt>
      <trkpt lat="45.81552" lon="4.93991">
        <ele>175.60195</ele>
        <time>2022-04-19T10:39:29.461Z</time>
      </trkpt>
      <trkpt lat="45.81733" lon="4.94386">
        <ele>176.56644</ele>
        <time>2022-04-19T10:40:11.130Z</time>
      </trkpt>
      <trkpt lat="45.81841" lon="4.94634">
        <ele>177.802103</ele>
        <time>2022-04-19T10:40:41.148Z</time>
      </trkpt>
      <trkpt lat="45.81876" lon="4.94738">
        <ele>177.760296</ele>
        <time>2022-04-19T10:40:51.027Z</time>
      </trkpt>
      <trkpt lat="45.81894" lon="4.94803">
        <ele>177.449215</ele>
        <time>2022-04-19T10:40:56.147Z</time>
      </trkpt>
      <trkpt lat="45.81902" lon="4.94798">
        <ele>177.395374</ele>
        <time>2022-04-19T10:40:56.978Z</time>
      </trkpt>
      <trkpt lat="45.81998" lon="4.94734">
        <ele>176.645268</ele>
        <time>2022-04-19T10:41:07.005Z</time>
      </trkpt>
      <trkpt lat="45.82002" lon="4.94731">
        <ele>176.594524</ele>
        <time>2022-04-19T10:41:07.711Z</time>
      </trkpt>
      <trkpt lat="45.81981" lon="4.94637">
        <ele>175.952091</ele>
        <time>2022-04-19T10:41:14.087Z</time>
      </trkpt>
      <trkpt lat="45.81968" lon="4.94623">
        <ele>175.793652</ele>
        <time>2022-04-19T10:41:15.740Z</time>
      </trkpt>
      <trkpt lat="45.81961" lon="4.94615">
        <ele>175.713713</ele>
        <time>2022-04-19T10:41:16.589Z</time>
      </trkpt>
      <trkpt lat="45.81956" lon="4.94617">
        <ele>175.664286</ele>
        <time>2022-04-19T10:41:17.127Z</time>
      </trkpt>
      <trkpt lat="45.81955" lon="4.94628">
        <ele>175.58959</ele>
        <time>2022-04-19T10:41:17.968Z</time>
      </trkpt>
      <trkpt lat="45.81962" lon="4.94634">
        <ele>175.515275</ele>
        <time>2022-04-19T10:41:18.790Z</time>
      </trkpt>
      <trkpt lat="45.81964" lon="4.94633">
        <ele>175.495976</ele>
        <time>2022-04-19T10:41:19.020Z</time>
      </trkpt>
      <trkpt lat="45.81969" lon="4.9467">
        <ele>175.252434</ele>
        <time>2022-04-19T10:41:21.907Z</time>
      </trkpt>
      <trkpt lat="45.8199" lon="4.94735">
        <ele>175.323067</ele>
        <time>2022-04-19T10:41:28.000Z</time>
      </trkpt>
      <trkpt lat="45.81992" lon="4.9474">
        <ele>175.332461</ele>
        <time>2022-04-19T10:41:28.694Z</time>
      </trkpt>
      <trkpt lat="45.82032" lon="4.94855">
        <ele>175.537413</ele>
        <time>2022-04-19T10:41:44.271Z</time>
      </trkpt>
      <trkpt lat="45.82085" lon="4.95051">
        <ele>175.956267</ele>
        <time>2022-04-19T10:42:09.629Z</time>
      </trkpt>
      <trkpt lat="45.82141" lon="4.95328">
        <ele>176.30388</ele>
        <time>2022-04-19T10:42:43.828Z</time>
      </trkpt>
      <trkpt lat="45.82144" lon="4.95343">
        <ele>176.314285</ele>
        <time>2022-04-19T10:42:45.514Z</time>
      </trkpt>
      <trkpt lat="45.82144" lon="4.95343">
        <ele>176.314285</ele>
        <time>2022-04-19T10:42:45.537Z</time>
      </trkpt>
      <trkpt lat="45.8215" lon="4.95377">
        <ele>176.337381</ele>
        <time>2022-04-19T10:42:49.356Z</time>
      </trkpt>
      <trkpt lat="45.82158" lon="4.95423">
        <ele>176.271652</ele>
        <time>2022-04-19T10:42:54.424Z</time>
      </trkpt>
      <trkpt lat="45.82158" lon="4.95427">
        <ele>176.25635</ele>
        <time>2022-04-19T10:42:54.879Z</time>
      </trkpt>
      <trkpt lat="45.82218" lon="4.95745">
        <ele>175.177127</ele>
        <time>2022-04-19T10:43:28.428Z</time>
      </trkpt>
      <trkpt lat="45.8222" lon="4.95807">
        <ele>175.02445</ele>
        <time>2022-04-19T10:43:34.788Z</time>
      </trkpt>
      <trkpt lat="45.82222" lon="4.96231">
        <ele>175.063527</ele>
        <time>2022-04-19T10:44:22.275Z</time>
      </trkpt>
      <trkpt lat="45.82223" lon="4.964">
        <ele>175.810806</ele>
        <time>2022-04-19T10:44:44.758Z</time>
      </trkpt>
      <trkpt lat="45.82257" lon="4.96508">
        <ele>176.250035</ele>
        <time>2022-04-19T10:45:00.577Z</time>
      </trkpt>
      <trkpt lat="45.82297" lon="4.96613">
        <ele>176.668599</ele>
        <time>2022-04-19T10:45:14.895Z</time>
      </trkpt>
      <trkpt lat="45.82379" lon="4.96792">
        <ele>177.133863</ele>
        <time>2022-04-19T10:45:39.698Z</time>
      </trkpt>
      <trkpt lat="45.82419" lon="4.96933">
        <ele>177.446107</ele>
        <time>2022-04-19T10:45:58.341Z</time>
      </trkpt>
      <trkpt lat="45.8243" lon="4.96952">
        <ele>177.505835</ele>
        <time>2022-04-19T10:46:01.748Z</time>
      </trkpt>
      <trkpt lat="45.82457" lon="4.97013">
        <ele>177.672289</ele>
        <time>2022-04-19T10:46:08.279Z</time>
      </trkpt>
      <trkpt lat="45.82482" lon="4.97092">
        <ele>177.874291</ele>
        <time>2022-04-19T10:46:15.786Z</time>
      </trkpt>
      <trkpt lat="45.82492" lon="4.9716">
        <ele>177.81439</ele>
        <time>2022-04-19T10:46:21.608Z</time>
      </trkpt>
      <trkpt lat="45.82496" lon="4.97238">
        <ele>177.71653</ele>
        <time>2022-04-19T10:46:27.860Z</time>
      </trkpt>
      <trkpt lat="45.82493" lon="4.97292">
        <ele>177.648961</ele>
        <time>2022-04-19T10:46:32.206Z</time>
      </trkpt>
      <trkpt lat="45.82477" lon="4.97379">
        <ele>177.540782</ele>
        <time>2022-04-19T10:46:38.852Z</time>
      </trkpt>
      <trkpt lat="45.82461" lon="4.97429">
        <ele>177.481107</ele>
        <time>2022-04-19T10:46:42.814Z</time>
      </trkpt>
      <trkpt lat="45.82437" lon="4.97475">
        <ele>177.418357</ele>
        <time>2022-04-19T10:46:46.993Z</time>
      </trkpt>
      <trkpt lat="45.82417" lon="4.97502">
        <ele>177.375177</ele>
        <time>2022-04-19T10:46:50.329Z</time>
      </trkpt>
      <trkpt lat="45.82401" lon="4.97523">
        <ele>177.340837</ele>
        <time>2022-04-19T10:46:53.042Z</time>
      </trkpt>
      <trkpt lat="45.82338" lon="4.97623">
        <ele>177.581999</ele>
        <time>2022-04-19T10:47:05.444Z</time>
      </trkpt>
      <trkpt lat="45.82262" lon="4.97759">
        <ele>178.164311</ele>
        <time>2022-04-19T10:47:22.423Z</time>
      </trkpt>
      <trkpt lat="45.82244" lon="4.97769">
        <ele>178.115004</ele>
        <time>2022-04-19T10:47:24.625Z</time>
      </trkpt>
      <trkpt lat="45.82194" lon="4.97824">
        <ele>177.951297</ele>
        <time>2022-04-19T10:47:32.476Z</time>
      </trkpt>
      <trkpt lat="45.82152" lon="4.97881">
        <ele>177.802152</ele>
        <time>2022-04-19T10:47:38.637Z</time>
      </trkpt>
      <trkpt lat="45.82143" lon="4.97919">
        <ele>177.730194</ele>
        <time>2022-04-19T10:47:41.279Z</time>
      </trkpt>
      <trkpt lat="45.82119" lon="4.9821">
        <ele>176.310529</ele>
        <time>2022-04-19T10:48:01.615Z</time>
      </trkpt>
      <trkpt lat="45.82109" lon="4.9825">
        <ele>176.355754</ele>
        <time>2022-04-19T10:48:05.017Z</time>
      </trkpt>
      <trkpt lat="45.82072" lon="4.98499">
        <ele>176.820365</ele>
        <time>2022-04-19T10:48:28.561Z</time>
      </trkpt>
      <trkpt lat="45.82025" lon="4.987">
        <ele>177.67628</ele>
        <time>2022-04-19T10:48:49.721Z</time>
      </trkpt>
      <trkpt lat="45.82026" lon="4.98736">
        <ele>177.68357</ele>
        <time>2022-04-19T10:48:52.906Z</time>
      </trkpt>
      <trkpt lat="45.82021" lon="4.98751">
        <ele>177.686962</ele>
        <time>2022-04-19T10:49:03.438Z</time>
      </trkpt>
      <trkpt lat="45.82074" lon="4.989">
        <ele>177.720581</ele>
        <time>2022-04-19T10:50:47.140Z</time>
      </trkpt>
      <trkpt lat="45.82083" lon="4.9889">
        <ele>177.723944</ele>
        <time>2022-04-19T10:50:57.491Z</time>
      </trkpt>
      <trkpt lat="45.82108" lon="4.98919">
        <ele>177.788041</ele>
        <time>2022-04-19T10:51:00.976Z</time>
      </trkpt>
      <trkpt lat="45.82117" lon="4.98943">
        <ele>177.83018</ele>
        <time>2022-04-19T10:51:03.050Z</time>
      </trkpt>
      <trkpt lat="45.82109" lon="4.98971">
        <ele>177.879119</ele>
        <time>2022-04-19T10:51:05.538Z</time>
      </trkpt>
      <trkpt lat="45.82105" lon="4.98973">
        <ele>177.88765</ele>
        <time>2022-04-19T10:51:05.966Z</time>
      </trkpt>
      <trkpt lat="45.82089" lon="4.98999">
        <ele>177.942315</ele>
        <time>2022-04-19T10:51:08.979Z</time>
      </trkpt>
      <trkpt lat="45.82092" lon="4.99028">
        <ele>177.988842</ele>
        <time>2022-04-19T10:51:11.598Z</time>
      </trkpt>
      <trkpt lat="45.82109" lon="4.99048">
        <ele>178.039487</ele>
        <time>2022-04-19T10:51:14.660Z</time>
      </trkpt>
      <trkpt lat="45.8212" lon="4.9905">
        <ele>178.064708</ele>
        <time>2022-04-19T10:51:16.178Z</time>
      </trkpt>
      <trkpt lat="45.82145" lon="4.99119">
        <ele>178.23764</ele>
        <time>2022-04-19T10:51:24.095Z</time>
      </trkpt>
      <trkpt lat="45.8216" lon="4.99151">
        <ele>178.355749</ele>
        <time>2022-04-19T10:51:27.793Z</time>
      </trkpt>
      <trkpt lat="45.82183" lon="4.99183">
        <ele>178.495237</ele>
        <time>2022-04-19T10:51:32.112Z</time>
      </trkpt>
      <trkpt lat="45.82219" lon="4.99236">
        <ele>178.720976</ele>
        <time>2022-04-19T10:51:38.987Z</time>
      </trkpt>
      <trkpt lat="45.82298" lon="4.99336">
        <ele>179.044409</ele>
        <time>2022-04-19T10:51:51.730Z</time>
      </trkpt>
      <trkpt lat="45.82348" lon="4.99383">
        <ele>179.167833</ele>
        <time>2022-04-19T10:51:58.676Z</time>
      </trkpt>
      <trkpt lat="45.82398" lon="4.99417">
        <ele>179.282772</ele>
        <time>2022-04-19T10:52:05.683Z</time>
      </trkpt>
      <trkpt lat="45.82468" lon="4.99437">
        <ele>180.029016</ele>
        <time>2022-04-19T10:52:16.303Z</time>
      </trkpt>
      <trkpt lat="45.82515" lon="4.99434">
        <ele>180.560994</ele>
        <time>2022-04-19T10:52:23.970Z</time>
      </trkpt>
      <trkpt lat="45.8256" lon="4.9942">
        <ele>181.072872</ele>
        <time>2022-04-19T10:52:31.464Z</time>
      </trkpt>
      <trkpt lat="45.82617" lon="4.99383">
        <ele>181.454351</ele>
        <time>2022-04-19T10:52:41.619Z</time>
      </trkpt>
      <trkpt lat="45.82628" lon="4.99388">
        <ele>181.494559</ele>
        <time>2022-04-19T10:52:43.497Z</time>
      </trkpt>
      <trkpt lat="45.82657" lon="4.9937">
        <ele>181.605119</ele>
        <time>2022-04-19T10:52:48.278Z</time>
      </trkpt>
      <trkpt lat="45.82674" lon="4.9938">
        <ele>181.67111</ele>
        <time>2022-04-19T10:52:50.780Z</time>
      </trkpt>
      <trkpt lat="45.82688" lon="4.9945">
        <ele>181.846951</ele>
        <time>2022-04-19T10:52:58.486Z</time>
      </trkpt>
      <trkpt lat="45.82695" lon="4.99486">
        <ele>181.930986</ele>
        <time>2022-04-19T10:53:02.160Z</time>
      </trkpt>
      <trkpt lat="45.82701" lon="4.99499">
        <ele>181.758886</ele>
        <time>2022-04-19T10:53:03.790Z</time>
      </trkpt>
      <trkpt lat="45.82712" lon="4.99553">
        <ele>181.173506</ele>
        <time>2022-04-19T10:53:07.460Z</time>
      </trkpt>
      <trkpt lat="45.82729" lon="4.99634">
        <ele>180.282534</ele>
        <time>2022-04-19T10:53:12.735Z</time>
      </trkpt>
      <trkpt lat="45.82762" lon="4.99746">
        <ele>179.097809</ele>
        <time>2022-04-19T10:53:20.358Z</time>
      </trkpt>
      <trkpt lat="45.82766" lon="4.99782">
        <ele>178.868343</ele>
        <time>2022-04-19T10:53:22.630Z</time>
      </trkpt>
      <trkpt lat="45.82765" lon="4.99788">
        <ele>178.830505</ele>
        <time>2022-04-19T10:53:23.033Z</time>
      </trkpt>
      <trkpt lat="45.82773" lon="4.99808">
        <ele>178.689064</ele>
        <time>2022-04-19T10:53:24.554Z</time>
      </trkpt>
      <trkpt lat="45.8278" lon="4.99811">
        <ele>178.618554</ele>
        <time>2022-04-19T10:53:25.293Z</time>
      </trkpt>
      <trkpt lat="45.82831" lon="4.9995">
        <ele>177.630603</ele>
        <time>2022-04-19T10:53:36.752Z</time>
      </trkpt>
      <trkpt lat="45.82862" lon="5.00056">
        <ele>177.492837</ele>
        <time>2022-04-19T10:53:45.916Z</time>
      </trkpt>
      <trkpt lat="45.82884" lon="5.00255">
        <ele>177.39656</ele>
        <time>2022-04-19T10:54:02.235Z</time>
      </trkpt>
      <trkpt lat="45.82891" lon="5.00361">
        <ele>177.503801</ele>
        <time>2022-04-19T10:54:11.359Z</time>
      </trkpt>
      <trkpt lat="45.82888" lon="5.00452">
        <ele>177.595678</ele>
        <time>2022-04-19T10:54:19.366Z</time>
      </trkpt>
      <trkpt lat="45.82876" lon="5.00561">
        <ele>177.764794</ele>
        <time>2022-04-19T10:54:29.172Z</time>
      </trkpt>
      <trkpt lat="45.82805" lon="5.00999">
        <ele>178.455585</ele>
        <time>2022-04-19T10:55:08.434Z</time>
      </trkpt>
      <trkpt lat="45.82796" lon="5.01011">
        <ele>178.492225</ele>
        <time>2022-04-19T10:55:09.929Z</time>
      </trkpt>
      <trkpt lat="45.82795" lon="5.01024">
        <ele>178.520148</ele>
        <time>2022-04-19T10:55:11.122Z</time>
      </trkpt>
      <trkpt lat="45.82801" lon="5.01035">
        <ele>178.548088</ele>
        <time>2022-04-19T10:55:12.343Z</time>
      </trkpt>
      <trkpt lat="45.82803" lon="5.01061">
        <ele>178.604289</ele>
        <time>2022-04-19T10:55:14.743Z</time>
      </trkpt>
      <trkpt lat="45.82802" lon="5.01068">
        <ele>178.620252</ele>
        <time>2022-04-19T10:55:15.424Z</time>
      </trkpt>
      <trkpt lat="45.82799" lon="5.01092">
        <ele>178.671045</ele>
        <time>2022-04-19T10:55:17.669Z</time>
      </trkpt>
      <trkpt lat="45.82788" lon="5.01146">
        <ele>178.791277</ele>
        <time>2022-04-19T10:55:22.858Z</time>
      </trkpt>
      <trkpt lat="45.82776" lon="5.0118">
        <ele>178.871982</ele>
        <time>2022-04-19T10:55:26.295Z</time>
      </trkpt>
      <trkpt lat="45.82777" lon="5.01195">
        <ele>178.904025</ele>
        <time>2022-04-19T10:55:29.518Z</time>
      </trkpt>
      <trkpt lat="45.82751" lon="5.01248">
        <ele>178.87846</ele>
        <time>2022-04-19T10:55:34.992Z</time>
      </trkpt>
      <trkpt lat="45.82722" lon="5.01286">
        <ele>178.832888</ele>
        <time>2022-04-19T10:55:39.381Z</time>
      </trkpt>
      <trkpt lat="45.82722" lon="5.01287">
        <ele>178.832549</ele>
        <time>2022-04-19T10:55:39.462Z</time>
      </trkpt>
      <trkpt lat="45.8267" lon="5.01331">
        <ele>178.761607</ele>
        <time>2022-04-19T10:55:46.186Z</time>
      </trkpt>
      <trkpt lat="45.8261" lon="5.01375">
        <ele>178.713073</ele>
        <time>2022-04-19T10:55:53.642Z</time>
      </trkpt>
      <trkpt lat="45.82478" lon="5.01476">
        <ele>178.712514</ele>
        <time>2022-04-19T10:56:11.304Z</time>
      </trkpt>
      <trkpt lat="45.82471" lon="5.01475">
        <ele>178.72236</ele>
        <time>2022-04-19T10:56:12.455Z</time>
      </trkpt>
      <trkpt lat="45.8246" lon="5.01483">
        <ele>178.760034</ele>
        <time>2022-04-19T10:56:14.051Z</time>
      </trkpt>
      <trkpt lat="45.8244" lon="5.01499">
        <ele>178.83323</ele>
        <time>2022-04-19T10:56:17.109Z</time>
      </trkpt>
      <trkpt lat="45.8232" lon="5.01593">
        <ele>179.26359</ele>
        <time>2022-04-19T10:56:35.002Z</time>
      </trkpt>
      <trkpt lat="45.82151" lon="5.01721">
        <ele>179.671997</ele>
        <time>2022-04-19T10:56:58.800Z</time>
      </trkpt>
      <trkpt lat="45.8205" lon="5.01802">
        <ele>179.838812</ele>
        <time>2022-04-19T10:57:12.879Z</time>
      </trkpt>
      <trkpt lat="45.82021" lon="5.01824">
        <ele>179.886257</ele>
        <time>2022-04-19T10:57:16.870Z</time>
      </trkpt>
      <trkpt lat="45.81979" lon="5.01843">
        <ele>179.977102</ele>
        <time>2022-04-19T10:57:22.410Z</time>
      </trkpt>
      <trkpt lat="45.81958" lon="5.01852">
        <ele>180.038774</ele>
        <time>2022-04-19T10:57:25.257Z</time>
      </trkpt>
      <trkpt lat="45.81933" lon="5.0188">
        <ele>180.13011</ele>
        <time>2022-04-19T10:57:29.585Z</time>
      </trkpt>
      <trkpt lat="45.81881" lon="5.01908">
        <ele>180.288469</ele>
        <time>2022-04-19T10:57:36.680Z</time>
      </trkpt>
      <trkpt lat="45.81865" lon="5.01917">
        <ele>180.337862</ele>
        <time>2022-04-19T10:57:38.809Z</time>
      </trkpt>
      <trkpt lat="45.81786" lon="5.01953">
        <ele>180.534895</ele>
        <time>2022-04-19T10:57:48.976Z</time>
      </trkpt>
      <trkpt lat="45.81769" lon="5.01962">
        <ele>180.571533</ele>
        <time>2022-04-19T10:57:51.203Z</time>
      </trkpt>
      <trkpt lat="45.81739" lon="5.01976">
        <ele>180.634966</ele>
        <time>2022-04-19T10:57:55.134Z</time>
      </trkpt>
      <trkpt lat="45.81684" lon="5.02004">
        <ele>180.75401</ele>
        <time>2022-04-19T10:58:02.861Z</time>
      </trkpt>
      <trkpt lat="45.81661" lon="5.02027">
        <ele>180.807628</ele>
        <time>2022-04-19T10:58:06.373Z</time>
      </trkpt>
      <trkpt lat="45.81638" lon="5.02059">
        <ele>180.849395</ele>
        <time>2022-04-19T10:58:10.115Z</time>
      </trkpt>
      <trkpt lat="45.81623" lon="5.02075">
        <ele>180.874135</ele>
        <time>2022-04-19T10:58:12.242Z</time>
      </trkpt>
      <trkpt lat="45.81599" lon="5.02085">
        <ele>180.907611</ele>
        <time>2022-04-19T10:58:15.321Z</time>
      </trkpt>
      <trkpt lat="45.81559" lon="5.02094">
        <ele>180.960097</ele>
        <time>2022-04-19T10:58:20.335Z</time>
      </trkpt>
      <trkpt lat="45.81541" lon="5.02099">
        <ele>180.985243</ele>
        <time>2022-04-19T10:58:22.889Z</time>
      </trkpt>
      <trkpt lat="45.81517" lon="5.02106">
        <ele>181.016314</ele>
        <time>2022-04-19T10:58:25.862Z</time>
      </trkpt>
      <trkpt lat="45.81461" lon="5.02138">
        <ele>180.793754</ele>
        <time>2022-04-19T10:58:33.163Z</time>
      </trkpt>
      <trkpt lat="45.81449" lon="5.02146">
        <ele>180.718059</ele>
        <time>2022-04-19T10:58:34.673Z</time>
      </trkpt>
      <trkpt lat="45.81444" lon="5.02167">
        <ele>180.634848</ele>
        <time>2022-04-19T10:58:36.265Z</time>
      </trkpt>
      <trkpt lat="45.81442" lon="5.0218">
        <ele>180.580716</ele>
        <time>2022-04-19T10:58:37.259Z</time>
      </trkpt>
      <trkpt lat="45.81436" lon="5.02194">
        <ele>180.517173</ele>
        <time>2022-04-19T10:58:38.409Z</time>
      </trkpt>
      <trkpt lat="45.81392" lon="5.02205">
        <ele>180.267479</ele>
        <time>2022-04-19T10:58:42.789Z</time>
      </trkpt>
      <trkpt lat="45.81374" lon="5.0219">
        <ele>180.151299</ele>
        <time>2022-04-19T10:58:44.834Z</time>
      </trkpt>
      <trkpt lat="45.8135" lon="5.02196">
        <ele>180.002586</ele>
        <time>2022-04-19T10:58:47.200Z</time>
      </trkpt>
      <trkpt lat="45.81335" lon="5.02199">
        <ele>179.856369</ele>
        <time>2022-04-19T10:58:48.678Z</time>
      </trkpt>
      <trkpt lat="45.81322" lon="5.02202">
        <ele>179.721124</ele>
        <time>2022-04-19T10:58:50.039Z</time>
      </trkpt>
      <trkpt lat="45.8129" lon="5.02207">
        <ele>179.403021</ele>
        <time>2022-04-19T10:58:53.276Z</time>
      </trkpt>
      <trkpt lat="45.81238" lon="5.02215">
        <ele>178.888794</ele>
        <time>2022-04-19T10:58:58.320Z</time>
      </trkpt>
      <trkpt lat="45.8119" lon="5.02224">
        <ele>178.412154</ele>
        <time>2022-04-19T10:59:02.824Z</time>
      </trkpt>
      <trkpt lat="45.81143" lon="5.02237">
        <ele>178.21721</ele>
        <time>2022-04-19T10:59:07.650Z</time>
      </trkpt>
      <trkpt lat="45.81135" lon="5.02246">
        <ele>178.20339</ele>
        <time>2022-04-19T10:59:08.837Z</time>
      </trkpt>
      <trkpt lat="45.81129" lon="5.02373">
        <ele>178.086629</ele>
        <time>2022-04-19T10:59:19.551Z</time>
      </trkpt>
      <trkpt lat="45.81129" lon="5.02385">
        <ele>178.075363</ele>
        <time>2022-04-19T10:59:20.689Z</time>
      </trkpt>
      <trkpt lat="45.81128" lon="5.02453">
        <ele>178.080758</ele>
        <time>2022-04-19T10:59:26.528Z</time>
      </trkpt>
      <trkpt lat="45.81155" lon="5.02563">
        <ele>178.683174</ele>
        <time>2022-04-19T10:59:37.076Z</time>
      </trkpt>
      <trkpt lat="45.81158" lon="5.02615">
        <ele>178.953601</ele>
        <time>2022-04-19T10:59:43.048Z</time>
      </trkpt>
      <trkpt lat="45.81154" lon="5.02712">
        <ele>179.470586</ele>
        <time>2022-04-19T10:59:53.477Z</time>
      </trkpt>
      <trkpt lat="45.81186" lon="5.02778">
        <ele>179.945512</ele>
        <time>2022-04-19T11:00:01.458Z</time>
      </trkpt>
      <trkpt lat="45.81202" lon="5.02768">
        <ele>180.093912</ele>
        <time>2022-04-19T11:00:03.914Z</time>
      </trkpt>
      <trkpt lat="45.81271" lon="5.02749">
        <ele>180.688429</ele>
        <time>2022-04-19T11:00:14.134Z</time>
      </trkpt>
      <trkpt lat="45.81311" lon="5.02731">
        <ele>180.948491</ele>
        <time>2022-04-19T11:00:20.442Z</time>
      </trkpt>
      <trkpt lat="45.81315" lon="5.02729">
        <ele>180.963906</ele>
        <time>2022-04-19T11:00:21.029Z</time>
      </trkpt>
      <trkpt lat="45.81333" lon="5.02721">
        <ele>181.036309</ele>
        <time>2022-04-19T11:00:23.807Z</time>
      </trkpt>
      <trkpt lat="45.81399" lon="5.02699">
        <ele>181.284684</ele>
        <time>2022-04-19T11:00:32.483Z</time>
      </trkpt>
      <trkpt lat="45.81509" lon="5.02693">
        <ele>181.474894</ele>
        <time>2022-04-19T11:00:45.648Z</time>
      </trkpt>
      <trkpt lat="45.81561" lon="5.02696">
        <ele>181.385363</ele>
        <time>2022-04-19T11:00:51.730Z</time>
      </trkpt>
      <trkpt lat="45.81624" lon="5.02718">
        <ele>181.276689</ele>
        <time>2022-04-19T11:00:58.910Z</time>
      </trkpt>
      <trkpt lat="45.81651" lon="5.02735">
        <ele>181.220912</ele>
        <time>2022-04-19T11:01:02.215Z</time>
      </trkpt>
      <trkpt lat="45.81684" lon="5.02767">
        <ele>181.125081</ele>
        <time>2022-04-19T11:01:06.521Z</time>
      </trkpt>
      <trkpt lat="45.81922" lon="5.03067">
        <ele>180.437948</ele>
        <time>2022-04-19T11:01:42.118Z</time>
      </trkpt>
      <trkpt lat="45.81948" lon="5.03081">
        <ele>180.462595</ele>
        <time>2022-04-19T11:01:45.328Z</time>
      </trkpt>
      <trkpt lat="45.8199" lon="5.03085">
        <ele>180.499412</ele>
        <time>2022-04-19T11:01:50.168Z</time>
      </trkpt>
      <trkpt lat="45.82147" lon="5.03097">
        <ele>180.907045</ele>
        <time>2022-04-19T11:02:10.107Z</time>
      </trkpt>
      <trkpt lat="45.82246" lon="5.03141">
        <ele>181.548643</ele>
        <time>2022-04-19T11:02:24.817Z</time>
      </trkpt>
      <trkpt lat="45.82288" lon="5.03169">
        <ele>181.825381</ele>
        <time>2022-04-19T11:02:31.687Z</time>
      </trkpt>
      <trkpt lat="45.82335" lon="5.03215">
        <ele>182.133564</ele>
        <time>2022-04-19T11:02:39.681Z</time>
      </trkpt>
      <trkpt lat="45.82436" lon="5.03368">
        <ele>182.721489</ele>
        <time>2022-04-19T11:02:59.088Z</time>
      </trkpt>
      <trkpt lat="45.82454" lon="5.03399">
        <ele>182.738367</ele>
        <time>2022-04-19T11:03:02.373Z</time>
      </trkpt>
      <trkpt lat="45.82475" lon="5.03432">
        <ele>182.757017</ele>
        <time>2022-04-19T11:03:05.970Z</time>
      </trkpt>
      <trkpt lat="45.82494" lon="5.03464">
        <ele>182.774647</ele>
        <time>2022-04-19T11:03:09.357Z</time>
      </trkpt>
      <trkpt lat="45.82526" lon="5.03516">
        <ele>182.800516</ele>
        <time>2022-04-19T11:03:15.039Z</time>
      </trkpt>
      <trkpt lat="45.82614" lon="5.03646">
        <ele>182.607819</ele>
        <time>2022-04-19T11:03:29.307Z</time>
      </trkpt>
      <trkpt lat="45.8263" lon="5.03667">
        <ele>182.574079</ele>
        <time>2022-04-19T11:03:31.900Z</time>
      </trkpt>
      <trkpt lat="45.82632" lon="5.0367">
        <ele>182.57006</ele>
        <time>2022-04-19T11:03:32.204Z</time>
      </trkpt>
      <trkpt lat="45.82682" lon="5.03738">
        <ele>182.343167</ele>
        <time>2022-04-19T11:03:40.180Z</time>
      </trkpt>
      <trkpt lat="45.82756" lon="5.03836">
        <ele>181.896448</ele>
        <time>2022-04-19T11:03:50.867Z</time>
      </trkpt>
      <trkpt lat="45.82885" lon="5.04007">
        <ele>181.031545</ele>
        <time>2022-04-19T11:04:08.958Z</time>
      </trkpt>
      <trkpt lat="45.82933" lon="5.04069">
        <ele>180.858055</ele>
        <time>2022-04-19T11:04:16.074Z</time>
      </trkpt>
      <trkpt lat="45.83122" lon="5.04256">
        <ele>181.225823</ele>
        <time>2022-04-19T11:04:45.387Z</time>
      </trkpt>
      <trkpt lat="45.83151" lon="5.04296">
        <ele>181.289286</ele>
        <time>2022-04-19T11:04:50.382Z</time>
      </trkpt>
      <trkpt lat="45.83261" lon="5.04458">
        <ele>181.375768</ele>
        <time>2022-04-19T11:05:09.163Z</time>
      </trkpt>
      <trkpt lat="45.83417" lon="5.04638">
        <ele>181.310445</ele>
        <time>2022-04-19T11:05:32.641Z</time>
      </trkpt>
      <trkpt lat="45.83442" lon="5.04666">
        <ele>181.297592</ele>
        <time>2022-04-19T11:05:36.320Z</time>
      </trkpt>
      <trkpt lat="45.83637" lon="5.04885">
        <ele>181.408563</ele>
        <time>2022-04-19T11:06:05.511Z</time>
      </trkpt>
      <trkpt lat="45.83638" lon="5.04885">
        <ele>181.413977</ele>
        <time>2022-04-19T11:06:05.598Z</time>
      </trkpt>
      <trkpt lat="45.83689" lon="5.04931">
        <ele>181.73404</ele>
        <time>2022-04-19T11:06:13.418Z</time>
      </trkpt>
      <trkpt lat="45.83722" lon="5.04953">
        <ele>181.927994</ele>
        <time>2022-04-19T11:06:18.886Z</time>
      </trkpt>
      <trkpt lat="45.83808" lon="5.04994">
        <ele>182.589638</ele>
        <time>2022-04-19T11:06:32.026Z</time>
      </trkpt>
      <trkpt lat="45.83822" lon="5.05007">
        <ele>182.746078</ele>
        <time>2022-04-19T11:06:34.422Z</time>
      </trkpt>
      <trkpt lat="45.83836" lon="5.05021">
        <ele>182.923893</ele>
        <time>2022-04-19T11:06:36.987Z</time>
      </trkpt>
      <trkpt lat="45.83835" lon="5.05032">
        <ele>182.999331</ele>
        <time>2022-04-19T11:06:38.136Z</time>
      </trkpt>
      <trkpt lat="45.83841" lon="5.05045">
        <ele>183.110543</ele>
        <time>2022-04-19T11:06:39.809Z</time>
      </trkpt>
      <trkpt lat="45.83849" lon="5.05048">
        <ele>183.191612</ele>
        <time>2022-04-19T11:06:41.070Z</time>
      </trkpt>
      <trkpt lat="45.8386" lon="5.05039">
        <ele>183.311379</ele>
        <time>2022-04-19T11:06:42.698Z</time>
      </trkpt>
      <trkpt lat="45.83861" lon="5.05022">
        <ele>183.43154</ele>
        <time>2022-04-19T11:06:44.511Z</time>
      </trkpt>
      <trkpt lat="45.83884" lon="5.05005">
        <ele>183.691152</ele>
        <time>2022-04-19T11:06:48.443Z</time>
      </trkpt>
      <trkpt lat="45.83982" lon="5.04993">
        <ele>184.886316</ele>
        <time>2022-04-19T11:07:04.358Z</time>
      </trkpt>
      <trkpt lat="45.84021" lon="5.0498">
        <ele>185.404801</ele>
        <time>2022-04-19T11:07:10.562Z</time>
      </trkpt>
      <trkpt lat="45.84098" lon="5.04934">
        <ele>186.458096</ele>
        <time>2022-04-19T11:07:24.219Z</time>
      </trkpt>
      <trkpt lat="45.84132" lon="5.04909">
        <ele>186.784774</ele>
        <time>2022-04-19T11:07:30.405Z</time>
      </trkpt>
      <trkpt lat="45.84144" lon="5.04911">
        <ele>186.890458</ele>
        <time>2022-04-19T11:07:32.477Z</time>
      </trkpt>
      <trkpt lat="45.84158" lon="5.04901">
        <ele>187.020018</ele>
        <time>2022-04-19T11:07:34.935Z</time>
      </trkpt>
      <trkpt lat="45.84164" lon="5.04885">
        <ele>187.135621</ele>
        <time>2022-04-19T11:07:37.074Z</time>
      </trkpt>
      <trkpt lat="45.84163" lon="5.04857">
        <ele>187.29995</ele>
        <time>2022-04-19T11:07:40.029Z</time>
      </trkpt>
      <trkpt lat="45.8416" lon="5.0485">
        <ele>187.349239</ele>
        <time>2022-04-19T11:07:40.810Z</time>
      </trkpt>
      <trkpt lat="45.84159" lon="5.04826">
        <ele>187.496406</ele>
        <time>2022-04-19T11:07:43.981Z</time>
      </trkpt>
      <trkpt lat="45.84164" lon="5.04808">
        <ele>187.612736</ele>
        <time>2022-04-19T11:07:45.838Z</time>
      </trkpt>
      <trkpt lat="45.84163" lon="5.04795">
        <ele>187.691577</ele>
        <time>2022-04-19T11:07:46.953Z</time>
      </trkpt>
      <trkpt lat="45.84151" lon="5.04765">
        <ele>187.896402</ele>
        <time>2022-04-19T11:07:49.894Z</time>
      </trkpt>
      <trkpt lat="45.84116" lon="5.04705">
        <ele>187.372988</ele>
        <time>2022-04-19T11:07:55.812Z</time>
      </trkpt>
      <trkpt lat="45.84003" lon="5.0446">
        <ele>184.996735</ele>
        <time>2022-04-19T11:08:14.824Z</time>
      </trkpt>
      <trkpt lat="45.83965" lon="5.04391">
        <ele>184.120781</ele>
        <time>2022-04-19T11:08:20.422Z</time>
      </trkpt>
      <trkpt lat="45.83954" lon="5.04341">
        <ele>183.606748</ele>
        <time>2022-04-19T11:08:23.861Z</time>
      </trkpt>
      <trkpt lat="45.83969" lon="5.04216">
        <ele>182.945186</ele>
        <time>2022-04-19T11:08:32.524Z</time>
      </trkpt>
      <trkpt lat="45.83995" lon="5.04151">
        <ele>182.57301</ele>
        <time>2022-04-19T11:08:37.866Z</time>
      </trkpt>
      <trkpt lat="45.8402" lon="5.04014">
        <ele>182.555053</ele>
        <time>2022-04-19T11:08:49.124Z</time>
      </trkpt>
      <trkpt lat="45.84029" lon="5.04007">
        <ele>182.609157</ele>
        <time>2022-04-19T11:08:50.487Z</time>
      </trkpt>
      <trkpt lat="45.84026" lon="5.03994">
        <ele>182.657043</ele>
        <time>2022-04-19T11:08:51.513Z</time>
      </trkpt>
      <trkpt lat="45.84049" lon="5.03926">
        <ele>182.934904</ele>
        <time>2022-04-19T11:08:58.842Z</time>
      </trkpt>
      <trkpt lat="45.84051" lon="5.03916">
        <ele>182.975129</ele>
        <time>2022-04-19T11:09:00.009Z</time>
      </trkpt>
      <trkpt lat="45.84053" lon="5.03897">
        <ele>183.045602</ele>
        <time>2022-04-19T11:09:01.948Z</time>
      </trkpt>
      <trkpt lat="45.8405" lon="5.0385">
        <ele>183.227837</ele>
        <time>2022-04-19T11:09:07.052Z</time>
      </trkpt>
      <trkpt lat="45.8403" lon="5.03788">
        <ele>184.202353</ele>
        <time>2022-04-19T11:09:15.000Z</time>
      </trkpt>
      <trkpt lat="45.84035" lon="5.03787">
        <ele>184.305156</ele>
        <time>2022-04-19T11:09:15.897Z</time>
      </trkpt>
      <trkpt lat="45.84044" lon="5.03784">
        <ele>184.497946</ele>
        <time>2022-04-19T11:09:17.622Z</time>
      </trkpt>
      <trkpt lat="45.84055" lon="5.03781">
        <ele>184.727624</ele>
        <time>2022-04-19T11:09:19.682Z</time>
      </trkpt>
      <trkpt lat="45.8406" lon="5.0378">
        <ele>184.820962</ele>
        <time>2022-04-19T11:09:20.535Z</time>
      </trkpt>
      <trkpt lat="45.84074" lon="5.03766">
        <ele>185.16858</ele>
        <time>2022-04-19T11:09:24.651Z</time>
      </trkpt>
      <trkpt lat="45.84112" lon="5.03674">
        <ele>186.692833</ele>
        <time>2022-04-19T11:09:42.920Z</time>
      </trkpt>
      <trkpt lat="45.84139" lon="5.0362">
        <ele>187.421307</ele>
        <time>2022-04-19T11:09:53.685Z</time>
      </trkpt>
      <trkpt lat="45.84164" lon="5.03555">
        <ele>188.165658</ele>
        <time>2022-04-19T11:10:04.730Z</time>
      </trkpt>
      <trkpt lat="45.84164" lon="5.03552">
        <ele>188.196918</ele>
        <time>2022-04-19T11:10:05.169Z</time>
      </trkpt>
      <trkpt lat="45.84164" lon="5.03539">
        <ele>188.328039</ele>
        <time>2022-04-19T11:10:06.983Z</time>
      </trkpt>
      <trkpt lat="45.84158" lon="5.03443">
        <ele>189.295454</ele>
        <time>2022-04-19T11:10:20.116Z</time>
      </trkpt>
      <trkpt lat="45.84153" lon="5.03405">
        <ele>189.516017</ele>
        <time>2022-04-19T11:10:25.183Z</time>
      </trkpt>
      <trkpt lat="45.84152" lon="5.03383">
        <ele>189.549567</ele>
        <time>2022-04-19T11:10:27.976Z</time>
      </trkpt>
      <trkpt lat="45.84145" lon="5.03312">
        <ele>189.660956</ele>
        <time>2022-04-19T11:10:36.430Z</time>
      </trkpt>
      <trkpt lat="45.84128" lon="5.03179">
        <ele>189.868255</ele>
        <time>2022-04-19T11:10:51.470Z</time>
      </trkpt>
      <trkpt lat="45.84265" lon="5.03117">
        <ele>189.719387</ele>
        <time>2022-04-19T11:11:08.474Z</time>
      </trkpt>
      <trkpt lat="45.84271" lon="5.03113">
        <ele>189.711881</ele>
        <time>2022-04-19T11:11:09.193Z</time>
      </trkpt>
      <trkpt lat="45.8428" lon="5.03107">
        <ele>189.700211</ele>
        <time>2022-04-19T11:11:10.298Z</time>
      </trkpt>
      <trkpt lat="45.84298" lon="5.03098">
        <ele>189.677236</ele>
        <time>2022-04-19T11:11:12.482Z</time>
      </trkpt>
      <trkpt lat="45.84308" lon="5.03094">
        <ele>189.651178</ele>
        <time>2022-04-19T11:11:13.568Z</time>
      </trkpt>
      <trkpt lat="45.84361" lon="5.03077">
        <ele>189.340918</ele>
        <time>2022-04-19T11:11:19.453Z</time>
      </trkpt>
      <trkpt lat="45.84321" lon="5.02924">
        <ele>188.69397</ele>
        <time>2022-04-19T11:11:35.866Z</time>
      </trkpt>
      <trkpt lat="45.84308" lon="5.02877">
        <ele>188.401783</ele>
        <time>2022-04-19T11:11:40.893Z</time>
      </trkpt>
      <trkpt lat="45.84295" lon="5.02825">
        <ele>188.055861</ele>
        <time>2022-04-19T11:11:46.308Z</time>
      </trkpt>
      <trkpt lat="45.84295" lon="5.02825">
        <ele>188.055861</ele>
        <time>2022-04-19T11:11:46.385Z</time>
      </trkpt>
      <trkpt lat="45.84295" lon="5.02825">
        <ele>188.055861</ele>
        <time>2022-04-19T11:11:46.393Z</time>
      </trkpt>
      <trkpt lat="45.84263" lon="5.02709">
        <ele>187.266949</ele>
        <time>2022-04-19T11:11:58.627Z</time>
      </trkpt>
      <trkpt lat="45.84236" lon="5.02615">
        <ele>186.550455</ele>
        <time>2022-04-19T11:12:08.462Z</time>
      </trkpt>
      <trkpt lat="45.84233" lon="5.02605">
        <ele>186.469893</ele>
        <time>2022-04-19T11:12:09.482Z</time>
      </trkpt>
      <trkpt lat="45.84224" lon="5.02573">
        <ele>186.209698</ele>
        <time>2022-04-19T11:12:12.812Z</time>
      </trkpt>
      <trkpt lat="45.84189" lon="5.02441">
        <ele>185.146674</ele>
        <time>2022-04-19T11:12:26.197Z</time>
      </trkpt>
      <trkpt lat="45.84187" lon="5.02433">
        <ele>185.077597</ele>
        <time>2022-04-19T11:12:27.047Z</time>
      </trkpt>
      <trkpt lat="45.84148" lon="5.02286">
        <ele>184.000567</ele>
        <time>2022-04-19T11:12:41.889Z</time>
      </trkpt>
      <trkpt lat="45.8413" lon="5.02221">
        <ele>183.522469</ele>
        <time>2022-04-19T11:12:48.773Z</time>
      </trkpt>
      <trkpt lat="45.84095" lon="5.0209">
        <ele>183.343082</ele>
        <time>2022-04-19T11:13:03.492Z</time>
      </trkpt>
      <trkpt lat="45.84072" lon="5.02004">
        <ele>183.375719</ele>
        <time>2022-04-19T11:13:14.475Z</time>
      </trkpt>
      <trkpt lat="45.84051" lon="5.01929">
        <ele>183.461222</ele>
        <time>2022-04-19T11:13:24.845Z</time>
      </trkpt>
      <trkpt lat="45.84003" lon="5.0175">
        <ele>184.009221</ele>
        <time>2022-04-19T11:13:48.441Z</time>
      </trkpt>
      <trkpt lat="45.84005" lon="5.01733">
        <ele>184.058009</ele>
        <time>2022-04-19T11:13:49.889Z</time>
      </trkpt>
      <trkpt lat="45.84009" lon="5.01712">
        <ele>184.118932</ele>
        <time>2022-04-19T11:13:52.488Z</time>
      </trkpt>
      <trkpt lat="45.83997" lon="5.017">
        <ele>184.12508</ele>
        <time>2022-04-19T11:13:54.795Z</time>
      </trkpt>
      <trkpt lat="45.83986" lon="5.01683">
        <ele>184.114675</ele>
        <time>2022-04-19T11:13:57.382Z</time>
      </trkpt>
      <trkpt lat="45.83909" lon="5.01401">
        <ele>184.392199</ele>
        <time>2022-04-19T11:14:30.545Z</time>
      </trkpt>
      <trkpt lat="45.83906" lon="5.01389">
        <ele>184.451183</ele>
        <time>2022-04-19T11:14:31.898Z</time>
      </trkpt>
      <trkpt lat="45.83971" lon="5.01349">
        <ele>184.90695</ele>
        <time>2022-04-19T11:14:45.645Z</time>
      </trkpt>
      <trkpt lat="45.84007" lon="5.01311">
        <ele>185.200127</ele>
        <time>2022-04-19T11:14:54.667Z</time>
      </trkpt>
      <trkpt lat="45.84" lon="5.01278">
        <ele>185.414991</ele>
        <time>2022-04-19T11:14:58.520Z</time>
      </trkpt>
      <trkpt lat="45.84" lon="5.01092">
        <ele>186.571098</ele>
        <time>2022-04-19T11:15:18.040Z</time>
      </trkpt>
      <trkpt lat="45.83971" lon="5.00896">
        <ele>187.697669</ele>
        <time>2022-04-19T11:15:35.755Z</time>
      </trkpt>
      <trkpt lat="45.83934" lon="5.00669">
        <ele>190.350326</ele>
        <time>2022-04-19T11:16:03.061Z</time>
      </trkpt>
      <trkpt lat="45.8395" lon="5.00648">
        <ele>190.805847</ele>
        <time>2022-04-19T11:16:07.421Z</time>
      </trkpt>
      <trkpt lat="45.83958" lon="5.00618">
        <ele>191.289455</ele>
        <time>2022-04-19T11:16:11.909Z</time>
      </trkpt>
      <trkpt lat="45.83963" lon="5.00584">
        <ele>191.81533</ele>
        <time>2022-04-19T11:16:16.985Z</time>
      </trkpt>
      <trkpt lat="45.83971" lon="5.00509">
        <ele>193.375545</ele>
        <time>2022-04-19T11:16:28.777Z</time>
      </trkpt>
      <trkpt lat="45.83971" lon="5.00479">
        <ele>194.051043</ele>
        <time>2022-04-19T11:16:33.525Z</time>
      </trkpt>
      <trkpt lat="45.83979" lon="5.00397">
        <ele>195.902527</ele>
        <time>2022-04-19T11:16:46.820Z</time>
      </trkpt>
      <trkpt lat="45.83994" lon="5.0032">
        <ele>197.687327</ele>
        <time>2022-04-19T11:16:58.886Z</time>
      </trkpt>
      <trkpt lat="45.83995" lon="5.00316">
        <ele>197.787698</ele>
        <time>2022-04-19T11:16:59.571Z</time>
      </trkpt>
      <trkpt lat="45.83999" lon="5.00293">
        <ele>198.341396</ele>
        <time>2022-04-19T11:17:03.137Z</time>
      </trkpt>
      <trkpt lat="45.84003" lon="5.00266">
        <ele>198.992909</ele>
        <time>2022-04-19T11:17:07.278Z</time>
      </trkpt>
      <trkpt lat="45.84006" lon="5.00228">
        <ele>199.872359</ele>
        <time>2022-04-19T11:17:13.065Z</time>
      </trkpt>
      <trkpt lat="45.84007" lon="5.00188">
        <ele>200.809985</ele>
        <time>2022-04-19T11:17:20.564Z</time>
      </trkpt>
      <trkpt lat="45.83995" lon="5.00147">
        <ele>201.857542</ele>
        <time>2022-04-19T11:17:28.895Z</time>
      </trkpt>
      <trkpt lat="45.83985" lon="5.00105">
        <ele>202.894091</ele>
        <time>2022-04-19T11:17:37.112Z</time>
      </trkpt>
      <trkpt lat="45.83982" lon="5.00095">
        <ele>203.15021</ele>
        <time>2022-04-19T11:17:39.297Z</time>
      </trkpt>
      <trkpt lat="45.8398" lon="5.00085">
        <ele>203.387623</ele>
        <time>2022-04-19T11:17:41.187Z</time>
      </trkpt>
      <trkpt lat="45.83977" lon="5.00072">
        <ele>203.708973</ele>
        <time>2022-04-19T11:17:43.780Z</time>
      </trkpt>
      <trkpt lat="45.84057" lon="5.00031">
        <ele>207.254516</ele>
        <time>2022-04-19T11:18:08.552Z</time>
      </trkpt>
      <trkpt lat="45.84079" lon="5.00011">
        <ele>208.36117</ele>
        <time>2022-04-19T11:18:15.567Z</time>
      </trkpt>
      <trkpt lat="45.84093" lon="4.99989">
        <ele>209.244159</ele>
        <time>2022-04-19T11:18:22.061Z</time>
      </trkpt>
      <trkpt lat="45.84096" lon="4.99983">
        <ele>209.455489</ele>
        <time>2022-04-19T11:18:23.483Z</time>
      </trkpt>
      <trkpt lat="45.84109" lon="4.9993">
        <ele>211.124674</ele>
        <time>2022-04-19T11:18:35.883Z</time>
      </trkpt>
      <trkpt lat="45.84109" lon="4.99929">
        <ele>211.145813</ele>
        <time>2022-04-19T11:18:35.941Z</time>
      </trkpt>
      <trkpt lat="45.84099" lon="4.99837">
        <ele>214.372319</ele>
        <time>2022-04-19T11:18:57.548Z</time>
      </trkpt>
      <trkpt lat="45.84099" lon="4.99829">
        <ele>214.679798</ele>
        <time>2022-04-19T11:18:59.604Z</time>
      </trkpt>
      <trkpt lat="45.84107" lon="4.99826">
        <ele>215.104153</ele>
        <time>2022-04-19T11:19:02.124Z</time>
      </trkpt>
      <trkpt lat="45.84196" lon="5.00039">
        <ele>224.190211</ele>
        <time>2022-04-19T11:19:58.688Z</time>
      </trkpt>
      <trkpt lat="45.842" lon="5.00049">
        <ele>224.633183</ele>
        <time>2022-04-19T11:20:00.261Z</time>
      </trkpt>
      <trkpt lat="45.84236" lon="5.00139">
        <ele>228.609393</ele>
        <time>2022-04-19T11:20:23.437Z</time>
      </trkpt>
      <trkpt lat="45.84241" lon="5.00151">
        <ele>229.131044</ele>
        <time>2022-04-19T11:20:26.702Z</time>
      </trkpt>
      <trkpt lat="45.84273" lon="5.00179">
        <ele>231.179468</ele>
        <time>2022-04-19T11:20:37.394Z</time>
      </trkpt>
      <trkpt lat="45.84306" lon="5.00192">
        <ele>232.977935</ele>
        <time>2022-04-19T11:20:46.278Z</time>
      </trkpt>
      <trkpt lat="45.84312" lon="5.00187">
        <ele>233.32308</ele>
        <time>2022-04-19T11:20:48.467Z</time>
      </trkpt>
      <trkpt lat="45.84311" lon="5.00173">
        <ele>233.870854</ele>
        <time>2022-04-19T11:20:52.072Z</time>
      </trkpt>
      <trkpt lat="45.84297" lon="5.00136">
        <ele>235.41207</ele>
        <time>2022-04-19T11:21:01.853Z</time>
      </trkpt>
      <trkpt lat="45.84264" lon="5.00019">
        <ele>240.042972</ele>
        <time>2022-04-19T11:21:31.333Z</time>
      </trkpt>
      <trkpt lat="45.84242" lon="4.99753">
        <ele>248.89545</ele>
        <time>2022-04-19T11:22:30.227Z</time>
      </trkpt>
      <trkpt lat="45.84229" lon="4.9967">
        <ele>250.945827</ele>
        <time>2022-04-19T11:22:47.594Z</time>
      </trkpt>
      <trkpt lat="45.84213" lon="4.99605">
        <ele>252.598525</ele>
        <time>2022-04-19T11:23:00.237Z</time>
      </trkpt>
      <trkpt lat="45.84211" lon="4.99573">
        <ele>253.36764</ele>
        <time>2022-04-19T11:23:05.954Z</time>
      </trkpt>
      <trkpt lat="45.84216" lon="4.99561">
        <ele>253.693974</ele>
        <time>2022-04-19T11:23:08.444Z</time>
      </trkpt>
      <trkpt lat="45.84224" lon="4.99568">
        <ele>254.02464</ele>
        <time>2022-04-19T11:23:10.641Z</time>
      </trkpt>
      <trkpt lat="45.84229" lon="4.99622">
        <ele>255.469179</ele>
        <time>2022-04-19T11:23:19.823Z</time>
      </trkpt>
      <trkpt lat="45.8425" lon="4.99675">
        <ele>257.398177</ele>
        <time>2022-04-19T11:23:29.178Z</time>
      </trkpt>
      <trkpt lat="45.84313" lon="4.99951">
        <ele>269.528638</ele>
        <time>2022-04-19T11:24:38.623Z</time>
      </trkpt>
      <trkpt lat="45.84326" lon="4.99975">
        <ele>271.288514</ele>
        <time>2022-04-19T11:24:49.141Z</time>
      </trkpt>
      <trkpt lat="45.84341" lon="4.99973">
        <ele>272.563614</ele>
        <time>2022-04-19T11:24:56.394Z</time>
      </trkpt>
      <trkpt lat="45.84374" lon="4.99848">
        <ele>280.37301</ele>
        <time>2022-04-19T11:25:42.337Z</time>
      </trkpt>
      <trkpt lat="45.84375" lon="4.99798">
        <ele>283.368237</ele>
        <time>2022-04-19T11:25:59.363Z</time>
      </trkpt>
      <trkpt lat="45.84371" lon="4.99782">
        <ele>284.44781</ele>
        <time>2022-04-19T11:26:05.473Z</time>
      </trkpt>
      <trkpt lat="45.84343" lon="4.99726">
        <ele>288.587667</ele>
        <time>2022-04-19T11:26:27.403Z</time>
      </trkpt>
      <trkpt lat="45.84341" lon="4.99692">
        <ele>290.673565</ele>
        <time>2022-04-19T11:26:37.806Z</time>
      </trkpt>
      <trkpt lat="45.84366" lon="4.99575">
        <ele>296.426421</ele>
        <time>2022-04-19T11:27:06.293Z</time>
      </trkpt>
      <trkpt lat="45.84379" lon="4.99538">
        <ele>297.990432</ele>
        <time>2022-04-19T11:27:15.351Z</time>
      </trkpt>
      <trkpt lat="45.84391" lon="4.99519">
        <ele>298.952434</ele>
        <time>2022-04-19T11:27:22.281Z</time>
      </trkpt>
      <trkpt lat="45.8441" lon="4.99499">
        <ele>300.220843</ele>
        <time>2022-04-19T11:27:29.308Z</time>
      </trkpt>
      <trkpt lat="45.84504" lon="4.99459">
        <ele>305.023755</ele>
        <time>2022-04-19T11:28:01.848Z</time>
      </trkpt>
      <trkpt lat="45.84722" lon="4.99382">
        <ele>312.967448</ele>
        <time>2022-04-19T11:29:04.636Z</time>
      </trkpt>
      <trkpt lat="45.8473" lon="4.9938">
        <ele>313.181504</ele>
        <time>2022-04-19T11:29:06.536Z</time>
      </trkpt>
      <trkpt lat="45.84751" lon="4.99378">
        <ele>313.7327</ele>
        <time>2022-04-19T11:29:11.290Z</time>
      </trkpt>
      <trkpt lat="45.84823" lon="4.99413">
        <ele>315.618021</ele>
        <time>2022-04-19T11:29:27.962Z</time>
      </trkpt>
      <trkpt lat="45.8499" lon="4.99453">
        <ele>317.484636</ele>
        <time>2022-04-19T11:30:01.022Z</time>
      </trkpt>
      <trkpt lat="45.8505" lon="4.99486">
        <ele>317.407362</ele>
        <time>2022-04-19T11:30:12.691Z</time>
      </trkpt>
      <trkpt lat="45.85048" lon="4.99456">
        <ele>317.375499</ele>
        <time>2022-04-19T11:30:16.188Z</time>
      </trkpt>
      <trkpt lat="45.8503" lon="4.99392">
        <ele>317.303466</ele>
        <time>2022-04-19T11:30:23.417Z</time>
      </trkpt>
      <trkpt lat="45.85013" lon="4.99306">
        <ele>317.120536</ele>
        <time>2022-04-19T11:30:31.880Z</time>
      </trkpt>
      <trkpt lat="45.84961" lon="4.9912">
        <ele>315.995278</ele>
        <time>2022-04-19T11:30:51.092Z</time>
      </trkpt>
      <trkpt lat="45.84873" lon="4.98814">
        <ele>316.209544</ele>
        <time>2022-04-19T11:31:29.877Z</time>
      </trkpt>
      <trkpt lat="45.8486" lon="4.9881">
        <ele>316.299683</ele>
        <time>2022-04-19T11:31:32.350Z</time>
      </trkpt>
      <trkpt lat="45.84799" lon="4.98835">
        <ele>316.737264</ele>
        <time>2022-04-19T11:31:44.341Z</time>
      </trkpt>
      <trkpt lat="45.84786" lon="4.98828">
        <ele>316.833688</ele>
        <time>2022-04-19T11:31:46.980Z</time>
      </trkpt>
      <trkpt lat="45.84782" lon="4.98747">
        <ele>317.22251</ele>
        <time>2022-04-19T11:31:57.462Z</time>
      </trkpt>
      <trkpt lat="45.84772" lon="4.98529">
        <ele>317.910526</ele>
        <time>2022-04-19T11:32:25.922Z</time>
      </trkpt>
      <trkpt lat="45.84862" lon="4.98513">
        <ele>317.188912</ele>
        <time>2022-04-19T11:32:35.351Z</time>
      </trkpt>
      <trkpt lat="45.84873" lon="4.98504">
        <ele>316.989889</ele>
        <time>2022-04-19T11:32:36.630Z</time>
      </trkpt>
      <trkpt lat="45.84741" lon="4.98182">
        <ele>312.344782</ele>
        <time>2022-04-19T11:33:08.654Z</time>
      </trkpt>
      <trkpt lat="45.8467" lon="4.98005">
        <ele>310.762886</ele>
        <time>2022-04-19T11:33:23.247Z</time>
      </trkpt>
      <trkpt lat="45.84582" lon="4.97791">
        <ele>308.423303</ele>
        <time>2022-04-19T11:33:40.493Z</time>
      </trkpt>
      <trkpt lat="45.84555" lon="4.97694">
        <ele>307.214677</ele>
        <time>2022-04-19T11:33:46.605Z</time>
      </trkpt>
      <trkpt lat="45.84526" lon="4.9759">
        <ele>304.521117</ele>
        <time>2022-04-19T11:33:52.969Z</time>
      </trkpt>
      <trkpt lat="45.8451" lon="4.97536">
        <ele>303.061499</ele>
        <time>2022-04-19T11:33:56.205Z</time>
      </trkpt>
      <trkpt lat="45.84501" lon="4.97536">
        <ele>302.760716</ele>
        <time>2022-04-19T11:33:57.135Z</time>
      </trkpt>
      <trkpt lat="45.84483" lon="4.97525">
        <ele>302.059822</ele>
        <time>2022-04-19T11:33:59.388Z</time>
      </trkpt>
      <trkpt lat="45.84443" lon="4.97492">
        <ele>300.283243</ele>
        <time>2022-04-19T11:34:04.586Z</time>
      </trkpt>
      <trkpt lat="45.84409" lon="4.97464">
        <ele>298.344705</ele>
        <time>2022-04-19T11:34:09.082Z</time>
      </trkpt>
      <trkpt lat="45.84386" lon="4.97446">
        <ele>297.047948</ele>
        <time>2022-04-19T11:34:11.974Z</time>
      </trkpt>
      <trkpt lat="45.84364" lon="4.9743">
        <ele>295.877737</ele>
        <time>2022-04-19T11:34:14.546Z</time>
      </trkpt>
      <trkpt lat="45.84302" lon="4.97383">
        <ele>292.393651</ele>
        <time>2022-04-19T11:34:22.114Z</time>
      </trkpt>
      <trkpt lat="45.84293" lon="4.97387">
        <ele>291.928569</ele>
        <time>2022-04-19T11:34:23.108Z</time>
      </trkpt>
      <trkpt lat="45.84288" lon="4.97432">
        <ele>290.117461</ele>
        <time>2022-04-19T11:34:26.397Z</time>
      </trkpt>
      <trkpt lat="45.84282" lon="4.97449">
        <ele>289.320998</ele>
        <time>2022-04-19T11:34:27.741Z</time>
      </trkpt>
      <trkpt lat="45.84254" lon="4.97486">
        <ele>287.098138</ele>
        <time>2022-04-19T11:34:31.705Z</time>
      </trkpt>
      <trkpt lat="45.84234" lon="4.97492">
        <ele>285.893692</ele>
        <time>2022-04-19T11:34:34.003Z</time>
      </trkpt>
      <trkpt lat="45.84214" lon="4.97486">
        <ele>284.730961</ele>
        <time>2022-04-19T11:34:36.016Z</time>
      </trkpt>
      <trkpt lat="45.8419" lon="4.97463">
        <ele>283.019732</ele>
        <time>2022-04-19T11:34:39.113Z</time>
      </trkpt>
      <trkpt lat="45.84174" lon="4.97432">
        <ele>281.46458</ele>
        <time>2022-04-19T11:34:42.059Z</time>
      </trkpt>
      <trkpt lat="45.84161" lon="4.97425">
        <ele>280.82539</ele>
        <time>2022-04-19T11:34:43.446Z</time>
      </trkpt>
      <trkpt lat="45.84114" lon="4.97443">
        <ele>278.540183</ele>
        <time>2022-04-19T11:34:48.987Z</time>
      </trkpt>
      <trkpt lat="45.84097" lon="4.97443">
        <ele>277.774046</ele>
        <time>2022-04-19T11:34:50.892Z</time>
      </trkpt>
      <trkpt lat="45.84086" lon="4.97434">
        <ele>277.162764</ele>
        <time>2022-04-19T11:34:52.343Z</time>
      </trkpt>
      <trkpt lat="45.84068" lon="4.97404">
        <ele>275.909468</ele>
        <time>2022-04-19T11:34:55.323Z</time>
      </trkpt>
      <trkpt lat="45.8406" lon="4.97404">
        <ele>275.528391</ele>
        <time>2022-04-19T11:34:56.202Z</time>
      </trkpt>
      <trkpt lat="45.84055" lon="4.97414">
        <ele>275.124529</ele>
        <time>2022-04-19T11:34:57.134Z</time>
      </trkpt>
      <trkpt lat="45.8406" lon="4.97465">
        <ele>273.433868</ele>
        <time>2022-04-19T11:35:01.058Z</time>
      </trkpt>
      <trkpt lat="45.84055" lon="4.97485">
        <ele>272.696791</ele>
        <time>2022-04-19T11:35:02.710Z</time>
      </trkpt>
      <trkpt lat="45.84044" lon="4.97496">
        <ele>271.989585</ele>
        <time>2022-04-19T11:35:04.130Z</time>
      </trkpt>
      <trkpt lat="45.84043" lon="4.97496">
        <ele>271.950704</ele>
        <time>2022-04-19T11:35:04.197Z</time>
      </trkpt>
      <trkpt lat="45.84007" lon="4.97514">
        <ele>269.923122</ele>
        <time>2022-04-19T11:35:08.471Z</time>
      </trkpt>
      <trkpt lat="45.83985" lon="4.97519">
        <ele>268.706656</ele>
        <time>2022-04-19T11:35:11.310Z</time>
      </trkpt>
      <trkpt lat="45.83919" lon="4.97508">
        <ele>265.163803</ele>
        <time>2022-04-19T11:35:18.421Z</time>
      </trkpt>
      <trkpt lat="45.83907" lon="4.97514">
        <ele>264.489901</ele>
        <time>2022-04-19T11:35:19.773Z</time>
      </trkpt>
      <trkpt lat="45.83906" lon="4.97521">
        <ele>264.213001</ele>
        <time>2022-04-19T11:35:20.268Z</time>
      </trkpt>
      <trkpt lat="45.83911" lon="4.97527">
        <ele>263.851813</ele>
        <time>2022-04-19T11:35:20.920Z</time>
      </trkpt>
      <trkpt lat="45.83973" lon="4.9755">
        <ele>258.048467</ele>
        <time>2022-04-19T11:35:27.448Z</time>
      </trkpt>
      <trkpt lat="45.83976" lon="4.97556">
        <ele>257.585343</ele>
        <time>2022-04-19T11:35:27.889Z</time>
      </trkpt>
      <trkpt lat="45.83968" lon="4.97567">
        <ele>256.577143</ele>
        <time>2022-04-19T11:35:29.008Z</time>
      </trkpt>
      <trkpt lat="45.83946" lon="4.97574">
        <ele>254.403739</ele>
        <time>2022-04-19T11:35:31.249Z</time>
      </trkpt>
      <trkpt lat="45.83892" lon="4.97586">
        <ele>249.245845</ele>
        <time>2022-04-19T11:35:36.594Z</time>
      </trkpt>
      <trkpt lat="45.83824" lon="4.97604">
        <ele>241.703117</ele>
        <time>2022-04-19T11:35:43.204Z</time>
      </trkpt>
      <trkpt lat="45.83758" lon="4.97595">
        <ele>233.802501</ele>
        <time>2022-04-19T11:35:47.701Z</time>
      </trkpt>
      <trkpt lat="45.83754" lon="4.97593">
        <ele>233.362821</ele>
        <time>2022-04-19T11:35:47.955Z</time>
      </trkpt>
      <trkpt lat="45.83744" lon="4.9759">
        <ele>232.132328</ele>
        <time>2022-04-19T11:35:48.647Z</time>
      </trkpt>
      <trkpt lat="45.83709" lon="4.97574">
        <ele>227.735747</ele>
        <time>2022-04-19T11:35:51.130Z</time>
      </trkpt>
      <trkpt lat="45.83641" lon="4.97603">
        <ele>220.765399</ele>
        <time>2022-04-19T11:35:55.944Z</time>
      </trkpt>
      <trkpt lat="45.83631" lon="4.97601">
        <ele>219.84263</ele>
        <time>2022-04-19T11:35:56.643Z</time>
      </trkpt>
      <trkpt lat="45.83615" lon="4.97585">
        <ele>218.099573</ele>
        <time>2022-04-19T11:35:58.027Z</time>
      </trkpt>
      <trkpt lat="45.83604" lon="4.97588">
        <ele>217.128869</ele>
        <time>2022-04-19T11:35:58.756Z</time>
      </trkpt>
      <trkpt lat="45.83594" lon="4.97599">
        <ele>215.956203</ele>
        <time>2022-04-19T11:35:59.704Z</time>
      </trkpt>
      <trkpt lat="45.83577" lon="4.97631">
        <ele>213.486566</ele>
        <time>2022-04-19T11:36:01.651Z</time>
      </trkpt>
      <trkpt lat="45.83553" lon="4.97566">
        <ele>208.981833</ele>
        <time>2022-04-19T11:36:05.396Z</time>
      </trkpt>
      <trkpt lat="45.83538" lon="4.9756">
        <ele>208.041114</ele>
        <time>2022-04-19T11:36:06.526Z</time>
      </trkpt>
      <trkpt lat="45.8352" lon="4.97565">
        <ele>206.982254</ele>
        <time>2022-04-19T11:36:07.894Z</time>
      </trkpt>
      <trkpt lat="45.83506" lon="4.97558">
        <ele>206.115508</ele>
        <time>2022-04-19T11:36:08.930Z</time>
      </trkpt>
      <trkpt lat="45.83476" lon="4.97482">
        <ele>202.583138</ele>
        <time>2022-04-19T11:36:13.357Z</time>
      </trkpt>
      <trkpt lat="45.83428" lon="4.97414">
        <ele>198.615088</ele>
        <time>2022-04-19T11:36:18.472Z</time>
      </trkpt>
      <trkpt lat="45.83414" lon="4.97385">
        <ele>197.583604</ele>
        <time>2022-04-19T11:36:20.335Z</time>
      </trkpt>
      <trkpt lat="45.83376" lon="4.97386">
        <ele>196.024546</ele>
        <time>2022-04-19T11:36:24.541Z</time>
      </trkpt>
      <trkpt lat="45.83293" lon="4.97444">
        <ele>192.249528</ele>
        <time>2022-04-19T11:36:34.842Z</time>
      </trkpt>
      <trkpt lat="45.83282" lon="4.97403">
        <ele>191.111054</ele>
        <time>2022-04-19T11:36:38.298Z</time>
      </trkpt>
      <trkpt lat="45.83279" lon="4.97397">
        <ele>191.035198</ele>
        <time>2022-04-19T11:36:38.850Z</time>
      </trkpt>
      <trkpt lat="45.83242" lon="4.97309">
        <ele>189.904382</ele>
        <time>2022-04-19T11:36:47.846Z</time>
      </trkpt>
      <trkpt lat="45.83231" lon="4.97265">
        <ele>189.390759</ele>
        <time>2022-04-19T11:36:52.303Z</time>
      </trkpt>
      <trkpt lat="45.83202" lon="4.97154">
        <ele>188.285327</ele>
        <time>2022-04-19T11:37:04.564Z</time>
      </trkpt>
      <trkpt lat="45.83198" lon="4.97121">
        <ele>188.205394</ele>
        <time>2022-04-19T11:37:07.952Z</time>
      </trkpt>
      <trkpt lat="45.83192" lon="4.97002">
        <ele>187.913642</ele>
        <time>2022-04-19T11:37:20.773Z</time>
      </trkpt>
      <trkpt lat="45.83191" lon="4.9699">
        <ele>187.884374</ele>
        <time>2022-04-19T11:37:22.088Z</time>
      </trkpt>
      <trkpt lat="45.83184" lon="4.96963">
        <ele>187.815134</ele>
        <time>2022-04-19T11:37:25.053Z</time>
      </trkpt>
      <trkpt lat="45.83188" lon="4.96952">
        <ele>187.785548</ele>
        <time>2022-04-19T11:37:26.397Z</time>
      </trkpt>
      <trkpt lat="45.83183" lon="4.96919">
        <ele>187.700999</ele>
        <time>2022-04-19T11:37:29.987Z</time>
      </trkpt>
      <trkpt lat="45.83172" lon="4.96881">
        <ele>187.594906</ele>
        <time>2022-04-19T11:37:34.392Z</time>
      </trkpt>
      <trkpt lat="45.83153" lon="4.96855">
        <ele>187.496753</ele>
        <time>2022-04-19T11:37:38.366Z</time>
      </trkpt>
      <trkpt lat="45.83153" lon="4.96831">
        <ele>187.433129</ele>
        <time>2022-04-19T11:37:40.968Z</time>
      </trkpt>
      <trkpt lat="45.83135" lon="4.96792">
        <ele>187.312032</ele>
        <time>2022-04-19T11:37:45.931Z</time>
      </trkpt>
      <trkpt lat="45.83118" lon="4.96774">
        <ele>187.231737</ele>
        <time>2022-04-19T11:37:49.084Z</time>
      </trkpt>
      <trkpt lat="45.83106" lon="4.96761">
        <ele>187.178158</ele>
        <time>2022-04-19T11:37:51.226Z</time>
      </trkpt>
      <trkpt lat="45.83083" lon="4.96696">
        <ele>186.987505</ele>
        <time>2022-04-19T11:37:58.862Z</time>
      </trkpt>
      <trkpt lat="45.83043" lon="4.96618">
        <ele>186.737001</ele>
        <time>2022-04-19T11:38:09.306Z</time>
      </trkpt>
      <trkpt lat="45.83038" lon="4.96577">
        <ele>186.630055</ele>
        <time>2022-04-19T11:38:13.454Z</time>
      </trkpt>
      <trkpt lat="45.83045" lon="4.96536">
        <ele>186.52095</ele>
        <time>2022-04-19T11:38:17.926Z</time>
      </trkpt>
      <trkpt lat="45.83054" lon="4.96495">
        <ele>186.41141</ele>
        <time>2022-04-19T11:38:22.558Z</time>
      </trkpt>
      <trkpt lat="45.83055" lon="4.96474">
        <ele>186.348262</ele>
        <time>2022-04-19T11:38:24.825Z</time>
      </trkpt>
      <trkpt lat="45.83047" lon="4.96406">
        <ele>186.086687</ele>
        <time>2022-04-19T11:38:32.157Z</time>
      </trkpt>
      <trkpt lat="45.83039" lon="4.96385">
        <ele>185.998333</ele>
        <time>2022-04-19T11:38:34.506Z</time>
      </trkpt>
      <trkpt lat="45.83002" lon="4.96296">
        <ele>185.603288</ele>
        <time>2022-04-19T11:38:45.270Z</time>
      </trkpt>
      <trkpt lat="45.82991" lon="4.96281">
        <ele>185.523333</ele>
        <time>2022-04-19T11:38:47.336Z</time>
      </trkpt>
      <trkpt lat="45.82986" lon="4.96238">
        <ele>185.373488</ele>
        <time>2022-04-19T11:38:51.528Z</time>
      </trkpt>
      <trkpt lat="45.82963" lon="4.96122">
        <ele>185.09498</ele>
        <time>2022-04-19T11:39:03.939Z</time>
      </trkpt>
      <trkpt lat="45.82941" lon="4.96051">
        <ele>184.915727</ele>
        <time>2022-04-19T11:39:12.622Z</time>
      </trkpt>
      <trkpt lat="45.8293" lon="4.96016">
        <ele>184.826244</ele>
        <time>2022-04-19T11:39:16.931Z</time>
      </trkpt>
      <trkpt lat="45.82897" lon="4.95859">
        <ele>184.870074</ele>
        <time>2022-04-19T11:39:35.428Z</time>
      </trkpt>
      <trkpt lat="45.8289" lon="4.95825">
        <ele>184.886197</ele>
        <time>2022-04-19T11:39:39.511Z</time>
      </trkpt>
      <trkpt lat="45.82878" lon="4.95799">
        <ele>184.900982</ele>
        <time>2022-04-19T11:39:43.205Z</time>
      </trkpt>
      <trkpt lat="45.82853" lon="4.95771">
        <ele>184.947397</ele>
        <time>2022-04-19T11:39:48.396Z</time>
      </trkpt>
      <trkpt lat="45.82762" lon="4.95723">
        <ele>185.56145</ele>
        <time>2022-04-19T11:40:04.990Z</time>
      </trkpt>
      <trkpt lat="45.82751" lon="4.95723">
        <ele>185.63079</ele>
        <time>2022-04-19T11:40:06.943Z</time>
      </trkpt>
      <trkpt lat="45.82748" lon="4.95702">
        <ele>185.724039</ele>
        <time>2022-04-19T11:40:09.833Z</time>
      </trkpt>
      <trkpt lat="45.82745" lon="4.95671">
        <ele>185.86366</ele>
        <time>2022-04-19T11:40:14.252Z</time>
      </trkpt>
      <trkpt lat="45.8274" lon="4.95628">
        <ele>186.051218</ele>
        <time>2022-04-19T11:40:20.394Z</time>
      </trkpt>
      <trkpt lat="45.82741" lon="4.95576">
        <ele>186.626575</ele>
        <time>2022-04-19T11:40:27.852Z</time>
      </trkpt>
      <trkpt lat="45.82744" lon="4.95559">
        <ele>186.81285</ele>
        <time>2022-04-19T11:40:30.259Z</time>
      </trkpt>
      <trkpt lat="45.82746" lon="4.95532">
        <ele>187.107134</ele>
        <time>2022-04-19T11:40:34.092Z</time>
      </trkpt>
      <trkpt lat="45.82713" lon="4.95449">
        <ele>188.151588</ele>
        <time>2022-04-19T11:40:48.057Z</time>
      </trkpt>
      <trkpt lat="45.827" lon="4.95404">
        <ele>188.686112</ele>
        <time>2022-04-19T11:40:55.904Z</time>
      </trkpt>
      <trkpt lat="45.82689" lon="4.9534">
        <ele>189.517631</ele>
        <time>2022-04-19T11:41:06.272Z</time>
      </trkpt>
      <trkpt lat="45.82689" lon="4.95335">
        <ele>189.584795</ele>
        <time>2022-04-19T11:41:07.083Z</time>
      </trkpt>
      <trkpt lat="45.82686" lon="4.95293">
        <ele>190.144678</ele>
        <time>2022-04-19T11:41:13.436Z</time>
      </trkpt>
      <trkpt lat="45.82688" lon="4.95292">
        <ele>190.182688</ele>
        <time>2022-04-19T11:41:13.812Z</time>
      </trkpt>
      <trkpt lat="45.82692" lon="4.95289">
        <ele>190.270229</ele>
        <time>2022-04-19T11:41:14.626Z</time>
      </trkpt>
      <trkpt lat="45.82696" lon="4.95285">
        <ele>190.362086</ele>
        <time>2022-04-19T11:41:15.507Z</time>
      </trkpt>
      <trkpt lat="45.8271" lon="4.95255">
        <ele>190.843852</ele>
        <time>2022-04-19T11:41:19.612Z</time>
      </trkpt>
      <trkpt lat="45.82712" lon="4.9524">
        <ele>191.057196</ele>
        <time>2022-04-19T11:41:21.550Z</time>
      </trkpt>
      <trkpt lat="45.82711" lon="4.95209">
        <ele>191.463256</ele>
        <time>2022-04-19T11:41:24.916Z</time>
      </trkpt>
      <trkpt lat="45.82648" lon="4.95026">
        <ele>195.451865</ele>
        <time>2022-04-19T11:41:52.837Z</time>
      </trkpt>
      <trkpt lat="45.82622" lon="4.94886">
        <ele>199.131318</ele>
        <time>2022-04-19T11:42:17.997Z</time>
      </trkpt>
      <trkpt lat="45.82595" lon="4.94797">
        <ele>202.833458</ele>
        <time>2022-04-19T11:42:36.988Z</time>
      </trkpt>
      <trkpt lat="45.82588" lon="4.9477">
        <ele>203.93832</ele>
        <time>2022-04-19T11:42:42.770Z</time>
      </trkpt>
      <trkpt lat="45.82584" lon="4.94734">
        <ele>205.334896</ele>
        <time>2022-04-19T11:42:51.133Z</time>
      </trkpt>
      <trkpt lat="45.82584" lon="4.9463">
        <ele>209.513713</ele>
        <time>2022-04-19T11:43:14.606Z</time>
      </trkpt>
      <trkpt lat="45.82494" lon="4.94352">
        <ele>222.317618</ele>
        <time>2022-04-19T11:44:23.985Z</time>
      </trkpt>
      <trkpt lat="45.82494" lon="4.94327">
        <ele>223.199214</ele>
        <time>2022-04-19T11:44:27.830Z</time>
      </trkpt>
      <trkpt lat="45.82519" lon="4.94227">
        <ele>226.836484</ele>
        <time>2022-04-19T11:44:46.922Z</time>
      </trkpt>
      <trkpt lat="45.8252" lon="4.94226">
        <ele>226.881921</ele>
        <time>2022-04-19T11:44:47.053Z</time>
      </trkpt>
      <trkpt lat="45.82526" lon="4.94217">
        <ele>227.307742</ele>
        <time>2022-04-19T11:44:48.932Z</time>
      </trkpt>
      <trkpt lat="45.82534" lon="4.9422">
        <ele>227.725875</ele>
        <time>2022-04-19T11:44:52.758Z</time>
      </trkpt>
      <trkpt lat="45.82537" lon="4.94234">
        <ele>228.215297</ele>
        <time>2022-04-19T11:44:53.969Z</time>
      </trkpt>
      <trkpt lat="45.82534" lon="4.94319">
        <ele>230.622733</ele>
        <time>2022-04-19T11:45:09.476Z</time>
      </trkpt>
      <trkpt lat="45.82542" lon="4.9436">
        <ele>231.790703</ele>
        <time>2022-04-19T11:45:15.267Z</time>
      </trkpt>
      <trkpt lat="45.82664" lon="4.94508">
        <ele>238.486111</ele>
        <time>2022-04-19T11:45:55.546Z</time>
      </trkpt>
      <trkpt lat="45.82683" lon="4.94583">
        <ele>240.981813</ele>
        <time>2022-04-19T11:46:11.748Z</time>
      </trkpt>
      <trkpt lat="45.8271" lon="4.94639">
        <ele>243.060982</ele>
        <time>2022-04-19T11:46:23.425Z</time>
      </trkpt>
      <trkpt lat="45.82732" lon="4.94666">
        <ele>244.319559</ele>
        <time>2022-04-19T11:46:30.662Z</time>
      </trkpt>
      <trkpt lat="45.82747" lon="4.94708">
        <ele>245.738703</ele>
        <time>2022-04-19T11:46:38.899Z</time>
      </trkpt>
      <trkpt lat="45.82787" lon="4.94832">
        <ele>249.814543</ele>
        <time>2022-04-19T11:47:01.963Z</time>
      </trkpt>
      <trkpt lat="45.82802" lon="4.94867">
        <ele>251.04378</ele>
        <time>2022-04-19T11:47:11.831Z</time>
      </trkpt>
      <trkpt lat="45.82828" lon="4.94906">
        <ele>253.146283</ele>
        <time>2022-04-19T11:47:21.963Z</time>
      </trkpt>
      <trkpt lat="45.8284" lon="4.94967">
        <ele>255.669174</ele>
        <time>2022-04-19T11:47:31.570Z</time>
      </trkpt>
      <trkpt lat="45.82848" lon="4.94981">
        <ele>256.401102</ele>
        <time>2022-04-19T11:47:34.316Z</time>
      </trkpt>
      <trkpt lat="45.82854" lon="4.94981">
        <ele>256.781067</ele>
        <time>2022-04-19T11:47:36.602Z</time>
      </trkpt>
      <trkpt lat="45.8286" lon="4.94917">
        <ele>259.325228</ele>
        <time>2022-04-19T11:47:50.644Z</time>
      </trkpt>
      <trkpt lat="45.82859" lon="4.94889">
        <ele>260.451343</ele>
        <time>2022-04-19T11:47:56.856Z</time>
      </trkpt>
      <trkpt lat="45.82854" lon="4.94877">
        <ele>261.03283</ele>
        <time>2022-04-19T11:48:01.096Z</time>
      </trkpt>
      <trkpt lat="45.82822" lon="4.94847">
        <ele>264.578132</ele>
        <time>2022-04-19T11:48:15.361Z</time>
      </trkpt>
      <trkpt lat="45.82806" lon="4.94786">
        <ele>269.336151</ele>
        <time>2022-04-19T11:48:37.578Z</time>
      </trkpt>
      <trkpt lat="45.82805" lon="4.94778">
        <ele>269.948692</ele>
        <time>2022-04-19T11:48:40.297Z</time>
      </trkpt>
      <trkpt lat="45.82797" lon="4.94722">
        <ele>274.099174</ele>
        <time>2022-04-19T11:48:59.141Z</time>
      </trkpt>
      <trkpt lat="45.828" lon="4.94702">
        <ele>275.567967</ele>
        <time>2022-04-19T11:49:05.457Z</time>
      </trkpt>
      <trkpt lat="45.82824" lon="4.94669">
        <ele>279.050367</ele>
        <time>2022-04-19T11:49:21.270Z</time>
      </trkpt>
      <trkpt lat="45.82858" lon="4.94646">
        <ele>282.6828</ele>
        <time>2022-04-19T11:49:39.923Z</time>
      </trkpt>
      <trkpt lat="45.82924" lon="4.94606">
        <ele>289.471682</ele>
        <time>2022-04-19T11:50:14.994Z</time>
      </trkpt>
      <trkpt lat="45.82935" lon="4.94599">
        <ele>290.544165</ele>
        <time>2022-04-19T11:50:19.447Z</time>
      </trkpt>
      <trkpt lat="45.82933" lon="4.94597">
        <ele>290.780681</ele>
        <time>2022-04-19T11:50:20.425Z</time>
      </trkpt>
      <trkpt lat="45.82935" lon="4.94599">
        <ele>291.017196</ele>
        <time>2022-04-19T11:50:21.499Z</time>
      </trkpt>
      <trkpt lat="45.8296" lon="4.94584">
        <ele>293.546358</ele>
        <time>2022-04-19T11:50:32.054Z</time>
      </trkpt>
      <trkpt lat="45.82989" lon="4.94567">
        <ele>296.518418</ele>
        <time>2022-04-19T11:50:43.694Z</time>
      </trkpt>
      <trkpt lat="45.83008" lon="4.94556">
        <ele>297.648614</ele>
        <time>2022-04-19T11:50:49.365Z</time>
      </trkpt>
      <trkpt lat="45.8302" lon="4.9455">
        <ele>298.075554</ele>
        <time>2022-04-19T11:50:52.802Z</time>
      </trkpt>
      <trkpt lat="45.83019" lon="4.94536">
        <ele>298.402613</ele>
        <time>2022-04-19T11:50:55.196Z</time>
      </trkpt>
      <trkpt lat="45.83018" lon="4.94493">
        <ele>299.419502</ele>
        <time>2022-04-19T11:51:02.281Z</time>
      </trkpt>
      <trkpt lat="45.83001" lon="4.9435">
        <ele>302.872177</ele>
        <time>2022-04-19T11:51:22.472Z</time>
      </trkpt>
      <trkpt lat="45.82995" lon="4.94303">
        <ele>303.50872</ele>
        <time>2022-04-19T11:51:28.461Z</time>
      </trkpt>
      <trkpt lat="45.82962" lon="4.94155">
        <ele>304.450345</ele>
        <time>2022-04-19T11:51:45.387Z</time>
      </trkpt>
      <trkpt lat="45.82958" lon="4.94135">
        <ele>304.57898</ele>
        <time>2022-04-19T11:51:47.309Z</time>
      </trkpt>
      <trkpt lat="45.82919" lon="4.93965">
        <ele>303.997634</ele>
        <time>2022-04-19T11:52:00.433Z</time>
      </trkpt>
      <trkpt lat="45.82879" lon="4.93792">
        <ele>302.798216</ele>
        <time>2022-04-19T11:52:11.940Z</time>
      </trkpt>
      <trkpt lat="45.82876" lon="4.93779">
        <ele>302.723666</ele>
        <time>2022-04-19T11:52:13.243Z</time>
      </trkpt>
      <trkpt lat="45.82869" lon="4.93749">
        <ele>302.562849</ele>
        <time>2022-04-19T11:52:16.089Z</time>
      </trkpt>
      <trkpt lat="45.82843" lon="4.93648">
        <ele>302.004893</ele>
        <time>2022-04-19T11:52:26.718Z</time>
      </trkpt>
      <trkpt lat="45.82816" lon="4.9359">
        <ele>301.873624</ele>
        <time>2022-04-19T11:52:34.783Z</time>
      </trkpt>
      <trkpt lat="45.82609" lon="4.93311">
        <ele>305.784878</ele>
        <time>2022-04-19T11:53:36.212Z</time>
      </trkpt>
      <trkpt lat="45.82578" lon="4.93239">
        <ele>306.571284</ele>
        <time>2022-04-19T11:53:47.532Z</time>
      </trkpt>
      <trkpt lat="45.82557" lon="4.93153">
        <ele>306.586456</ele>
        <time>2022-04-19T11:53:58.313Z</time>
      </trkpt>
      <trkpt lat="45.82522" lon="4.93003">
        <ele>306.463917</ele>
        <time>2022-04-19T11:54:15.247Z</time>
      </trkpt>
      <trkpt lat="45.82519" lon="4.92989">
        <ele>306.45239</ele>
        <time>2022-04-19T11:54:16.723Z</time>
      </trkpt>
      <trkpt lat="45.82488" lon="4.92852">
        <ele>305.508399</ele>
        <time>2022-04-19T11:54:30.939Z</time>
      </trkpt>
      <trkpt lat="45.82446" lon="4.92665">
        <ele>303.907868</ele>
        <time>2022-04-19T11:54:49.548Z</time>
      </trkpt>
      <trkpt lat="45.82425" lon="4.92553">
        <ele>302.708508</ele>
        <time>2022-04-19T11:54:59.998Z</time>
      </trkpt>
      <trkpt lat="45.82412" lon="4.92449">
        <ele>301.633609</ele>
        <time>2022-04-19T11:55:09.644Z</time>
      </trkpt>
      <trkpt lat="45.82402" lon="4.92315">
        <ele>300.298272</ele>
        <time>2022-04-19T11:55:21.924Z</time>
      </trkpt>
      <trkpt lat="45.82417" lon="4.92227">
        <ele>299.414171</ele>
        <time>2022-04-19T11:55:30.455Z</time>
      </trkpt>
      <trkpt lat="45.82453" lon="4.92115">
        <ele>298.451805</ele>
        <time>2022-04-19T11:55:42.083Z</time>
      </trkpt>
      <trkpt lat="45.82458" lon="4.92077">
        <ele>298.155075</ele>
        <time>2022-04-19T11:55:45.692Z</time>
      </trkpt>
      <trkpt lat="45.82453" lon="4.92015">
        <ele>297.665646</ele>
        <time>2022-04-19T11:55:51.769Z</time>
      </trkpt>
      <trkpt lat="45.82423" lon="4.91951">
        <ele>297.156977</ele>
        <time>2022-04-19T11:55:57.354Z</time>
      </trkpt>
      <trkpt lat="45.82402" lon="4.91928">
        <ele>296.931505</ele>
        <time>2022-04-19T11:56:00.038Z</time>
      </trkpt>
      <trkpt lat="45.82382" lon="4.91896">
        <ele>296.671766</ele>
        <time>2022-04-19T11:56:03.054Z</time>
      </trkpt>
      <trkpt lat="45.82383" lon="4.9189">
        <ele>296.629848</ele>
        <time>2022-04-19T11:56:03.529Z</time>
      </trkpt>
      <trkpt lat="45.82375" lon="4.91865">
        <ele>296.466905</ele>
        <time>2022-04-19T11:56:05.385Z</time>
      </trkpt>
      <trkpt lat="45.82374" lon="4.91851">
        <ele>296.382271</ele>
        <time>2022-04-19T11:56:06.328Z</time>
      </trkpt>
      <trkpt lat="45.8239" lon="4.91799">
        <ele>296.037566</ele>
        <time>2022-04-19T11:56:10.161Z</time>
      </trkpt>
      <trkpt lat="45.82395" lon="4.91756">
        <ele>295.898435</ele>
        <time>2022-04-19T11:56:13.086Z</time>
      </trkpt>
      <trkpt lat="45.82388" lon="4.91706">
        <ele>295.849615</ele>
        <time>2022-04-19T11:56:16.619Z</time>
      </trkpt>
      <trkpt lat="45.82366" lon="4.91634">
        <ele>295.773052</ele>
        <time>2022-04-19T11:56:22.287Z</time>
      </trkpt>
      <trkpt lat="45.8237" lon="4.91623">
        <ele>295.760796</ele>
        <time>2022-04-19T11:56:23.537Z</time>
      </trkpt>
      <trkpt lat="45.82361" lon="4.91576">
        <ele>295.713275</ele>
        <time>2022-04-19T11:56:29.747Z</time>
      </trkpt>
      <trkpt lat="45.8235" lon="4.91546">
        <ele>295.680653</ele>
        <time>2022-04-19T11:56:34.490Z</time>
      </trkpt>
      <trkpt lat="45.82343" lon="4.91501">
        <ele>296.311402</ele>
        <time>2022-04-19T11:56:45.291Z</time>
      </trkpt>
      <trkpt lat="45.8234" lon="4.91407">
        <ele>297.942964</ele>
        <time>2022-04-19T11:57:07.904Z</time>
      </trkpt>
      <trkpt lat="45.8234" lon="4.91406">
        <ele>297.959252</ele>
        <time>2022-04-19T11:57:08.637Z</time>
      </trkpt>
      <trkpt lat="45.82304" lon="4.91205">
        <ele>301.481324</ele>
        <time>2022-04-19T11:58:07.115Z</time>
      </trkpt>
      <trkpt lat="45.82294" lon="4.91117">
        <ele>302.97045</ele>
        <time>2022-04-19T11:58:29.887Z</time>
      </trkpt>
      <trkpt lat="45.82294" lon="4.90993">
        <ele>304.644123</ele>
        <time>2022-04-19T11:59:00.046Z</time>
      </trkpt>
      <trkpt lat="45.823" lon="4.90927">
        <ele>305.075623</ele>
        <time>2022-04-19T11:59:16.196Z</time>
      </trkpt>
      <trkpt lat="45.82329" lon="4.90804">
        <ele>305.906567</ele>
        <time>2022-04-19T11:59:44.994Z</time>
      </trkpt>
      <trkpt lat="45.82329" lon="4.90803">
        <ele>305.911766</ele>
        <time>2022-04-19T11:59:45.291Z</time>
      </trkpt>
      <trkpt lat="45.82328" lon="4.90789">
        <ele>305.999351</ele>
        <time>2022-04-19T11:59:48.237Z</time>
      </trkpt>
      <trkpt lat="45.82342" lon="4.90744">
        <ele>305.852549</ele>
        <time>2022-04-19T11:59:52.237Z</time>
      </trkpt>
      <trkpt lat="45.82352" lon="4.90701">
        <ele>305.616395</ele>
        <time>2022-04-19T11:59:55.535Z</time>
      </trkpt>
      <trkpt lat="45.82354" lon="4.90689">
        <ele>305.547959</ele>
        <time>2022-04-19T11:59:56.487Z</time>
      </trkpt>
      <trkpt lat="45.82353" lon="4.90622">
        <ele>305.194733</ele>
        <time>2022-04-19T12:00:01.133Z</time>
      </trkpt>
      <trkpt lat="45.8234" lon="4.90522">
        <ele>304.585789</ele>
        <time>2022-04-19T12:00:07.903Z</time>
      </trkpt>
      <trkpt lat="45.82338" lon="4.90508">
        <ele>304.364644</ele>
        <time>2022-04-19T12:00:08.844Z</time>
      </trkpt>
      <trkpt lat="45.82326" lon="4.90424">
        <ele>303.082195</ele>
        <time>2022-04-19T12:00:14.039Z</time>
      </trkpt>
      <trkpt lat="45.82324" lon="4.90416">
        <ele>302.951274</ele>
        <time>2022-04-19T12:00:14.533Z</time>
      </trkpt>
      <trkpt lat="45.82292" lon="4.90286">
        <ele>300.876877</ele>
        <time>2022-04-19T12:00:22.646Z</time>
      </trkpt>
      <trkpt lat="45.82278" lon="4.90205">
        <ele>299.638198</ele>
        <time>2022-04-19T12:00:27.667Z</time>
      </trkpt>
      <trkpt lat="45.82286" lon="4.90197">
        <ele>299.434797</ele>
        <time>2022-04-19T12:00:28.510Z</time>
      </trkpt>
      <trkpt lat="45.82283" lon="4.90183">
        <ele>299.213508</ele>
        <time>2022-04-19T12:00:29.399Z</time>
      </trkpt>
      <trkpt lat="45.8228" lon="4.90181">
        <ele>299.155274</ele>
        <time>2022-04-19T12:00:29.636Z</time>
      </trkpt>
      <trkpt lat="45.82273" lon="4.90184">
        <ele>298.986026</ele>
        <time>2022-04-19T12:00:30.330Z</time>
      </trkpt>
      <trkpt lat="45.82267" lon="4.90176">
        <ele>298.816129</ele>
        <time>2022-04-19T12:00:31.038Z</time>
      </trkpt>
      <trkpt lat="45.82219" lon="4.90099">
        <ele>297.312807</ele>
        <time>2022-04-19T12:00:37.232Z</time>
      </trkpt>
      <trkpt lat="45.82205" lon="4.90064">
        <ele>296.882986</ele>
        <time>2022-04-19T12:00:39.860Z</time>
      </trkpt>
      <trkpt lat="45.82193" lon="4.90034">
        <ele>296.652485</ele>
        <time>2022-04-19T12:00:42.199Z</time>
      </trkpt>
      <trkpt lat="45.82128" lon="4.89873">
        <ele>295.40731</ele>
        <time>2022-04-19T12:00:55.189Z</time>
      </trkpt>
      <trkpt lat="45.82123" lon="4.89861">
        <ele>295.317146</ele>
        <time>2022-04-19T12:00:56.216Z</time>
      </trkpt>
      <trkpt lat="45.82108" lon="4.89818">
        <ele>294.992276</ele>
        <time>2022-04-19T12:01:00.008Z</time>
      </trkpt>
      <trkpt lat="45.82107" lon="4.89813">
        <ele>294.955543</ele>
        <time>2022-04-19T12:01:00.433Z</time>
      </trkpt>
      <trkpt lat="45.82105" lon="4.89808">
        <ele>294.914528</ele>
        <time>2022-04-19T12:01:00.906Z</time>
      </trkpt>
      <trkpt lat="45.82084" lon="4.89744">
        <ele>294.435603</ele>
        <time>2022-04-19T12:01:06.182Z</time>
      </trkpt>
      <trkpt lat="45.82072" lon="4.89691">
        <ele>294.054487</ele>
        <time>2022-04-19T12:01:10.020Z</time>
      </trkpt>
      <trkpt lat="45.82067" lon="4.89672">
        <ele>293.911864</ele>
        <time>2022-04-19T12:01:11.417Z</time>
      </trkpt>
      <trkpt lat="45.8206" lon="4.89648">
        <ele>293.734881</ele>
        <time>2022-04-19T12:01:13.028Z</time>
      </trkpt>
      <trkpt lat="45.82056" lon="4.89632">
        <ele>293.621512</ele>
        <time>2022-04-19T12:01:14.086Z</time>
      </trkpt>
      <trkpt lat="45.82051" lon="4.89615">
        <ele>293.372778</ele>
        <time>2022-04-19T12:01:15.225Z</time>
      </trkpt>
      <trkpt lat="45.82024" lon="4.89535">
        <ele>291.277766</ele>
        <time>2022-04-19T12:01:20.500Z</time>
      </trkpt>
      <trkpt lat="45.82" lon="4.89501">
        <ele>290.148404</ele>
        <time>2022-04-19T12:01:23.241Z</time>
      </trkpt>
      <trkpt lat="45.81951" lon="4.89441">
        <ele>287.975116</ele>
        <time>2022-04-19T12:01:28.254Z</time>
      </trkpt>
      <trkpt lat="45.81911" lon="4.89387">
        <ele>285.71989</ele>
        <time>2022-04-19T12:01:32.383Z</time>
      </trkpt>
      <trkpt lat="45.81899" lon="4.89372">
        <ele>285.031778</ele>
        <time>2022-04-19T12:01:33.563Z</time>
      </trkpt>
      <trkpt lat="45.81884" lon="4.89352">
        <ele>284.139478</ele>
        <time>2022-04-19T12:01:35.091Z</time>
      </trkpt>
      <trkpt lat="45.81851" lon="4.89309">
        <ele>282.239448</ele>
        <time>2022-04-19T12:01:38.460Z</time>
      </trkpt>
      <trkpt lat="45.81815" lon="4.8926">
        <ele>280.085014</ele>
        <time>2022-04-19T12:01:42.434Z</time>
      </trkpt>
      <trkpt lat="45.81805" lon="4.89246">
        <ele>279.615464</ele>
        <time>2022-04-19T12:01:43.603Z</time>
      </trkpt>
      <trkpt lat="45.81779" lon="4.89206">
        <ele>279.084149</ele>
        <time>2022-04-19T12:01:46.769Z</time>
      </trkpt>
      <trkpt lat="45.81773" lon="4.89189">
        <ele>278.89398</ele>
        <time>2022-04-19T12:01:47.958Z</time>
      </trkpt>
      <trkpt lat="45.8175" lon="4.89141">
        <ele>278.32873</ele>
        <time>2022-04-19T12:01:51.583Z</time>
      </trkpt>
      <trkpt lat="45.81721" lon="4.89103">
        <ele>277.770852</ele>
        <time>2022-04-19T12:01:55.505Z</time>
      </trkpt>
      <trkpt lat="45.81714" lon="4.89069">
        <ele>277.419002</ele>
        <time>2022-04-19T12:01:58.280Z</time>
      </trkpt>
      <trkpt lat="45.81708" lon="4.89026">
        <ele>277.163619</ele>
        <time>2022-04-19T12:02:02.170Z</time>
      </trkpt>
      <trkpt lat="45.81688" lon="4.88934">
        <ele>277.211622</ele>
        <time>2022-04-19T12:02:11.735Z</time>
      </trkpt>
      <trkpt lat="45.81679" lon="4.88908">
        <ele>277.226157</ele>
        <time>2022-04-19T12:02:14.117Z</time>
      </trkpt>
      <trkpt lat="45.81675" lon="4.88898">
        <ele>277.231321</ele>
        <time>2022-04-19T12:02:14.862Z</time>
      </trkpt>
      <trkpt lat="45.81645" lon="4.88829">
        <ele>277.271802</ele>
        <time>2022-04-19T12:02:21.112Z</time>
      </trkpt>
      <trkpt lat="45.81633" lon="4.88809">
        <ele>277.289782</ele>
        <time>2022-04-19T12:02:23.092Z</time>
      </trkpt>
      <trkpt lat="45.81625" lon="4.88792">
        <ele>277.330976</ele>
        <time>2022-04-19T12:02:24.949Z</time>
      </trkpt>
      <trkpt lat="45.81593" lon="4.88728">
        <ele>277.4881</ele>
        <time>2022-04-19T12:02:31.414Z</time>
      </trkpt>
      <trkpt lat="45.81551" lon="4.88637">
        <ele>277.705267</ele>
        <time>2022-04-19T12:02:41.643Z</time>
      </trkpt>
      <trkpt lat="45.81489" lon="4.88493">
        <ele>278.30517</ele>
        <time>2022-04-19T12:02:57.790Z</time>
      </trkpt>
      <trkpt lat="45.81444" lon="4.88398">
        <ele>278.775892</ele>
        <time>2022-04-19T12:03:09.139Z</time>
      </trkpt>
      <trkpt lat="45.81401" lon="4.88286">
        <ele>279.1581</ele>
        <time>2022-04-19T12:03:21.087Z</time>
      </trkpt>
      <trkpt lat="45.814" lon="4.88285">
        <ele>279.162216</ele>
        <time>2022-04-19T12:03:21.164Z</time>
      </trkpt>
      <trkpt lat="45.81361" lon="4.88215">
        <ele>279.409296</ele>
        <time>2022-04-19T12:03:29.452Z</time>
      </trkpt>
      <trkpt lat="45.81275" lon="4.88063">
        <ele>279.637589</ele>
        <time>2022-04-19T12:03:46.502Z</time>
      </trkpt>
      <trkpt lat="45.81239" lon="4.87997">
        <ele>279.676618</ele>
        <time>2022-04-19T12:03:53.779Z</time>
      </trkpt>
      <trkpt lat="45.81185" lon="4.87874">
        <ele>279.146975</ele>
        <time>2022-04-19T12:04:04.578Z</time>
      </trkpt>
      <trkpt lat="45.8116" lon="4.87793">
        <ele>278.699816</ele>
        <time>2022-04-19T12:04:10.814Z</time>
      </trkpt>
      <trkpt lat="45.81143" lon="4.87703">
        <ele>278.111437</ele>
        <time>2022-04-19T12:04:17.038Z</time>
      </trkpt>
      <trkpt lat="45.81137" lon="4.87681">
        <ele>277.902686</ele>
        <time>2022-04-19T12:04:18.612Z</time>
      </trkpt>
      <trkpt lat="45.81118" lon="4.87627">
        <ele>277.373942</ele>
        <time>2022-04-19T12:04:22.547Z</time>
      </trkpt>
      <trkpt lat="45.81071" lon="4.87543">
        <ele>276.423804</ele>
        <time>2022-04-19T12:04:29.529Z</time>
      </trkpt>
      <trkpt lat="45.81006" lon="4.87453">
        <ele>275.634457</ele>
        <time>2022-04-19T12:04:38.363Z</time>
      </trkpt>
      <trkpt lat="45.81002" lon="4.87429">
        <ele>275.50882</ele>
        <time>2022-04-19T12:04:40.093Z</time>
      </trkpt>
      <trkpt lat="45.80985" lon="4.87424">
        <ele>275.382704</ele>
        <time>2022-04-19T12:04:41.818Z</time>
      </trkpt>
      <trkpt lat="45.80967" lon="4.87408">
        <ele>275.225284</ele>
        <time>2022-04-19T12:04:44.074Z</time>
      </trkpt>
      <trkpt lat="45.80929" lon="4.8734">
        <ele>274.781533</ele>
        <time>2022-04-19T12:04:50.656Z</time>
      </trkpt>
      <trkpt lat="45.80907" lon="4.87291">
        <ele>274.550201</ele>
        <time>2022-04-19T12:04:55.078Z</time>
      </trkpt>
      <trkpt lat="45.80881" lon="4.87228">
        <ele>274.251916</ele>
        <time>2022-04-19T12:05:00.838Z</time>
      </trkpt>
      <trkpt lat="45.80853" lon="4.87161">
        <ele>273.941698</ele>
        <time>2022-04-19T12:05:06.451Z</time>
      </trkpt>
      <trkpt lat="45.80822" lon="4.87088">
        <ele>273.376145</ele>
        <time>2022-04-19T12:05:12.190Z</time>
      </trkpt>
      <trkpt lat="45.8081" lon="4.87061">
        <ele>273.072829</ele>
        <time>2022-04-19T12:05:14.309Z</time>
      </trkpt>
      <trkpt lat="45.80793" lon="4.87022">
        <ele>272.645274</ele>
        <time>2022-04-19T12:05:17.279Z</time>
      </trkpt>
      <trkpt lat="45.80789" lon="4.87013">
        <ele>272.541887</ele>
        <time>2022-04-19T12:05:17.971Z</time>
      </trkpt>
      <trkpt lat="45.8077" lon="4.86971">
        <ele>272.070398</ele>
        <time>2022-04-19T12:05:21.198Z</time>
      </trkpt>
      <trkpt lat="45.80746" lon="4.86925">
        <ele>271.52864</ele>
        <time>2022-04-19T12:05:24.885Z</time>
      </trkpt>
      <trkpt lat="45.80708" lon="4.86861">
        <ele>270.742827</ele>
        <time>2022-04-19T12:05:30.356Z</time>
      </trkpt>
      <trkpt lat="45.80678" lon="4.86811">
        <ele>270.13773</ele>
        <time>2022-04-19T12:05:34.589Z</time>
      </trkpt>
      <trkpt lat="45.80675" lon="4.86806">
        <ele>270.073321</ele>
        <time>2022-04-19T12:05:35.060Z</time>
      </trkpt>
      <trkpt lat="45.80654" lon="4.86769">
        <ele>269.622315</ele>
        <time>2022-04-19T12:05:38.340Z</time>
      </trkpt>
      <trkpt lat="45.80635" lon="4.86737">
        <ele>269.23272</ele>
        <time>2022-04-19T12:05:41.082Z</time>
      </trkpt>
      <trkpt lat="45.80624" lon="4.86719">
        <ele>269.019499</ele>
        <time>2022-04-19T12:05:42.537Z</time>
      </trkpt>
      <trkpt lat="45.80562" lon="4.86613">
        <ele>267.428859</ele>
        <time>2022-04-19T12:05:51.495Z</time>
      </trkpt>
      <trkpt lat="45.80556" lon="4.86602">
        <ele>267.262516</ele>
        <time>2022-04-19T12:05:52.408Z</time>
      </trkpt>
      <trkpt lat="45.80534" lon="4.86562">
        <ele>266.669817</ele>
        <time>2022-04-19T12:05:55.629Z</time>
      </trkpt>
      <trkpt lat="45.80522" lon="4.8654">
        <ele>266.34723</ele>
        <time>2022-04-19T12:05:57.335Z</time>
      </trkpt>
      <trkpt lat="45.80505" lon="4.86507">
        <ele>265.858226</ele>
        <time>2022-04-19T12:05:59.840Z</time>
      </trkpt>
      <trkpt lat="45.80476" lon="4.8645">
        <ele>264.910673</ele>
        <time>2022-04-19T12:06:04.039Z</time>
      </trkpt>
      <trkpt lat="45.80468" lon="4.86433">
        <ele>264.622193</ele>
        <time>2022-04-19T12:06:05.301Z</time>
      </trkpt>
      <trkpt lat="45.80416" lon="4.86302">
        <ele>262.591166</ele>
        <time>2022-04-19T12:06:14.543Z</time>
      </trkpt>
      <trkpt lat="45.80409" lon="4.86283">
        <ele>262.386661</ele>
        <time>2022-04-19T12:06:15.971Z</time>
      </trkpt>
      <trkpt lat="45.80391" lon="4.86238">
        <ele>262.116238</ele>
        <time>2022-04-19T12:06:19.311Z</time>
      </trkpt>
      <trkpt lat="45.80384" lon="4.86194">
        <ele>261.874808</ele>
        <time>2022-04-19T12:06:22.430Z</time>
      </trkpt>
      <trkpt lat="45.80367" lon="4.8613">
        <ele>261.512965</ele>
        <time>2022-04-19T12:06:27.419Z</time>
      </trkpt>
      <trkpt lat="45.80365" lon="4.86117">
        <ele>261.44128</ele>
        <time>2022-04-19T12:06:28.432Z</time>
      </trkpt>
      <trkpt lat="45.80368" lon="4.86102">
        <ele>261.361337</ele>
        <time>2022-04-19T12:06:29.756Z</time>
      </trkpt>
      <trkpt lat="45.80362" lon="4.86086">
        <ele>261.262159</ele>
        <time>2022-04-19T12:06:31.251Z</time>
      </trkpt>
      <trkpt lat="45.8035" lon="4.86082">
        <ele>261.165286</ele>
        <time>2022-04-19T12:06:32.668Z</time>
      </trkpt>
      <trkpt lat="45.80346" lon="4.86069">
        <ele>261.089571</ele>
        <time>2022-04-19T12:06:33.953Z</time>
      </trkpt>
      <trkpt lat="45.80326" lon="4.85992">
        <ele>260.717241</ele>
        <time>2022-04-19T12:06:40.476Z</time>
      </trkpt>
      <trkpt lat="45.80319" lon="4.85962">
        <ele>260.575626</ele>
        <time>2022-04-19T12:06:43.014Z</time>
      </trkpt>
      <trkpt lat="45.80312" lon="4.85942">
        <ele>260.473072</ele>
        <time>2022-04-19T12:06:44.724Z</time>
      </trkpt>
      <trkpt lat="45.80308" lon="4.8593">
        <ele>260.413417</ele>
        <time>2022-04-19T12:06:45.798Z</time>
      </trkpt>
      <trkpt lat="45.80253" lon="4.85797">
        <ele>259.225815</ele>
        <time>2022-04-19T12:06:56.135Z</time>
      </trkpt>
      <trkpt lat="45.80246" lon="4.8578">
        <ele>258.934529</ele>
        <time>2022-04-19T12:06:57.273Z</time>
      </trkpt>
      <trkpt lat="45.80242" lon="4.85772">
        <ele>258.782267</ele>
        <time>2022-04-19T12:06:57.863Z</time>
      </trkpt>
      <trkpt lat="45.80237" lon="4.85761">
        <ele>258.578341</ele>
        <time>2022-04-19T12:06:58.665Z</time>
      </trkpt>
      <trkpt lat="45.80219" lon="4.8572">
        <ele>257.836493</ele>
        <time>2022-04-19T12:07:01.493Z</time>
      </trkpt>
      <trkpt lat="45.802" lon="4.8567">
        <ele>256.955774</ele>
        <time>2022-04-19T12:07:04.824Z</time>
      </trkpt>
      <trkpt lat="45.80192" lon="4.85648">
        <ele>256.579925</ele>
        <time>2022-04-19T12:07:06.253Z</time>
      </trkpt>
      <trkpt lat="45.80167" lon="4.85598">
        <ele>255.628372</ele>
        <time>2022-04-19T12:07:09.898Z</time>
      </trkpt>
      <trkpt lat="45.80119" lon="4.85541">
        <ele>254.20194</ele>
        <time>2022-04-19T12:07:15.424Z</time>
      </trkpt>
      <trkpt lat="45.80098" lon="4.85517">
        <ele>253.598402</ele>
        <time>2022-04-19T12:07:17.779Z</time>
      </trkpt>
      <trkpt lat="45.80077" lon="4.85489">
        <ele>252.950538</ele>
        <time>2022-04-19T12:07:20.318Z</time>
      </trkpt>
      <trkpt lat="45.80033" lon="4.85414">
        <ele>251.153013</ele>
        <time>2022-04-19T12:07:26.095Z</time>
      </trkpt>
      <trkpt lat="45.80011" lon="4.85377">
        <ele>250.016118</ele>
        <time>2022-04-19T12:07:28.746Z</time>
      </trkpt>
      <trkpt lat="45.7999" lon="4.85342">
        <ele>248.906877</ele>
        <time>2022-04-19T12:07:31.301Z</time>
      </trkpt>
      <trkpt lat="45.79975" lon="4.85316">
        <ele>248.100103</ele>
        <time>2022-04-19T12:07:33.177Z</time>
      </trkpt>
      <trkpt lat="45.79918" lon="4.85275">
        <ele>245.942546</ele>
        <time>2022-04-19T12:07:38.246Z</time>
      </trkpt>
      <trkpt lat="45.79911" lon="4.85269">
        <ele>245.692724</ele>
        <time>2022-04-19T12:07:38.907Z</time>
      </trkpt>
      <trkpt lat="45.79895" lon="4.8525">
        <ele>245.207161</ele>
        <time>2022-04-19T12:07:40.556Z</time>
      </trkpt>
      <trkpt lat="45.79889" lon="4.85242">
        <ele>245.022185</ele>
        <time>2022-04-19T12:07:41.185Z</time>
      </trkpt>
      <trkpt lat="45.79886" lon="4.85238">
        <ele>244.925072</ele>
        <time>2022-04-19T12:07:41.515Z</time>
      </trkpt>
      <trkpt lat="45.79875" lon="4.85226">
        <ele>244.60473</ele>
        <time>2022-04-19T12:07:42.648Z</time>
      </trkpt>
      <trkpt lat="45.79852" lon="4.85197">
        <ele>243.882529</ele>
        <time>2022-04-19T12:07:45.298Z</time>
      </trkpt>
      <trkpt lat="45.79817" lon="4.85155">
        <ele>242.821273</ele>
        <time>2022-04-19T12:07:49.386Z</time>
      </trkpt>
      <trkpt lat="45.79818" lon="4.85152">
        <ele>242.7566</ele>
        <time>2022-04-19T12:07:49.656Z</time>
      </trkpt>
      <trkpt lat="45.79818" lon="4.85141">
        <ele>242.588719</ele>
        <time>2022-04-19T12:07:50.306Z</time>
      </trkpt>
      <trkpt lat="45.79805" lon="4.85126">
        <ele>242.202568</ele>
        <time>2022-04-19T12:07:51.855Z</time>
      </trkpt>
      <trkpt lat="45.79795" lon="4.85133">
        <ele>241.941451</ele>
        <time>2022-04-19T12:07:52.901Z</time>
      </trkpt>
      <trkpt lat="45.79793" lon="4.85137">
        <ele>241.857102</ele>
        <time>2022-04-19T12:07:53.224Z</time>
      </trkpt>
      <trkpt lat="45.79793" lon="4.85153">
        <ele>241.589821</ele>
        <time>2022-04-19T12:07:54.195Z</time>
      </trkpt>
      <trkpt lat="45.7975" lon="4.85216">
        <ele>239.611861</ele>
        <time>2022-04-19T12:07:59.503Z</time>
      </trkpt>
      <trkpt lat="45.79735" lon="4.85251">
        <ele>238.669113</ele>
        <time>2022-04-19T12:08:01.905Z</time>
      </trkpt>
      <trkpt lat="45.79727" lon="4.85277">
        <ele>238.021516</ele>
        <time>2022-04-19T12:08:03.458Z</time>
      </trkpt>
      <trkpt lat="45.79723" lon="4.85295">
        <ele>237.565508</ele>
        <time>2022-04-19T12:08:04.607Z</time>
      </trkpt>
      <trkpt lat="45.79711" lon="4.85368">
        <ele>235.865274</ele>
        <time>2022-04-19T12:08:08.606Z</time>
      </trkpt>
      <trkpt lat="45.79711" lon="4.85408">
        <ele>234.396098</ele>
        <time>2022-04-19T12:08:10.765Z</time>
      </trkpt>
      <trkpt lat="45.79735" lon="4.85504">
        <ele>230.242816</ele>
        <time>2022-04-19T12:08:15.908Z</time>
      </trkpt>
      <trkpt lat="45.79739" lon="4.85545">
        <ele>228.523662</ele>
        <time>2022-04-19T12:08:18.029Z</time>
      </trkpt>
      <trkpt lat="45.79732" lon="4.85604">
        <ele>226.099909</ele>
        <time>2022-04-19T12:08:21.083Z</time>
      </trkpt>
      <trkpt lat="45.79709" lon="4.8567">
        <ele>222.897833</ele>
        <time>2022-04-19T12:08:24.928Z</time>
      </trkpt>
      <trkpt lat="45.7964" lon="4.85774">
        <ele>216.484086</ele>
        <time>2022-04-19T12:08:32.291Z</time>
      </trkpt>
      <trkpt lat="45.79573" lon="4.85819">
        <ele>211.640459</ele>
        <time>2022-04-19T12:08:37.520Z</time>
      </trkpt>
      <trkpt lat="45.79535" lon="4.85857">
        <ele>208.455893</ele>
        <time>2022-04-19T12:08:40.844Z</time>
      </trkpt>
      <trkpt lat="45.79494" lon="4.85899">
        <ele>205.011356</ele>
        <time>2022-04-19T12:08:44.458Z</time>
      </trkpt>
      <trkpt lat="45.79386" lon="4.85971">
        <ele>197.388987</ele>
        <time>2022-04-19T12:08:53.128Z</time>
      </trkpt>
      <trkpt lat="45.79383" lon="4.85972">
        <ele>197.207883</ele>
        <time>2022-04-19T12:08:53.355Z</time>
      </trkpt>
      <trkpt lat="45.79338" lon="4.85991">
        <ele>194.399196</ele>
        <time>2022-04-19T12:08:56.838Z</time>
      </trkpt>
      <trkpt lat="45.79324" lon="4.85997">
        <ele>193.560372</ele>
        <time>2022-04-19T12:08:57.855Z</time>
      </trkpt>
      <trkpt lat="45.79322" lon="4.85998">
        <ele>193.411403</ele>
        <time>2022-04-19T12:08:58.040Z</time>
      </trkpt>
      <trkpt lat="45.79261" lon="4.86027">
        <ele>189.766611</ele>
        <time>2022-04-19T12:09:02.844Z</time>
      </trkpt>
      <trkpt lat="45.79261" lon="4.86027">
        <ele>189.766611</ele>
        <time>2022-04-19T12:09:02.861Z</time>
      </trkpt>
      <trkpt lat="45.79253" lon="4.8603">
        <ele>189.348284</ele>
        <time>2022-04-19T12:09:03.509Z</time>
      </trkpt>
      <trkpt lat="45.79191" lon="4.86051">
        <ele>186.277433</ele>
        <time>2022-04-19T12:09:08.315Z</time>
      </trkpt>
      <trkpt lat="45.79146" lon="4.86052">
        <ele>184.115948</ele>
        <time>2022-04-19T12:09:11.647Z</time>
      </trkpt>
      <trkpt lat="45.79129" lon="4.86049">
        <ele>183.244026</ele>
        <time>2022-04-19T12:09:13.060Z</time>
      </trkpt>
      <trkpt lat="45.79122" lon="4.86048">
        <ele>182.926832</ele>
        <time>2022-04-19T12:09:13.572Z</time>
      </trkpt>
      <trkpt lat="45.79101" lon="4.86045">
        <ele>181.903384</ele>
        <time>2022-04-19T12:09:15.156Z</time>
      </trkpt>
      <trkpt lat="45.79094" lon="4.86044">
        <ele>181.672408</ele>
        <time>2022-04-19T12:09:15.710Z</time>
      </trkpt>
      <trkpt lat="45.79039" lon="4.86037">
        <ele>180.101215</ele>
        <time>2022-04-19T12:09:20.221Z</time>
      </trkpt>
      <trkpt lat="45.79021" lon="4.86038">
        <ele>179.578736</ele>
        <time>2022-04-19T12:09:21.758Z</time>
      </trkpt>
      <trkpt lat="45.79001" lon="4.86042">
        <ele>179.028124</ele>
        <time>2022-04-19T12:09:23.390Z</time>
      </trkpt>
      <trkpt lat="45.78901" lon="4.86058">
        <ele>176.336158</ele>
        <time>2022-04-19T12:09:32.118Z</time>
      </trkpt>
      <trkpt lat="45.78843" lon="4.86053">
        <ele>175.194213</ele>
        <time>2022-04-19T12:09:37.164Z</time>
      </trkpt>
      <trkpt lat="45.7881" lon="4.8605">
        <ele>174.541235</ele>
        <time>2022-04-19T12:09:40.068Z</time>
      </trkpt>
      <trkpt lat="45.7879" lon="4.86047">
        <ele>174.145128</ele>
        <time>2022-04-19T12:09:41.861Z</time>
      </trkpt>
      <trkpt lat="45.7876" lon="4.86043">
        <ele>173.567765</ele>
        <time>2022-04-19T12:09:44.473Z</time>
      </trkpt>
      <trkpt lat="45.78711" lon="4.86037">
        <ele>172.87272</ele>
        <time>2022-04-19T12:09:48.990Z</time>
      </trkpt>
      <trkpt lat="45.78693" lon="4.86035">
        <ele>172.687974</ele>
        <time>2022-04-19T12:09:50.663Z</time>
      </trkpt>
      <trkpt lat="45.78576" lon="4.86022">
        <ele>171.445158</ele>
        <time>2022-04-19T12:10:02.404Z</time>
      </trkpt>
      <trkpt lat="45.78573" lon="4.86021">
        <ele>171.418627</ele>
        <time>2022-04-19T12:10:02.653Z</time>
      </trkpt>
      <trkpt lat="45.78516" lon="4.86015">
        <ele>170.959489</ele>
        <time>2022-04-19T12:10:08.473Z</time>
      </trkpt>
      <trkpt lat="45.78412" lon="4.86006">
        <ele>170.199159</ele>
        <time>2022-04-19T12:10:19.157Z</time>
      </trkpt>
      <trkpt lat="45.78315" lon="4.85994">
        <ele>169.583616</ele>
        <time>2022-04-19T12:10:29.100Z</time>
      </trkpt>
      <trkpt lat="45.78248" lon="4.85986">
        <ele>169.187211</ele>
        <time>2022-04-19T12:10:35.937Z</time>
      </trkpt>
      <trkpt lat="45.78194" lon="4.8598">
        <ele>168.97914</ele>
        <time>2022-04-19T12:10:41.833Z</time>
      </trkpt>
      <trkpt lat="45.78104" lon="4.85969">
        <ele>169.532326</ele>
        <time>2022-04-19T12:10:52.568Z</time>
      </trkpt>
      <trkpt lat="45.77975" lon="4.85954">
        <ele>171.411525</ele>
        <time>2022-04-19T12:11:13.897Z</time>
      </trkpt>
      <trkpt lat="45.77964" lon="4.85952">
        <ele>171.73777</ele>
        <time>2022-04-19T12:11:16.058Z</time>
      </trkpt>
      <trkpt lat="45.77964" lon="4.85947">
        <ele>171.853303</ele>
        <time>2022-04-19T12:11:20.073Z</time>
      </trkpt>
      <trkpt lat="45.77965" lon="4.85935">
        <ele>172.091783</ele>
        <time>2022-04-19T12:11:28.343Z</time>
      </trkpt>
      <trkpt lat="45.7797" lon="4.85892">
        <ele>172.935217</ele>
        <time>2022-04-19T12:11:34.595Z</time>
      </trkpt>
      <trkpt lat="45.77972" lon="4.85868">
        <ele>173.422314</ele>
        <time>2022-04-19T12:11:39.251Z</time>
      </trkpt>
      <trkpt lat="45.77988" lon="4.85843">
        <ele>174.089436</ele>
        <time>2022-04-19T12:11:44.614Z</time>
      </trkpt>
      <trkpt lat="45.77999" lon="4.85812">
        <ele>174.766458</ele>
        <time>2022-04-19T12:11:51.155Z</time>
      </trkpt>
      <trkpt lat="45.78001" lon="4.85806">
        <ele>174.906093</ele>
        <time>2022-04-19T12:11:52.207Z</time>
      </trkpt>
      <trkpt lat="45.78012" lon="4.85692">
        <ele>176.894208</ele>
        <time>2022-04-19T12:12:10.136Z</time>
      </trkpt>
      <trkpt lat="45.78012" lon="4.85692">
        <ele>176.899333</ele>
        <time>2022-04-19T12:12:10.410Z</time>
      </trkpt>
      <trkpt lat="45.78008" lon="4.85641">
        <ele>177.776642</ele>
        <time>2022-04-19T12:12:16.316Z</time>
      </trkpt>
      <trkpt lat="45.77999" lon="4.85616">
        <ele>178.255045</ele>
        <time>2022-04-19T12:12:19.834Z</time>
      </trkpt>
      <trkpt lat="45.77992" lon="4.85598">
        <ele>178.605112</ele>
        <time>2022-04-19T12:12:21.641Z</time>
      </trkpt>
      <trkpt lat="45.77961" lon="4.85497">
        <ele>179.48689</ele>
        <time>2022-04-19T12:12:35.275Z</time>
      </trkpt>
      <trkpt lat="45.77941" lon="4.85434">
        <ele>179.454897</ele>
        <time>2022-04-19T12:12:41.497Z</time>
      </trkpt>
      <trkpt lat="45.7794" lon="4.8543">
        <ele>179.452851</ele>
        <time>2022-04-19T12:12:41.841Z</time>
      </trkpt>
      <trkpt lat="45.77935" lon="4.85417">
        <ele>179.446279</ele>
        <time>2022-04-19T12:12:42.786Z</time>
      </trkpt>
      <trkpt lat="45.77924" lon="4.85389">
        <ele>179.431241</ele>
        <time>2022-04-19T12:12:44.945Z</time>
      </trkpt>
      <trkpt lat="45.77912" lon="4.85351">
        <ele>179.411622</ele>
        <time>2022-04-19T12:12:47.719Z</time>
      </trkpt>
      <trkpt lat="45.77885" lon="4.85304">
        <ele>179.157054</ele>
        <time>2022-04-19T12:12:51.767Z</time>
      </trkpt>
      <trkpt lat="45.7781" lon="4.85252">
        <ele>177.938693</ele>
        <time>2022-04-19T12:13:00.185Z</time>
      </trkpt>
      <trkpt lat="45.77803" lon="4.85246">
        <ele>177.823367</ele>
        <time>2022-04-19T12:13:00.916Z</time>
      </trkpt>
      <trkpt lat="45.77796" lon="4.85238">
        <ele>177.682994</ele>
        <time>2022-04-19T12:13:01.896Z</time>
      </trkpt>
      <trkpt lat="45.77791" lon="4.85233">
        <ele>177.602951</ele>
        <time>2022-04-19T12:13:02.448Z</time>
      </trkpt>
      <trkpt lat="45.77776" lon="4.85217">
        <ele>177.328007</ele>
        <time>2022-04-19T12:13:04.022Z</time>
      </trkpt>
      <trkpt lat="45.77775" lon="4.85175">
        <ele>176.900301</ele>
        <time>2022-04-19T12:13:06.486Z</time>
      </trkpt>
      <trkpt lat="45.77774" lon="4.85136">
        <ele>176.396584</ele>
        <time>2022-04-19T12:13:08.763Z</time>
      </trkpt>
      <trkpt lat="45.7776" lon="4.84971">
        <ele>174.022148</ele>
        <time>2022-04-19T12:13:18.622Z</time>
      </trkpt>
      <trkpt lat="45.77756" lon="4.84941">
        <ele>173.583274</ele>
        <time>2022-04-19T12:13:20.527Z</time>
      </trkpt>
      <trkpt lat="45.77748" lon="4.84872">
        <ele>173.178039</ele>
        <time>2022-04-19T12:13:25.137Z</time>
      </trkpt>
      <trkpt lat="45.77738" lon="4.84789">
        <ele>173.46903</ele>
        <time>2022-04-19T12:13:32.301Z</time>
      </trkpt>
      <trkpt lat="45.77726" lon="4.84619">
        <ele>173.98552</ele>
        <time>2022-04-19T12:13:52.036Z</time>
      </trkpt>
      <trkpt lat="45.77725" lon="4.84609">
        <ele>173.996348</ele>
        <time>2022-04-19T12:13:53.183Z</time>
      </trkpt>
      <trkpt lat="45.77724" lon="4.84586">
        <ele>174.021293</ele>
        <time>2022-04-19T12:13:55.669Z</time>
      </trkpt>
      <trkpt lat="45.77729" lon="4.84536">
        <ele>174.074261</ele>
        <time>2022-04-19T12:14:00.771Z</time>
      </trkpt>
      <trkpt lat="45.77735" lon="4.84523">
        <ele>174.090638</ele>
        <time>2022-04-19T12:14:01.974Z</time>
      </trkpt>
      <trkpt lat="45.77734" lon="4.84511">
        <ele>174.10393</ele>
        <time>2022-04-19T12:14:03.071Z</time>
      </trkpt>
      <trkpt lat="45.77734" lon="4.84509">
        <ele>174.10617</ele>
        <time>2022-04-19T12:14:03.258Z</time>
      </trkpt>
      <trkpt lat="45.77733" lon="4.84507">
        <ele>174.108514</ele>
        <time>2022-04-19T12:14:03.621Z</time>
      </trkpt>
      <trkpt lat="45.77735" lon="4.84505">
        <ele>174.112617</ele>
        <time>2022-04-19T12:14:04.257Z</time>
      </trkpt>
      <trkpt lat="45.77734" lon="4.84501">
        <ele>174.117345</ele>
        <time>2022-04-19T12:14:06.417Z</time>
      </trkpt>
      <trkpt lat="45.77767" lon="4.84477">
        <ele>174.173753</ele>
        <time>2022-04-19T12:14:14.222Z</time>
      </trkpt>
      <trkpt lat="45.77773" lon="4.84475">
        <ele>174.182958</ele>
        <time>2022-04-19T12:14:14.879Z</time>
      </trkpt>
      <trkpt lat="45.7778" lon="4.84472">
        <ele>174.194433</ele>
        <time>2022-04-19T12:14:15.561Z</time>
      </trkpt>
      <trkpt lat="45.77789" lon="4.84471">
        <ele>174.208394</ele>
        <time>2022-04-19T12:14:16.411Z</time>
      </trkpt>
      <trkpt lat="45.77783" lon="4.84459">
        <ele>174.224697</ele>
        <time>2022-04-19T12:14:17.454Z</time>
      </trkpt>
      <trkpt lat="45.77776" lon="4.84445">
        <ele>174.133753</ele>
        <time>2022-04-19T12:14:18.567Z</time>
      </trkpt>
      <trkpt lat="45.77775" lon="4.8444">
        <ele>174.105926</ele>
        <time>2022-04-19T12:14:18.844Z</time>
      </trkpt>
      <trkpt lat="45.77791" lon="4.84429">
        <ele>173.953878</ele>
        <time>2022-04-19T12:14:20.428Z</time>
      </trkpt>
      <trkpt lat="45.77897" lon="4.84143">
        <ele>176.162319</ele>
        <time>2022-04-19T12:14:43.778Z</time>
      </trkpt>
      <trkpt lat="45.77901" lon="4.84145">
        <ele>176.372642</ele>
        <time>2022-04-19T12:14:45.014Z</time>
      </trkpt>
      <trkpt lat="45.77912" lon="4.8415">
        <ele>176.850649</ele>
        <time>2022-04-19T12:14:48.612Z</time>
      </trkpt>
      <trkpt lat="45.77917" lon="4.84152">
        <ele>177.083462</ele>
        <time>2022-04-19T12:14:50.615Z</time>
      </trkpt>
      <trkpt lat="45.77919" lon="4.8415">
        <ele>177.191163</ele>
        <time>2022-04-19T12:14:51.246Z</time>
      </trkpt>
      <trkpt lat="45.77933" lon="4.84151">
        <ele>177.816098</ele>
        <time>2022-04-19T12:14:55.917Z</time>
      </trkpt>
      <trkpt lat="45.77935" lon="4.84146">
        <ele>177.980353</ele>
        <time>2022-04-19T12:14:57.098Z</time>
      </trkpt>
      <trkpt lat="45.77936" lon="4.84142">
        <ele>178.103212</ele>
        <time>2022-04-19T12:14:57.993Z</time>
      </trkpt>
      <trkpt lat="45.77944" lon="4.8414">
        <ele>178.448468</ele>
        <time>2022-04-19T12:15:01.270Z</time>
      </trkpt>
      <trkpt lat="45.77945" lon="4.84135">
        <ele>178.621371</ele>
        <time>2022-04-19T12:15:02.979Z</time>
      </trkpt>
      <trkpt lat="45.77947" lon="4.8413">
        <ele>178.779956</ele>
        <time>2022-04-19T12:15:04.087Z</time>
      </trkpt>
      <trkpt lat="45.77955" lon="4.84119">
        <ele>179.27344</ele>
        <time>2022-04-19T12:15:08.408Z</time>
      </trkpt>
      <trkpt lat="45.78015" lon="4.84073">
        <ele>184.738677</ele>
        <time>2022-04-19T12:15:38.397Z</time>
      </trkpt>
      <trkpt lat="45.78024" lon="4.84056">
        <ele>186.274453</ele>
        <time>2022-04-19T12:15:44.975Z</time>
      </trkpt>
      <trkpt lat="45.78029" lon="4.84046">
        <ele>187.245748</ele>
        <time>2022-04-19T12:15:50.434Z</time>
      </trkpt>
      <trkpt lat="45.78199" lon="4.83899">
        <ele>206.852364</ele>
        <time>2022-04-19T12:17:23.270Z</time>
      </trkpt>
      <trkpt lat="45.78259" lon="4.83825">
        <ele>213.757586</ele>
        <time>2022-04-19T12:17:50.374Z</time>
      </trkpt>
      <trkpt lat="45.78273" lon="4.83796">
        <ele>215.798608</ele>
        <time>2022-04-19T12:17:58.773Z</time>
      </trkpt>
      <trkpt lat="45.78285" lon="4.83744">
        <ele>218.358021</ele>
        <time>2022-04-19T12:18:12.043Z</time>
      </trkpt>
      <trkpt lat="45.78286" lon="4.83666">
        <ele>221.969082</ele>
        <time>2022-04-19T12:18:29.732Z</time>
      </trkpt>
      <trkpt lat="45.78287" lon="4.8361">
        <ele>224.560926</ele>
        <time>2022-04-19T12:18:42.304Z</time>
      </trkpt>
      <trkpt lat="45.78284" lon="4.8357">
        <ele>226.440263</ele>
        <time>2022-04-19T12:18:52.010Z</time>
      </trkpt>
      <trkpt lat="45.78288" lon="4.83526">
        <ele>228.352755</ele>
        <time>2022-04-19T12:19:02.685Z</time>
      </trkpt>
      <trkpt lat="45.78357" lon="4.8331">
        <ele>237.678782</ele>
        <time>2022-04-19T12:19:53.115Z</time>
      </trkpt>
      <trkpt lat="45.78384" lon="4.83199">
        <ele>239.935994</ele>
        <time>2022-04-19T12:20:11.022Z</time>
      </trkpt>
      <trkpt lat="45.78394" lon="4.83173">
        <ele>240.500426</ele>
        <time>2022-04-19T12:20:14.867Z</time>
      </trkpt>
      <trkpt lat="45.78413" lon="4.83154">
        <ele>241.125824</ele>
        <time>2022-04-19T12:20:19.206Z</time>
      </trkpt>
      <trkpt lat="45.7841" lon="4.83151">
        <ele>241.219527</ele>
        <time>2022-04-19T12:20:19.737Z</time>
      </trkpt>
      <trkpt lat="45.78407" lon="4.83148">
        <ele>241.308728</ele>
        <time>2022-04-19T12:20:20.260Z</time>
      </trkpt>
      <trkpt lat="45.78405" lon="4.83144">
        <ele>241.415227</ele>
        <time>2022-04-19T12:20:20.902Z</time>
      </trkpt>
      <trkpt lat="45.78399" lon="4.83136">
        <ele>241.628227</ele>
        <time>2022-04-19T12:20:22.314Z</time>
      </trkpt>
      <trkpt lat="45.78397" lon="4.83133">
        <ele>241.70435</ele>
        <time>2022-04-19T12:20:22.814Z</time>
      </trkpt>
      <trkpt lat="45.78396" lon="4.83135">
        <ele>241.74405</ele>
        <time>2022-04-19T12:20:23.820Z</time>
      </trkpt>
      <trkpt lat="45.78388" lon="4.83148">
        <ele>242.091206</ele>
        <time>2022-04-19T12:20:32.610Z</time>
      </trkpt>
      <trkpt lat="45.78393" lon="4.83171">
        <ele>242.554573</ele>
        <time>2022-04-19T12:20:44.323Z</time>
      </trkpt>
      <trkpt lat="45.7841" lon="4.83151">
        <ele>242.903619</ele>
        <time>2022-04-19T12:20:59.378Z</time>
      </trkpt>
      <trkpt lat="45.78413" lon="4.83154">
        <ele>242.957803</ele>
        <time>2022-04-19T12:20:59.841Z</time>
      </trkpt>
      <trkpt lat="45.78552" lon="4.83333">
        <ele>245.647978</ele>
        <time>2022-04-19T12:21:31.658Z</time>
      </trkpt>
      <trkpt lat="45.78556" lon="4.83344">
        <ele>245.710104</ele>
        <time>2022-04-19T12:21:33.332Z</time>
      </trkpt>
      <trkpt lat="45.78563" lon="4.83342">
        <ele>245.757975</ele>
        <time>2022-04-19T12:21:34.419Z</time>
      </trkpt>
      <trkpt lat="45.7857" lon="4.83347">
        <ele>245.813583</ele>
        <time>2022-04-19T12:21:35.827Z</time>
      </trkpt>
      <trkpt lat="45.78614" lon="4.83374">
        <ele>246.156109</ele>
        <time>2022-04-19T12:21:43.633Z</time>
      </trkpt>
      <trkpt lat="45.78626" lon="4.83375">
        <ele>246.242086</ele>
        <time>2022-04-19T12:21:45.164Z</time>
      </trkpt>
      <trkpt lat="45.78638" lon="4.8338">
        <ele>246.333851</ele>
        <time>2022-04-19T12:21:46.715Z</time>
      </trkpt>
      <trkpt lat="45.78641" lon="4.83381">
        <ele>246.354935</ele>
        <time>2022-04-19T12:21:47.091Z</time>
      </trkpt>
      <trkpt lat="45.78691" lon="4.83403">
        <ele>246.680044</ele>
        <time>2022-04-19T12:21:52.587Z</time>
      </trkpt>
      <trkpt lat="45.78747" lon="4.8343">
        <ele>245.956448</ele>
        <time>2022-04-19T12:21:58.427Z</time>
      </trkpt>
      <trkpt lat="45.78759" lon="4.83436">
        <ele>245.793462</ele>
        <time>2022-04-19T12:21:59.684Z</time>
      </trkpt>
      <trkpt lat="45.78802" lon="4.83457">
        <ele>245.244618</ele>
        <time>2022-04-19T12:22:03.881Z</time>
      </trkpt>
      <trkpt lat="45.78809" lon="4.8346">
        <ele>245.150652</ele>
        <time>2022-04-19T12:22:04.610Z</time>
      </trkpt>
      <trkpt lat="45.7885" lon="4.83483">
        <ele>244.610615</ele>
        <time>2022-04-19T12:22:08.571Z</time>
      </trkpt>
      <trkpt lat="45.78855" lon="4.83486">
        <ele>244.547149</ele>
        <time>2022-04-19T12:22:09.018Z</time>
      </trkpt>
      <trkpt lat="45.78877" lon="4.83499">
        <ele>244.382566</ele>
        <time>2022-04-19T12:22:11.153Z</time>
      </trkpt>
      <trkpt lat="45.78893" lon="4.83508">
        <ele>244.280652</ele>
        <time>2022-04-19T12:22:12.710Z</time>
      </trkpt>
      <trkpt lat="45.78896" lon="4.83509">
        <ele>244.264265</ele>
        <time>2022-04-19T12:22:12.963Z</time>
      </trkpt>
      <trkpt lat="45.78907" lon="4.83517">
        <ele>244.192081</ele>
        <time>2022-04-19T12:22:14.094Z</time>
      </trkpt>
      <trkpt lat="45.78931" lon="4.83535">
        <ele>244.028032</ele>
        <time>2022-04-19T12:22:16.876Z</time>
      </trkpt>
      <trkpt lat="45.78968" lon="4.83565">
        <ele>243.772577</ele>
        <time>2022-04-19T12:22:21.997Z</time>
      </trkpt>
      <trkpt lat="45.78975" lon="4.8357">
        <ele>243.724914</ele>
        <time>2022-04-19T12:22:22.921Z</time>
      </trkpt>
      <trkpt lat="45.7901" lon="4.836">
        <ele>243.479639</ele>
        <time>2022-04-19T12:22:27.811Z</time>
      </trkpt>
      <trkpt lat="45.79031" lon="4.83619">
        <ele>243.446042</ele>
        <time>2022-04-19T12:22:30.819Z</time>
      </trkpt>
      <trkpt lat="45.79035" lon="4.83623">
        <ele>243.45076</ele>
        <time>2022-04-19T12:22:31.433Z</time>
      </trkpt>
      <trkpt lat="45.7905" lon="4.83637">
        <ele>243.467229</ele>
        <time>2022-04-19T12:22:33.612Z</time>
      </trkpt>
      <trkpt lat="45.79085" lon="4.83673">
        <ele>243.506276</ele>
        <time>2022-04-19T12:22:38.566Z</time>
      </trkpt>
      <trkpt lat="45.79097" lon="4.83686">
        <ele>243.520143</ele>
        <time>2022-04-19T12:22:40.287Z</time>
      </trkpt>
      <trkpt lat="45.79121" lon="4.83711">
        <ele>243.54734</ele>
        <time>2022-04-19T12:22:43.803Z</time>
      </trkpt>
      <trkpt lat="45.79129" lon="4.83719">
        <ele>243.556592</ele>
        <time>2022-04-19T12:22:45.070Z</time>
      </trkpt>
      <trkpt lat="45.79132" lon="4.83722">
        <ele>243.559677</ele>
        <time>2022-04-19T12:22:45.500Z</time>
      </trkpt>
      <trkpt lat="45.79155" lon="4.83745">
        <ele>243.585462</ele>
        <time>2022-04-19T12:22:49.141Z</time>
      </trkpt>
      <trkpt lat="45.79162" lon="4.83752">
        <ele>243.592967</ele>
        <time>2022-04-19T12:22:50.225Z</time>
      </trkpt>
      <trkpt lat="45.79169" lon="4.83759">
        <ele>243.622757</ele>
        <time>2022-04-19T12:22:51.364Z</time>
      </trkpt>
      <trkpt lat="45.79178" lon="4.83768">
        <ele>243.677523</ele>
        <time>2022-04-19T12:22:52.805Z</time>
      </trkpt>
      <trkpt lat="45.79185" lon="4.83775">
        <ele>243.720813</ele>
        <time>2022-04-19T12:22:54.016Z</time>
      </trkpt>
      <trkpt lat="45.79209" lon="4.83799">
        <ele>243.864967</ele>
        <time>2022-04-19T12:22:57.777Z</time>
      </trkpt>
      <trkpt lat="45.79235" lon="4.83824">
        <ele>244.020656</ele>
        <time>2022-04-19T12:23:01.986Z</time>
      </trkpt>
      <trkpt lat="45.79305" lon="4.83893">
        <ele>244.442639</ele>
        <time>2022-04-19T12:23:13.723Z</time>
      </trkpt>
      <trkpt lat="45.79314" lon="4.83901">
        <ele>244.493079</ele>
        <time>2022-04-19T12:23:15.057Z</time>
      </trkpt>
      <trkpt lat="45.79329" lon="4.83916">
        <ele>244.591946</ele>
        <time>2022-04-19T12:23:17.599Z</time>
      </trkpt>
      <trkpt lat="45.79342" lon="4.83927">
        <ele>244.670012</ele>
        <time>2022-04-19T12:23:19.657Z</time>
      </trkpt>
      <trkpt lat="45.79375" lon="4.83957">
        <ele>244.877307</ele>
        <time>2022-04-19T12:23:25.264Z</time>
      </trkpt>
      <trkpt lat="45.79378" lon="4.8396">
        <ele>244.898002</ele>
        <time>2022-04-19T12:23:25.815Z</time>
      </trkpt>
      <trkpt lat="45.79425" lon="4.84003">
        <ele>245.191299</ele>
        <time>2022-04-19T12:23:33.488Z</time>
      </trkpt>
      <trkpt lat="45.79432" lon="4.8401">
        <ele>245.235716</ele>
        <time>2022-04-19T12:23:34.573Z</time>
      </trkpt>
      <trkpt lat="45.79458" lon="4.84033">
        <ele>245.398196</ele>
        <time>2022-04-19T12:23:38.547Z</time>
      </trkpt>
      <trkpt lat="45.79466" lon="4.84042">
        <ele>245.427959</ele>
        <time>2022-04-19T12:23:39.865Z</time>
      </trkpt>
      <trkpt lat="45.79497" lon="4.84072">
        <ele>245.244641</ele>
        <time>2022-04-19T12:23:44.508Z</time>
      </trkpt>
      <trkpt lat="45.79563" lon="4.8415">
        <ele>244.828789</ele>
        <time>2022-04-19T12:23:53.785Z</time>
      </trkpt>
      <trkpt lat="45.79573" lon="4.84162">
        <ele>244.767249</ele>
        <time>2022-04-19T12:23:55.024Z</time>
      </trkpt>
      <trkpt lat="45.79582" lon="4.84173">
        <ele>244.707421</ele>
        <time>2022-04-19T12:23:56.262Z</time>
      </trkpt>
      <trkpt lat="45.7963" lon="4.84233">
        <ele>244.059753</ele>
        <time>2022-04-19T12:24:02.275Z</time>
      </trkpt>
      <trkpt lat="45.79635" lon="4.84238">
        <ele>243.972543</ele>
        <time>2022-04-19T12:24:02.826Z</time>
      </trkpt>
      <trkpt lat="45.7966" lon="4.8427">
        <ele>243.491181</ele>
        <time>2022-04-19T12:24:05.807Z</time>
      </trkpt>
      <trkpt lat="45.79671" lon="4.84285">
        <ele>243.257397</ele>
        <time>2022-04-19T12:24:07.255Z</time>
      </trkpt>
      <trkpt lat="45.7968" lon="4.84297">
        <ele>243.079955</ele>
        <time>2022-04-19T12:24:08.328Z</time>
      </trkpt>
      <trkpt lat="45.79682" lon="4.84299">
        <ele>243.042127</ele>
        <time>2022-04-19T12:24:08.557Z</time>
      </trkpt>
      <trkpt lat="45.79711" lon="4.84339">
        <ele>242.454651</ele>
        <time>2022-04-19T12:24:12.138Z</time>
      </trkpt>
      <trkpt lat="45.79738" lon="4.84378">
        <ele>241.919602</ele>
        <time>2022-04-19T12:24:15.677Z</time>
      </trkpt>
      <trkpt lat="45.79746" lon="4.84389">
        <ele>241.888113</ele>
        <time>2022-04-19T12:24:16.670Z</time>
      </trkpt>
      <trkpt lat="45.79782" lon="4.84441">
        <ele>241.734428</ele>
        <time>2022-04-19T12:24:21.778Z</time>
      </trkpt>
      <trkpt lat="45.79787" lon="4.84449">
        <ele>241.71371</ele>
        <time>2022-04-19T12:24:22.567Z</time>
      </trkpt>
      <trkpt lat="45.79807" lon="4.84481">
        <ele>241.625224</ele>
        <time>2022-04-19T12:24:26.020Z</time>
      </trkpt>
      <trkpt lat="45.79857" lon="4.84561">
        <ele>241.402127</ele>
        <time>2022-04-19T12:24:35.464Z</time>
      </trkpt>
      <trkpt lat="45.79869" lon="4.84581">
        <ele>241.603928</ele>
        <time>2022-04-19T12:24:37.816Z</time>
      </trkpt>
      <trkpt lat="45.79892" lon="4.84621">
        <ele>242.123193</ele>
        <time>2022-04-19T12:24:43.073Z</time>
      </trkpt>
      <trkpt lat="45.79907" lon="4.84646">
        <ele>242.440645</ele>
        <time>2022-04-19T12:24:46.640Z</time>
      </trkpt>
      <trkpt lat="45.79917" lon="4.84666">
        <ele>242.67806</ele>
        <time>2022-04-19T12:24:49.422Z</time>
      </trkpt>
      <trkpt lat="45.79933" lon="4.84691">
        <ele>243.020462</ele>
        <time>2022-04-19T12:24:53.634Z</time>
      </trkpt>
      <trkpt lat="45.79936" lon="4.84696">
        <ele>243.08881</ele>
        <time>2022-04-19T12:24:54.455Z</time>
      </trkpt>
      <trkpt lat="45.79962" lon="4.84736">
        <ele>243.627202</ele>
        <time>2022-04-19T12:25:01.286Z</time>
      </trkpt>
      <trkpt lat="45.79973" lon="4.84752">
        <ele>243.843539</ele>
        <time>2022-04-19T12:25:04.226Z</time>
      </trkpt>
      <trkpt lat="45.79981" lon="4.84763">
        <ele>244.042613</ele>
        <time>2022-04-19T12:25:06.293Z</time>
      </trkpt>
      <trkpt lat="45.79998" lon="4.84785">
        <ele>244.615821</ele>
        <time>2022-04-19T12:25:10.626Z</time>
      </trkpt>
      <trkpt lat="45.80007" lon="4.84793">
        <ele>244.886183</ele>
        <time>2022-04-19T12:25:12.731Z</time>
      </trkpt>
      <trkpt lat="45.80009" lon="4.84793">
        <ele>244.936424</ele>
        <time>2022-04-19T12:25:13.116Z</time>
      </trkpt>
      <trkpt lat="45.8003" lon="4.84815">
        <ele>245.580045</ele>
        <time>2022-04-19T12:25:18.143Z</time>
      </trkpt>
      <trkpt lat="45.80033" lon="4.84819">
        <ele>245.67828</ele>
        <time>2022-04-19T12:25:18.962Z</time>
      </trkpt>
      <trkpt lat="45.80039" lon="4.8483">
        <ele>245.945202</ele>
        <time>2022-04-19T12:25:21.093Z</time>
      </trkpt>
      <trkpt lat="45.8006" lon="4.84866">
        <ele>246.750527</ele>
        <time>2022-04-19T12:25:27.719Z</time>
      </trkpt>
      <trkpt lat="45.80057" lon="4.84874">
        <ele>246.925767</ele>
        <time>2022-04-19T12:25:29.070Z</time>
      </trkpt>
      <trkpt lat="45.8006" lon="4.84883">
        <ele>247.102232</ele>
        <time>2022-04-19T12:25:30.500Z</time>
      </trkpt>
      <trkpt lat="45.80071" lon="4.84879">
        <ele>247.365966</ele>
        <time>2022-04-19T12:25:32.730Z</time>
      </trkpt>
      <trkpt lat="45.8012" lon="4.84935">
        <ele>248.877574</ele>
        <time>2022-04-19T12:25:45.755Z</time>
      </trkpt>
      <trkpt lat="45.80125" lon="4.84941">
        <ele>249.037681</ele>
        <time>2022-04-19T12:25:47.197Z</time>
      </trkpt>
      <trkpt lat="45.80137" lon="4.84954">
        <ele>249.363371</ele>
        <time>2022-04-19T12:25:50.189Z</time>
      </trkpt>
      <trkpt lat="45.80186" lon="4.85009">
        <ele>250.757616</ele>
        <time>2022-04-19T12:26:02.090Z</time>
      </trkpt>
      <trkpt lat="45.80247" lon="4.85079">
        <ele>252.506829</ele>
        <time>2022-04-19T12:26:16.383Z</time>
      </trkpt>
      <trkpt lat="45.80267" lon="4.85101">
        <ele>252.899248</ele>
        <time>2022-04-19T12:26:20.807Z</time>
      </trkpt>
      <trkpt lat="45.80261" lon="4.85111">
        <ele>253.032977</ele>
        <time>2022-04-19T12:26:22.344Z</time>
      </trkpt>
      <trkpt lat="45.80263" lon="4.85123">
        <ele>253.165807</ele>
        <time>2022-04-19T12:26:23.922Z</time>
      </trkpt>
      <trkpt lat="45.80271" lon="4.85129">
        <ele>253.304994</ele>
        <time>2022-04-19T12:26:25.419Z</time>
      </trkpt>
      <trkpt lat="45.80277" lon="4.85127">
        <ele>253.400234</ele>
        <time>2022-04-19T12:26:26.445Z</time>
      </trkpt>
      <trkpt lat="45.8028" lon="4.85122">
        <ele>253.468773</ele>
        <time>2022-04-19T12:26:27.181Z</time>
      </trkpt>
      <trkpt lat="45.80287" lon="4.85125">
        <ele>253.586803</ele>
        <time>2022-04-19T12:26:28.533Z</time>
      </trkpt>
      <trkpt lat="45.80296" lon="4.85128">
        <ele>253.717677</ele>
        <time>2022-04-19T12:26:30.030Z</time>
      </trkpt>
      <trkpt lat="45.80306" lon="4.85132">
        <ele>253.884497</ele>
        <time>2022-04-19T12:26:31.755Z</time>
      </trkpt>
      <trkpt lat="45.80311" lon="4.85135">
        <ele>253.961428</ele>
        <time>2022-04-19T12:26:32.549Z</time>
      </trkpt>
      <trkpt lat="45.80346" lon="4.85168">
        <ele>254.599122</ele>
        <time>2022-04-19T12:26:38.966Z</time>
      </trkpt>
      <trkpt lat="45.80359" lon="4.85181">
        <ele>254.844842</ele>
        <time>2022-04-19T12:26:41.548Z</time>
      </trkpt>
      <trkpt lat="45.80387" lon="4.8521">
        <ele>255.388989</ele>
        <time>2022-04-19T12:26:46.942Z</time>
      </trkpt>
      <trkpt lat="45.80447" lon="4.8527">
        <ele>256.727232</ele>
        <time>2022-04-19T12:27:00.149Z</time>
      </trkpt>
      <trkpt lat="45.80452" lon="4.85275">
        <ele>256.845317</ele>
        <time>2022-04-19T12:27:01.237Z</time>
      </trkpt>
      <trkpt lat="45.80455" lon="4.85278">
        <ele>256.906212</ele>
        <time>2022-04-19T12:27:01.794Z</time>
      </trkpt>
      <trkpt lat="45.80469" lon="4.85293">
        <ele>257.238917</ele>
        <time>2022-04-19T12:27:05.288Z</time>
      </trkpt>
      <trkpt lat="45.80487" lon="4.85311">
        <ele>257.641424</ele>
        <time>2022-04-19T12:27:09.291Z</time>
      </trkpt>
      <trkpt lat="45.80514" lon="4.85338">
        <ele>258.231059</ele>
        <time>2022-04-19T12:27:15.029Z</time>
      </trkpt>
      <trkpt lat="45.80533" lon="4.85358">
        <ele>258.64846</ele>
        <time>2022-04-19T12:27:19.232Z</time>
      </trkpt>
      <trkpt lat="45.80584" lon="4.85404">
        <ele>259.673643</ele>
        <time>2022-04-19T12:27:30.255Z</time>
      </trkpt>
      <trkpt lat="45.80606" lon="4.85424">
        <ele>260.118394</ele>
        <time>2022-04-19T12:27:35.160Z</time>
      </trkpt>
      <trkpt lat="45.8066" lon="4.85486">
        <ele>261.287045</ele>
        <time>2022-04-19T12:27:47.109Z</time>
      </trkpt>
      <trkpt lat="45.80666" lon="4.85494">
        <ele>261.425291</ele>
        <time>2022-04-19T12:27:48.365Z</time>
      </trkpt>
      <trkpt lat="45.80698" lon="4.85534">
        <ele>261.653612</ele>
        <time>2022-04-19T12:27:54.335Z</time>
      </trkpt>
      <trkpt lat="45.80749" lon="4.85576">
        <ele>261.848408</ele>
        <time>2022-04-19T12:28:01.927Z</time>
      </trkpt>
      <trkpt lat="45.80757" lon="4.85582">
        <ele>261.878674</ele>
        <time>2022-04-19T12:28:03.073Z</time>
      </trkpt>
      <trkpt lat="45.80776" lon="4.85596">
        <ele>261.948007</ele>
        <time>2022-04-19T12:28:05.490Z</time>
      </trkpt>
      <trkpt lat="45.80779" lon="4.85609">
        <ele>261.980106</ele>
        <time>2022-04-19T12:28:06.728Z</time>
      </trkpt>
      <trkpt lat="45.80788" lon="4.85606">
        <ele>262.012313</ele>
        <time>2022-04-19T12:28:07.804Z</time>
      </trkpt>
      <trkpt lat="45.80824" lon="4.85632">
        <ele>262.153352</ele>
        <time>2022-04-19T12:28:12.337Z</time>
      </trkpt>
      <trkpt lat="45.80857" lon="4.85656">
        <ele>262.338721</ele>
        <time>2022-04-19T12:28:16.448Z</time>
      </trkpt>
      <trkpt lat="45.80859" lon="4.85658">
        <ele>262.351271</ele>
        <time>2022-04-19T12:28:16.747Z</time>
      </trkpt>
      <trkpt lat="45.80918" lon="4.85696">
        <ele>262.673605</ele>
        <time>2022-04-19T12:28:25.215Z</time>
      </trkpt>
      <trkpt lat="45.80922" lon="4.85699">
        <ele>262.700043</ele>
        <time>2022-04-19T12:28:25.982Z</time>
      </trkpt>
      <trkpt lat="45.80932" lon="4.85706">
        <ele>262.752917</ele>
        <time>2022-04-19T12:28:27.407Z</time>
      </trkpt>
      <trkpt lat="45.80979" lon="4.85736">
        <ele>263.012195</ele>
        <time>2022-04-19T12:28:35.263Z</time>
      </trkpt>
      <trkpt lat="45.80986" lon="4.8574">
        <ele>263.065491</ele>
        <time>2022-04-19T12:28:36.571Z</time>
      </trkpt>
      <trkpt lat="45.81019" lon="4.85762">
        <ele>263.412518</ele>
        <time>2022-04-19T12:28:42.427Z</time>
      </trkpt>
      <trkpt lat="45.81082" lon="4.85829">
        <ele>264.153172</ele>
        <time>2022-04-19T12:28:54.491Z</time>
      </trkpt>
      <trkpt lat="45.81118" lon="4.85865">
        <ele>264.564693</ele>
        <time>2022-04-19T12:29:00.937Z</time>
      </trkpt>
      <trkpt lat="45.8117" lon="4.85912">
        <ele>264.625554</ele>
        <time>2022-04-19T12:29:08.829Z</time>
      </trkpt>
      <trkpt lat="45.81217" lon="4.8595">
        <ele>264.48355</ele>
        <time>2022-04-19T12:29:15.146Z</time>
      </trkpt>
      <trkpt lat="45.81233" lon="4.85959">
        <ele>264.437702</ele>
        <time>2022-04-19T12:29:17.008Z</time>
      </trkpt>
      <trkpt lat="45.81244" lon="4.85967">
        <ele>264.406869</ele>
        <time>2022-04-19T12:29:18.263Z</time>
      </trkpt>
      <trkpt lat="45.81283" lon="4.86009">
        <ele>264.27737</ele>
        <time>2022-04-19T12:29:23.073Z</time>
      </trkpt>
      <trkpt lat="45.81319" lon="4.86051">
        <ele>263.88149</ele>
        <time>2022-04-19T12:29:27.663Z</time>
      </trkpt>
      <trkpt lat="45.81383" lon="4.86127">
        <ele>263.108429</ele>
        <time>2022-04-19T12:29:35.985Z</time>
      </trkpt>
      <trkpt lat="45.81385" lon="4.86129">
        <ele>263.089609</ele>
        <time>2022-04-19T12:29:36.188Z</time>
      </trkpt>
      <trkpt lat="45.81429" lon="4.86172">
        <ele>262.594427</ele>
        <time>2022-04-19T12:29:41.358Z</time>
      </trkpt>
      <trkpt lat="45.81471" lon="4.86215">
        <ele>262.214501</ele>
        <time>2022-04-19T12:29:46.382Z</time>
      </trkpt>
      <trkpt lat="45.81477" lon="4.86221">
        <ele>262.163463</ele>
        <time>2022-04-19T12:29:47.089Z</time>
      </trkpt>
      <trkpt lat="45.81482" lon="4.86225">
        <ele>262.123056</ele>
        <time>2022-04-19T12:29:47.645Z</time>
      </trkpt>
      <trkpt lat="45.8151" lon="4.8625">
        <ele>261.875341</ele>
        <time>2022-04-19T12:29:51.032Z</time>
      </trkpt>
      <trkpt lat="45.81533" lon="4.86269">
        <ele>261.683425</ele>
        <time>2022-04-19T12:29:53.649Z</time>
      </trkpt>
      <trkpt lat="45.81565" lon="4.86292">
        <ele>261.421488</ele>
        <time>2022-04-19T12:29:57.391Z</time>
      </trkpt>
      <trkpt lat="45.81574" lon="4.86298">
        <ele>261.348468</ele>
        <time>2022-04-19T12:29:58.523Z</time>
      </trkpt>
      <trkpt lat="45.81597" lon="4.86303">
        <ele>261.313004</ele>
        <time>2022-04-19T12:30:01.106Z</time>
      </trkpt>
      <trkpt lat="45.81609" lon="4.86304">
        <ele>261.340497</ele>
        <time>2022-04-19T12:30:02.559Z</time>
      </trkpt>
      <trkpt lat="45.81813" lon="4.86291">
        <ele>261.731037</ele>
        <time>2022-04-19T12:30:29.038Z</time>
      </trkpt>
      <trkpt lat="45.81975" lon="4.8628">
        <ele>261.599962</ele>
        <time>2022-04-19T12:30:48.350Z</time>
      </trkpt>
      <trkpt lat="45.81994" lon="4.86276">
        <ele>261.450169</ele>
        <time>2022-04-19T12:30:50.473Z</time>
      </trkpt>
      <trkpt lat="45.82059" lon="4.86265">
        <ele>260.949669</ele>
        <time>2022-04-19T12:30:57.276Z</time>
      </trkpt>
      <trkpt lat="45.82071" lon="4.86262">
        <ele>260.857491</ele>
        <time>2022-04-19T12:30:58.484Z</time>
      </trkpt>
      <trkpt lat="45.82082" lon="4.8626">
        <ele>260.769103</ele>
        <time>2022-04-19T12:30:59.639Z</time>
      </trkpt>
      <trkpt lat="45.8211" lon="4.86253">
        <ele>260.549182</ele>
        <time>2022-04-19T12:31:02.367Z</time>
      </trkpt>
      <trkpt lat="45.82152" lon="4.86241">
        <ele>259.551724</ele>
        <time>2022-04-19T12:31:06.115Z</time>
      </trkpt>
      <trkpt lat="45.82157" lon="4.86241">
        <ele>259.398436</ele>
        <time>2022-04-19T12:31:06.575Z</time>
      </trkpt>
      <trkpt lat="45.82168" lon="4.86238">
        <ele>259.071193</ele>
        <time>2022-04-19T12:31:07.555Z</time>
      </trkpt>
      <trkpt lat="45.8224" lon="4.86212">
        <ele>256.950475</ele>
        <time>2022-04-19T12:31:13.639Z</time>
      </trkpt>
      <trkpt lat="45.82389" lon="4.86102">
        <ele>250.661363</ele>
        <time>2022-04-19T12:31:26.748Z</time>
      </trkpt>
      <trkpt lat="45.8241" lon="4.86094">
        <ele>249.717891</ele>
        <time>2022-04-19T12:31:28.463Z</time>
      </trkpt>
      <trkpt lat="45.82473" lon="4.86088">
        <ele>246.92095</ele>
        <time>2022-04-19T12:31:33.247Z</time>
      </trkpt>
      <trkpt lat="45.82518" lon="4.86076">
        <ele>244.545694</ele>
        <time>2022-04-19T12:31:36.762Z</time>
      </trkpt>
      <trkpt lat="45.8263" lon="4.86021">
        <ele>238.484946</ele>
        <time>2022-04-19T12:31:45.651Z</time>
      </trkpt>
      <trkpt lat="45.8276" lon="4.85946">
        <ele>228.9927</ele>
        <time>2022-04-19T12:31:55.783Z</time>
      </trkpt>
      <trkpt lat="45.82804" lon="4.8592">
        <ele>225.729736</ele>
        <time>2022-04-19T12:31:59.176Z</time>
      </trkpt>
      <trkpt lat="45.82956" lon="4.85775">
        <ele>211.922363</ele>
        <time>2022-04-19T12:32:12.104Z</time>
      </trkpt>
      <trkpt lat="45.83021" lon="4.85676">
        <ele>204.993444</ele>
        <time>2022-04-19T12:32:18.965Z</time>
      </trkpt>
      <trkpt lat="45.83048" lon="4.85639">
        <ele>202.295568</ele>
        <time>2022-04-19T12:32:21.618Z</time>
      </trkpt>
      <trkpt lat="45.83061" lon="4.85633">
        <ele>201.33137</ele>
        <time>2022-04-19T12:32:22.548Z</time>
      </trkpt>
      <trkpt lat="45.83068" lon="4.85639">
        <ele>200.715282</ele>
        <time>2022-04-19T12:32:23.164Z</time>
      </trkpt>
      <trkpt lat="45.8308" lon="4.85636">
        <ele>199.832223</ele>
        <time>2022-04-19T12:32:24.012Z</time>
      </trkpt>
      <trkpt lat="45.83099" lon="4.85635">
        <ele>198.476276</ele>
        <time>2022-04-19T12:32:25.379Z</time>
      </trkpt>
      <trkpt lat="45.83149" lon="4.85625">
        <ele>194.993658</ele>
        <time>2022-04-19T12:32:28.948Z</time>
      </trkpt>
      <trkpt lat="45.83157" lon="4.85632">
        <ele>194.343529</ele>
        <time>2022-04-19T12:32:29.628Z</time>
      </trkpt>
      <trkpt lat="45.83161" lon="4.8563">
        <ele>194.024921</ele>
        <time>2022-04-19T12:32:29.948Z</time>
      </trkpt>
      <trkpt lat="45.83162" lon="4.85615">
        <ele>193.29772</ele>
        <time>2022-04-19T12:32:30.708Z</time>
      </trkpt>
      <trkpt lat="45.83171" lon="4.85595">
        <ele>192.158653</ele>
        <time>2022-04-19T12:32:31.892Z</time>
      </trkpt>
      <trkpt lat="45.83167" lon="4.85576">
        <ele>191.165446</ele>
        <time>2022-04-19T12:32:32.910Z</time>
      </trkpt>
      <trkpt lat="45.83185" lon="4.8551">
        <ele>187.744212</ele>
        <time>2022-04-19T12:32:36.451Z</time>
      </trkpt>
      <trkpt lat="45.83236" lon="4.85322">
        <ele>180.423713</ele>
        <time>2022-04-19T12:32:46.763Z</time>
      </trkpt>
      <trkpt lat="45.83242" lon="4.85298">
        <ele>179.517958</ele>
        <time>2022-04-19T12:32:48.199Z</time>
      </trkpt>
      <trkpt lat="45.83273" lon="4.85186">
        <ele>176.795072</ele>
        <time>2022-04-19T12:32:55.325Z</time>
      </trkpt>
      <trkpt lat="45.83315" lon="4.85068">
        <ele>174.843558</ele>
        <time>2022-04-19T12:33:03.578Z</time>
      </trkpt>
      <trkpt lat="45.83323" lon="4.85047">
        <ele>174.487814</ele>
        <time>2022-04-19T12:33:05.816Z</time>
      </trkpt>
      <trkpt lat="45.83327" lon="4.85038">
        <ele>174.328761</ele>
        <time>2022-04-19T12:33:06.820Z</time>
      </trkpt>
      <trkpt lat="45.8334" lon="4.85007">
        <ele>173.734852</ele>
        <time>2022-04-19T12:33:10.199Z</time>
      </trkpt>
      <trkpt lat="45.83265" lon="4.84942">
        <ele>171.425766</ele>
        <time>2022-04-19T12:33:17.569Z</time>
      </trkpt>
      <trkpt lat="45.83294" lon="4.84881">
        <ele>170.083234</ele>
        <time>2022-04-19T12:33:21.724Z</time>
      </trkpt>
      <trkpt lat="45.83256" lon="4.84836">
        <ele>168.938082</ele>
        <time>2022-04-19T12:33:25.700Z</time>
      </trkpt>
      <trkpt lat="45.83278" lon="4.84771">
        <ele>167.948515</ele>
        <time>2022-04-19T12:33:30.035Z</time>
      </trkpt>
      <trkpt lat="45.8328" lon="4.84763">
        <ele>167.829545</ele>
        <time>2022-04-19T12:33:30.618Z</time>
      </trkpt>
      <trkpt lat="45.83272" lon="4.84758">
        <ele>167.665319</ele>
        <time>2022-04-19T12:33:31.352Z</time>
      </trkpt>
      <trkpt lat="45.83268" lon="4.84756">
        <ele>167.571347</ele>
        <time>2022-04-19T12:33:31.764Z</time>
      </trkpt>
      <trkpt lat="45.83275" lon="4.84732">
        <ele>167.223766</ele>
        <time>2022-04-19T12:33:33.362Z</time>
      </trkpt>
      <trkpt lat="45.833" lon="4.84641">
        <ele>165.89882</ele>
        <time>2022-04-19T12:33:39.580Z</time>
      </trkpt>
      <trkpt lat="45.8332" lon="4.84569">
        <ele>165.871669</ele>
        <time>2022-04-19T12:33:45.675Z</time>
      </trkpt>
      <trkpt lat="45.83324" lon="4.84572">
        <ele>165.871666</ele>
        <time>2022-04-19T12:33:48.724Z</time>
      </trkpt>
      <trkpt lat="45.83315" lon="4.84603">
        <ele>165.871653</ele>
        <time>2022-04-19T12:33:51.636Z</time>
      </trkpt>
      <trkpt lat="45.83304" lon="4.84644">
        <ele>165.871635</ele>
        <time>2022-04-19T12:33:55.617Z</time>
      </trkpt>
      <trkpt lat="45.833" lon="4.84641">
        <ele>165.871633</ele>
        <time>2022-04-19T12:33:58.656Z</time>
      </trkpt>
      <trkpt lat="45.8332" lon="4.84569">
        <ele>165.871601</ele>
        <time>2022-04-19T12:34:05.588Z</time>
      </trkpt>
      <trkpt lat="45.83417" lon="4.84233">
        <ele>167.017339</ele>
        <time>2022-04-19T12:34:39.442Z</time>
      </trkpt>
      <trkpt lat="45.83452" lon="4.84122">
        <ele>167.442607</ele>
        <time>2022-04-19T12:34:51.053Z</time>
      </trkpt>
      <trkpt lat="45.83464" lon="4.84088">
        <ele>167.57305</ele>
        <time>2022-04-19T12:34:54.542Z</time>
      </trkpt>
      <trkpt lat="45.83503" lon="4.83988">
        <ele>167.868711</ele>
        <time>2022-04-19T12:35:05.414Z</time>
      </trkpt>
      <trkpt lat="45.83543" lon="4.83903">
        <ele>168.122358</ele>
        <time>2022-04-19T12:35:14.493Z</time>
      </trkpt>
      <trkpt lat="45.83579" lon="4.8384">
        <ele>168.279734</ele>
        <time>2022-04-19T12:35:21.538Z</time>
      </trkpt>
      <trkpt lat="45.83587" lon="4.83825">
        <ele>168.300991</ele>
        <time>2022-04-19T12:35:23.254Z</time>
      </trkpt>
      <trkpt lat="45.8359" lon="4.8382">
        <ele>168.307901</ele>
        <time>2022-04-19T12:35:23.813Z</time>
      </trkpt>
      <trkpt lat="45.8362" lon="4.83776">
        <ele>168.374274</ele>
        <time>2022-04-19T12:35:28.979Z</time>
      </trkpt>
      <trkpt lat="45.83779" lon="4.83533">
        <ele>168.862519</ele>
        <time>2022-04-19T12:35:57.780Z</time>
      </trkpt>
      <trkpt lat="45.8387" lon="4.83448">
        <ele>169.339218</ele>
        <time>2022-04-19T12:36:12.457Z</time>
      </trkpt>
      <trkpt lat="45.83935" lon="4.8341">
        <ele>169.745121</ele>
        <time>2022-04-19T12:36:22.333Z</time>
      </trkpt>
      <trkpt lat="45.83982" lon="4.83391">
        <ele>170.021708</ele>
        <time>2022-04-19T12:36:28.858Z</time>
      </trkpt>
      <trkpt lat="45.83981" lon="4.83374">
        <ele>170.098159</ele>
        <time>2022-04-19T12:36:30.474Z</time>
      </trkpt>
      <trkpt lat="45.83982" lon="4.83368">
        <ele>170.123967</ele>
        <time>2022-04-19T12:36:30.968Z</time>
      </trkpt>
      <trkpt lat="45.84133" lon="4.83371">
        <ele>171.088615</ele>
        <time>2022-04-19T12:36:51.488Z</time>
      </trkpt>
      <trkpt lat="45.84186" lon="4.83381">
        <ele>171.79852</ele>
        <time>2022-04-19T12:36:59.774Z</time>
      </trkpt>
      <trkpt lat="45.84474" lon="4.83496">
        <ele>176.180677</ele>
        <time>2022-04-19T12:37:51.588Z</time>
      </trkpt>
      <trkpt lat="45.84482" lon="4.83498">
        <ele>176.310429</ele>
        <time>2022-04-19T12:37:52.840Z</time>
      </trkpt>
      <trkpt lat="45.84497" lon="4.83497">
        <ele>176.401916</ele>
        <time>2022-04-19T12:37:54.710Z</time>
      </trkpt>
      <trkpt lat="45.84512" lon="4.835">
        <ele>176.343624</ele>
        <time>2022-04-19T12:37:56.786Z</time>
      </trkpt>
      <trkpt lat="45.84524" lon="4.83502">
        <ele>176.29951</ele>
        <time>2022-04-19T12:37:58.194Z</time>
      </trkpt>
      <trkpt lat="45.84565" lon="4.83532">
        <ele>176.124617</ele>
        <time>2022-04-19T12:38:03.381Z</time>
      </trkpt>
      <trkpt lat="45.84604" lon="4.83551">
        <ele>175.966151</ele>
        <time>2022-04-19T12:38:07.681Z</time>
      </trkpt>
      <trkpt lat="45.84942" lon="4.83725">
        <ele>172.322146</ele>
        <time>2022-04-19T12:38:41.622Z</time>
      </trkpt>
      <trkpt lat="45.84973" lon="4.83723">
        <ele>172.014025</ele>
        <time>2022-04-19T12:38:44.754Z</time>
      </trkpt>
      <trkpt lat="45.84995" lon="4.83745">
        <ele>171.749889</ele>
        <time>2022-04-19T12:38:47.554Z</time>
      </trkpt>
      <trkpt lat="45.85066" lon="4.83775">
        <ele>172.30056</ele>
        <time>2022-04-19T12:38:56.210Z</time>
      </trkpt>
      <trkpt lat="45.85309" lon="4.83846">
        <ele>175.145863</ele>
        <time>2022-04-19T12:39:37.843Z</time>
      </trkpt>
      <trkpt lat="45.85429" lon="4.83905">
        <ele>174.871212</ele>
        <time>2022-04-19T12:39:57.417Z</time>
      </trkpt>
      <trkpt lat="45.85874" lon="4.84121">
        <ele>169.536786</ele>
        <time>2022-04-19T12:40:40.110Z</time>
      </trkpt>
      <trkpt lat="45.85937" lon="4.84127">
        <ele>169.483504</ele>
        <time>2022-04-19T12:40:46.908Z</time>
      </trkpt>
      <trkpt lat="45.85968" lon="4.84122">
        <ele>169.457996</ele>
        <time>2022-04-19T12:40:50.616Z</time>
      </trkpt>
      <trkpt lat="45.86157" lon="4.84075">
        <ele>170.155408</ele>
        <time>2022-04-19T12:41:18.191Z</time>
      </trkpt>
      <trkpt lat="45.86398" lon="4.84015">
        <ele>171.392579</ele>
        <time>2022-04-19T12:41:49.978Z</time>
      </trkpt>
      <trkpt lat="45.86565" lon="4.8396">
        <ele>173.152652</ele>
        <time>2022-04-19T12:42:16.348Z</time>
      </trkpt>
      <trkpt lat="45.86615" lon="4.83952">
        <ele>173.53543</ele>
        <time>2022-04-19T12:42:24.528Z</time>
      </trkpt>
      <trkpt lat="45.86616" lon="4.83963">
        <ele>173.593045</ele>
        <time>2022-04-19T12:42:27.218Z</time>
      </trkpt>
      <trkpt lat="45.8666" lon="4.83958">
        <ele>173.932187</ele>
        <time>2022-04-19T12:42:33.869Z</time>
      </trkpt>
      <trkpt lat="45.86684" lon="4.83957">
        <ele>174.109256</ele>
        <time>2022-04-19T12:42:37.311Z</time>
      </trkpt>
      <trkpt lat="45.86695" lon="4.83956">
        <ele>174.196258</ele>
        <time>2022-04-19T12:42:38.852Z</time>
      </trkpt>
      <trkpt lat="45.86742" lon="4.83961">
        <ele>174.503644</ele>
        <time>2022-04-19T12:42:44.429Z</time>
      </trkpt>
      <trkpt lat="45.86745" lon="4.83962">
        <ele>174.493034</ele>
        <time>2022-04-19T12:42:44.795Z</time>
      </trkpt>
      <trkpt lat="45.86818" lon="4.83967">
        <ele>174.265331</ele>
        <time>2022-04-19T12:42:52.958Z</time>
      </trkpt>
      <trkpt lat="45.86827" lon="4.83981">
        <ele>174.222392</ele>
        <time>2022-04-19T12:42:54.805Z</time>
      </trkpt>
      <trkpt lat="45.86835" lon="4.8398">
        <ele>174.197248</ele>
        <time>2022-04-19T12:42:55.567Z</time>
      </trkpt>
      <trkpt lat="45.86842" lon="4.83967">
        <ele>174.163006</ele>
        <time>2022-04-19T12:42:56.618Z</time>
      </trkpt>
      <trkpt lat="45.8691" lon="4.83975">
        <ele>173.960557</ele>
        <time>2022-04-19T12:43:03.707Z</time>
      </trkpt>
      <trkpt lat="45.86929" lon="4.83977">
        <ele>173.986686</ele>
        <time>2022-04-19T12:43:05.967Z</time>
      </trkpt>
      <trkpt lat="45.86936" lon="4.83977">
        <ele>173.99691</ele>
        <time>2022-04-19T12:43:06.701Z</time>
      </trkpt>
      <trkpt lat="45.86939" lon="4.83978">
        <ele>174.000508</ele>
        <time>2022-04-19T12:43:06.943Z</time>
      </trkpt>
      <trkpt lat="45.86976" lon="4.8398">
        <ele>174.051872</ele>
        <time>2022-04-19T12:43:10.976Z</time>
      </trkpt>
      <trkpt lat="45.86985" lon="4.8398">
        <ele>174.064012</ele>
        <time>2022-04-19T12:43:11.839Z</time>
      </trkpt>
      <trkpt lat="45.87105" lon="4.83975">
        <ele>174.313653</ele>
        <time>2022-04-19T12:43:28.498Z</time>
      </trkpt>
      <trkpt lat="45.87167" lon="4.83966">
        <ele>174.698583</ele>
        <time>2022-04-19T12:43:37.539Z</time>
      </trkpt>
      <trkpt lat="45.87167" lon="4.83966">
        <ele>174.699336</ele>
        <time>2022-04-19T12:43:37.552Z</time>
      </trkpt>
      <trkpt lat="45.8717" lon="4.83982">
        <ele>174.772305</ele>
        <time>2022-04-19T12:43:39.661Z</time>
      </trkpt>
      <trkpt lat="45.87217" lon="4.84012">
        <ele>175.088877</ele>
        <time>2022-04-19T12:43:46.177Z</time>
      </trkpt>
      <trkpt lat="45.87286" lon="4.84011">
        <ele>175.257331</ele>
        <time>2022-04-19T12:43:55.156Z</time>
      </trkpt>
      <trkpt lat="45.87286" lon="4.84018">
        <ele>175.248137</ele>
        <time>2022-04-19T12:43:55.809Z</time>
      </trkpt>
      <trkpt lat="45.87292" lon="4.84024">
        <ele>175.23472</ele>
        <time>2022-04-19T12:43:56.764Z</time>
      </trkpt>
      <trkpt lat="45.87298" lon="4.84018">
        <ele>175.221303</ele>
        <time>2022-04-19T12:43:58.000Z</time>
      </trkpt>
      <trkpt lat="45.87307" lon="4.84007">
        <ele>175.200037</ele>
        <time>2022-04-19T12:43:59.417Z</time>
      </trkpt>
      <trkpt lat="45.87321" lon="4.83995">
        <ele>175.170784</ele>
        <time>2022-04-19T12:44:01.364Z</time>
      </trkpt>
      <trkpt lat="45.87352" lon="4.83989">
        <ele>175.112902</ele>
        <time>2022-04-19T12:44:04.953Z</time>
      </trkpt>
      <trkpt lat="45.87376" lon="4.83986">
        <ele>175.068707</ele>
        <time>2022-04-19T12:44:07.463Z</time>
      </trkpt>
      <trkpt lat="45.87414" lon="4.83982">
        <ele>174.999669</ele>
        <time>2022-04-19T12:44:11.312Z</time>
      </trkpt>
      <trkpt lat="45.87485" lon="4.83972">
        <ele>174.553492</ele>
        <time>2022-04-19T12:44:18.305Z</time>
      </trkpt>
      <trkpt lat="45.87489" lon="4.83988">
        <ele>174.475135</ele>
        <time>2022-04-19T12:44:19.579Z</time>
      </trkpt>
      <trkpt lat="45.87498" lon="4.83989">
        <ele>174.409154</ele>
        <time>2022-04-19T12:44:20.579Z</time>
      </trkpt>
      <trkpt lat="45.87503" lon="4.83983">
        <ele>174.364316</ele>
        <time>2022-04-19T12:44:21.239Z</time>
      </trkpt>
      <trkpt lat="45.87504" lon="4.83971">
        <ele>174.309518</ele>
        <time>2022-04-19T12:44:22.081Z</time>
      </trkpt>
      <trkpt lat="45.875" lon="4.83963">
        <ele>174.263925</ele>
        <time>2022-04-19T12:44:22.864Z</time>
      </trkpt>
      <trkpt lat="45.87505" lon="4.83947">
        <ele>174.183923</ele>
        <time>2022-04-19T12:44:24.154Z</time>
      </trkpt>
      <trkpt lat="45.87517" lon="4.83889">
        <ele>173.900321</ele>
        <time>2022-04-19T12:44:28.638Z</time>
      </trkpt>
      <trkpt lat="45.87525" lon="4.83884">
        <ele>173.842525</ele>
        <time>2022-04-19T12:44:29.530Z</time>
      </trkpt>
      <trkpt lat="45.87532" lon="4.8388">
        <ele>173.793805</ele>
        <time>2022-04-19T12:44:30.324Z</time>
      </trkpt>
      <trkpt lat="45.87556" lon="4.83864">
        <ele>173.526749</ele>
        <time>2022-04-19T12:44:33.126Z</time>
      </trkpt>
      <trkpt lat="45.87569" lon="4.83856">
        <ele>173.377952</ele>
        <time>2022-04-19T12:44:34.747Z</time>
      </trkpt>
      <trkpt lat="45.87576" lon="4.83854">
        <ele>173.302949</ele>
        <time>2022-04-19T12:44:35.780Z</time>
      </trkpt>
      <trkpt lat="45.87584" lon="4.83851">
        <ele>173.222746</ele>
        <time>2022-04-19T12:44:36.844Z</time>
      </trkpt>
      <trkpt lat="45.87593" lon="4.83849">
        <ele>173.12428</ele>
        <time>2022-04-19T12:44:37.815Z</time>
      </trkpt>
      <trkpt lat="45.8763" lon="4.83844">
        <ele>172.744493</ele>
        <time>2022-04-19T12:44:41.483Z</time>
      </trkpt>
      <trkpt lat="45.87639" lon="4.83842">
        <ele>172.645878</ele>
        <time>2022-04-19T12:44:42.456Z</time>
      </trkpt>
      <trkpt lat="45.87649" lon="4.83847">
        <ele>172.543236</ele>
        <time>2022-04-19T12:44:43.396Z</time>
      </trkpt>
      <trkpt lat="45.87695" lon="4.83848">
        <ele>172.070168</ele>
        <time>2022-04-19T12:44:47.709Z</time>
      </trkpt>
      <trkpt lat="45.87699" lon="4.83857">
        <ele>171.995818</ele>
        <time>2022-04-19T12:44:48.393Z</time>
      </trkpt>
      <trkpt lat="45.87709" lon="4.83859">
        <ele>171.869256</ele>
        <time>2022-04-19T12:44:49.384Z</time>
      </trkpt>
      <trkpt lat="45.87711" lon="4.83858">
        <ele>171.836117</ele>
        <time>2022-04-19T12:44:49.574Z</time>
      </trkpt>
      <trkpt lat="45.87713" lon="4.83855">
        <ele>171.796252</ele>
        <time>2022-04-19T12:44:49.807Z</time>
      </trkpt>
      <trkpt lat="45.87717" lon="4.83847">
        <ele>171.691398</ele>
        <time>2022-04-19T12:44:50.366Z</time>
      </trkpt>
      <trkpt lat="45.87714" lon="4.83832">
        <ele>171.537087</ele>
        <time>2022-04-19T12:44:51.251Z</time>
      </trkpt>
      <trkpt lat="45.87711" lon="4.83829">
        <ele>171.482411</ele>
        <time>2022-04-19T12:44:51.587Z</time>
      </trkpt>
      <trkpt lat="45.87701" lon="4.83828">
        <ele>171.334022</ele>
        <time>2022-04-19T12:44:52.483Z</time>
      </trkpt>
      <trkpt lat="45.87698" lon="4.83814">
        <ele>171.174718</ele>
        <time>2022-04-19T12:44:53.348Z</time>
      </trkpt>
      <trkpt lat="45.87686" lon="4.83666">
        <ele>169.613641</ele>
        <time>2022-04-19T12:45:02.532Z</time>
      </trkpt>
      <trkpt lat="45.87685" lon="4.83653">
        <ele>169.47305</ele>
        <time>2022-04-19T12:45:03.347Z</time>
      </trkpt>
      <trkpt lat="45.87679" lon="4.83564">
        <ele>169.932432</ele>
        <time>2022-04-19T12:45:10.708Z</time>
      </trkpt>
      <trkpt lat="45.87679" lon="4.83555">
        <ele>170.025101</ele>
        <time>2022-04-19T12:45:11.369Z</time>
      </trkpt>
      <trkpt lat="45.87686" lon="4.83551">
        <ele>170.141029</ele>
        <time>2022-04-19T12:45:12.340Z</time>
      </trkpt>
      <trkpt lat="45.87688" lon="4.83541">
        <ele>170.252543</ele>
        <time>2022-04-19T12:45:13.337Z</time>
      </trkpt>
      <trkpt lat="45.87681" lon="4.8353">
        <ele>170.417531</ele>
        <time>2022-04-19T12:45:15.114Z</time>
      </trkpt>
      <trkpt lat="45.87679" lon="4.8352">
        <ele>170.529045</ele>
        <time>2022-04-19T12:45:16.317Z</time>
      </trkpt>
      <trkpt lat="45.87669" lon="4.83484">
        <ele>170.969354</ele>
        <time>2022-04-19T12:45:20.980Z</time>
      </trkpt>
      <trkpt lat="45.87663" lon="4.83465">
        <ele>171.190622</ele>
        <time>2022-04-19T12:45:23.531Z</time>
      </trkpt>
      <trkpt lat="45.8766" lon="4.83458">
        <ele>171.283129</ele>
        <time>2022-04-19T12:45:24.592Z</time>
      </trkpt>
      <trkpt lat="45.87652" lon="4.83444">
        <ele>171.485727</ele>
        <time>2022-04-19T12:45:27.146Z</time>
      </trkpt>
      <trkpt lat="45.87629" lon="4.83414">
        <ele>171.990509</ele>
        <time>2022-04-19T12:45:34.502Z</time>
      </trkpt>
      <trkpt lat="45.87606" lon="4.83391">
        <ele>173.207217</ele>
        <time>2022-04-19T12:45:41.081Z</time>
      </trkpt>
      <trkpt lat="45.87582" lon="4.83364">
        <ele>174.829143</ele>
        <time>2022-04-19T12:45:49.497Z</time>
      </trkpt>
      <trkpt lat="45.87554" lon="4.83326">
        <ele>176.832127</ele>
        <time>2022-04-19T12:46:00.969Z</time>
      </trkpt>
      <trkpt lat="45.87541" lon="4.83301">
        <ele>177.998618</ele>
        <time>2022-04-19T12:46:07.229Z</time>
      </trkpt>
      <trkpt lat="45.87537" lon="4.83279">
        <ele>178.836091</ele>
        <time>2022-04-19T12:46:11.956Z</time>
      </trkpt>
      <trkpt lat="45.87539" lon="4.83269">
        <ele>179.221999</ele>
        <time>2022-04-19T12:46:14.564Z</time>
      </trkpt>
      <trkpt lat="45.87568" lon="4.83234">
        <ele>181.239849</ele>
        <time>2022-04-19T12:46:25.893Z</time>
      </trkpt>
      <trkpt lat="45.8757" lon="4.83225">
        <ele>181.56785</ele>
        <time>2022-04-19T12:46:27.979Z</time>
      </trkpt>
      <trkpt lat="45.87569" lon="4.83219">
        <ele>181.963882</ele>
        <time>2022-04-19T12:46:29.506Z</time>
      </trkpt>
      <trkpt lat="45.87555" lon="4.83189">
        <ele>183.99701</ele>
        <time>2022-04-19T12:46:37.922Z</time>
      </trkpt>
      <trkpt lat="45.87542" lon="4.83164">
        <ele>185.778287</ele>
        <time>2022-04-19T12:46:45.122Z</time>
      </trkpt>
      <trkpt lat="45.8754" lon="4.83161">
        <ele>186.026384</ele>
        <time>2022-04-19T12:46:46.096Z</time>
      </trkpt>
      <trkpt lat="45.87534" lon="4.83156">
        <ele>186.579957</ele>
        <time>2022-04-19T12:46:48.595Z</time>
      </trkpt>
      <trkpt lat="45.87531" lon="4.83155">
        <ele>186.847487</ele>
        <time>2022-04-19T12:46:49.744Z</time>
      </trkpt>
      <trkpt lat="45.87507" lon="4.8316">
        <ele>188.831668</ele>
        <time>2022-04-19T12:46:59.140Z</time>
      </trkpt>
      <trkpt lat="45.87493" lon="4.83161">
        <ele>189.929361</ele>
        <time>2022-04-19T12:47:04.422Z</time>
      </trkpt>
      <trkpt lat="45.8748" lon="4.83146">
        <ele>191.279629</ele>
        <time>2022-04-19T12:47:11.790Z</time>
      </trkpt>
      <trkpt lat="45.87483" lon="4.83119">
        <ele>192.818324</ele>
        <time>2022-04-19T12:47:18.974Z</time>
      </trkpt>
      <trkpt lat="45.87494" lon="4.83108">
        <ele>193.940988</ele>
        <time>2022-04-19T12:47:25.540Z</time>
      </trkpt>
      <trkpt lat="45.87517" lon="4.83079">
        <ele>196.372327</ele>
        <time>2022-04-19T12:47:38.353Z</time>
      </trkpt>
      <trkpt lat="45.8753" lon="4.83038">
        <ele>198.940273</ele>
        <time>2022-04-19T12:47:51.115Z</time>
      </trkpt>
      <trkpt lat="45.87532" lon="4.83018">
        <ele>200.08396</ele>
        <time>2022-04-19T12:47:57.175Z</time>
      </trkpt>
      <trkpt lat="45.87531" lon="4.83013">
        <ele>200.348265</ele>
        <time>2022-04-19T12:47:58.238Z</time>
      </trkpt>
      <trkpt lat="45.87531" lon="4.83008">
        <ele>200.624162</ele>
        <time>2022-04-19T12:47:59.385Z</time>
      </trkpt>
      <trkpt lat="45.87524" lon="4.82963">
        <ele>203.248857</ele>
        <time>2022-04-19T12:48:12.577Z</time>
      </trkpt>
      <trkpt lat="45.87512" lon="4.8292">
        <ele>205.839029</ele>
        <time>2022-04-19T12:48:24.877Z</time>
      </trkpt>
      <trkpt lat="45.87498" lon="4.82879">
        <ele>208.394316</ele>
        <time>2022-04-19T12:48:36.240Z</time>
      </trkpt>
      <trkpt lat="45.87485" lon="4.82847">
        <ele>210.493156</ele>
        <time>2022-04-19T12:48:44.331Z</time>
      </trkpt>
      <trkpt lat="45.87484" lon="4.82843">
        <ele>210.711191</ele>
        <time>2022-04-19T12:48:45.303Z</time>
      </trkpt>
      <trkpt lat="45.87482" lon="4.8284">
        <ele>210.865236</ele>
        <time>2022-04-19T12:48:46.474Z</time>
      </trkpt>
      <trkpt lat="45.87463" lon="4.82799">
        <ele>212.201769</ele>
        <time>2022-04-19T12:48:57.429Z</time>
      </trkpt>
      <trkpt lat="45.87462" lon="4.82797">
        <ele>212.272097</ele>
        <time>2022-04-19T12:48:57.981Z</time>
      </trkpt>
      <trkpt lat="45.8746" lon="4.82792">
        <ele>212.451524</ele>
        <time>2022-04-19T12:48:59.391Z</time>
      </trkpt>
      <trkpt lat="45.87452" lon="4.82775">
        <ele>213.009705</ele>
        <time>2022-04-19T12:49:03.141Z</time>
      </trkpt>
      <trkpt lat="45.87442" lon="4.82754">
        <ele>213.724361</ele>
        <time>2022-04-19T12:49:07.717Z</time>
      </trkpt>
      <trkpt lat="45.87439" lon="4.82747">
        <ele>213.946734</ele>
        <time>2022-04-19T12:49:09.159Z</time>
      </trkpt>
      <trkpt lat="45.87436" lon="4.82741">
        <ele>214.148638</ele>
        <time>2022-04-19T12:49:10.315Z</time>
      </trkpt>
      <trkpt lat="45.87431" lon="4.82731">
        <ele>214.488924</ele>
        <time>2022-04-19T12:49:12.248Z</time>
      </trkpt>
      <trkpt lat="45.87402" lon="4.82674">
        <ele>216.433996</ele>
        <time>2022-04-19T12:49:22.532Z</time>
      </trkpt>
      <trkpt lat="45.87391" lon="4.8265">
        <ele>217.24849</ele>
        <time>2022-04-19T12:49:26.643Z</time>
      </trkpt>
      <trkpt lat="45.87384" lon="4.82637">
        <ele>217.688742</ele>
        <time>2022-04-19T12:49:28.742Z</time>
      </trkpt>
      <trkpt lat="45.87377" lon="4.8262">
        <ele>217.972259</ele>
        <time>2022-04-19T12:49:31.370Z</time>
      </trkpt>
      <trkpt lat="45.87356" lon="4.8257">
        <ele>218.263387</ele>
        <time>2022-04-19T12:49:38.377Z</time>
      </trkpt>
      <trkpt lat="45.87328" lon="4.82505">
        <ele>218.643635</ele>
        <time>2022-04-19T12:49:46.400Z</time>
      </trkpt>
      <trkpt lat="45.87315" lon="4.82479">
        <ele>218.801962</ele>
        <time>2022-04-19T12:49:49.336Z</time>
      </trkpt>
      <trkpt lat="45.8728" lon="4.82417">
        <ele>219.198719</ele>
        <time>2022-04-19T12:49:55.396Z</time>
      </trkpt>
      <trkpt lat="45.87276" lon="4.82409">
        <ele>219.163499</ele>
        <time>2022-04-19T12:49:56.068Z</time>
      </trkpt>
      <trkpt lat="45.87246" lon="4.82358">
        <ele>218.911045</ele>
        <time>2022-04-19T12:50:00.482Z</time>
      </trkpt>
      <trkpt lat="45.87232" lon="4.82335">
        <ele>218.795334</ele>
        <time>2022-04-19T12:50:02.456Z</time>
      </trkpt>
      <trkpt lat="45.87208" lon="4.82288">
        <ele>218.576344</ele>
        <time>2022-04-19T12:50:06.333Z</time>
      </trkpt>
      <trkpt lat="45.87203" lon="4.82276">
        <ele>218.521807</ele>
        <time>2022-04-19T12:50:07.335Z</time>
      </trkpt>
      <trkpt lat="45.87159" lon="4.82146">
        <ele>219.769981</ele>
        <time>2022-04-19T12:50:19.646Z</time>
      </trkpt>
      <trkpt lat="45.8715" lon="4.82131">
        <ele>220.261164</ele>
        <time>2022-04-19T12:50:22.470Z</time>
      </trkpt>
      <trkpt lat="45.87104" lon="4.82096">
        <ele>222.019802</ele>
        <time>2022-04-19T12:50:34.023Z</time>
      </trkpt>
      <trkpt lat="45.87091" lon="4.82088">
        <ele>222.505725</ele>
        <time>2022-04-19T12:50:38.143Z</time>
      </trkpt>
      <trkpt lat="45.87089" lon="4.82087">
        <ele>222.579019</ele>
        <time>2022-04-19T12:50:38.795Z</time>
      </trkpt>
      <trkpt lat="45.87073" lon="4.82077">
        <ele>223.168746</ele>
        <time>2022-04-19T12:50:43.647Z</time>
      </trkpt>
      <trkpt lat="45.87059" lon="4.82068">
        <ele>223.71008</ele>
        <time>2022-04-19T12:50:48.606Z</time>
      </trkpt>
      <trkpt lat="45.87054" lon="4.82064">
        <ele>223.91596</ele>
        <time>2022-04-19T12:50:50.637Z</time>
      </trkpt>
      <trkpt lat="45.87037" lon="4.82053">
        <ele>224.676645</ele>
        <time>2022-04-19T12:50:56.375Z</time>
      </trkpt>
      <trkpt lat="45.86986" lon="4.82019">
        <ele>228.015267</ele>
        <time>2022-04-19T12:51:15.866Z</time>
      </trkpt>
      <trkpt lat="45.86981" lon="4.82016">
        <ele>228.343358</ele>
        <time>2022-04-19T12:51:17.642Z</time>
      </trkpt>
      <trkpt lat="45.86952" lon="4.81995">
        <ele>230.317132</ele>
        <time>2022-04-19T12:51:28.337Z</time>
      </trkpt>
      <trkpt lat="45.86884" lon="4.81919">
        <ele>235.386934</ele>
        <time>2022-04-19T12:51:54.345Z</time>
      </trkpt>
      <trkpt lat="45.86859" lon="4.81876">
        <ele>237.080086</ele>
        <time>2022-04-19T12:52:04.167Z</time>
      </trkpt>
      <trkpt lat="45.86821" lon="4.81798">
        <ele>239.938165</ele>
        <time>2022-04-19T12:52:19.938Z</time>
      </trkpt>
      <trkpt lat="45.86787" lon="4.81715">
        <ele>242.829849</ele>
        <time>2022-04-19T12:52:36.145Z</time>
      </trkpt>
      <trkpt lat="45.86783" lon="4.81706">
        <ele>243.214218</ele>
        <time>2022-04-19T12:52:38.186Z</time>
      </trkpt>
      <trkpt lat="45.86772" lon="4.81683">
        <ele>244.19291</ele>
        <time>2022-04-19T12:52:43.672Z</time>
      </trkpt>
      <trkpt lat="45.86765" lon="4.81666">
        <ele>244.931021</ele>
        <time>2022-04-19T12:52:47.930Z</time>
      </trkpt>
      <trkpt lat="45.86721" lon="4.81573">
        <ele>249.011115</ele>
        <time>2022-04-19T12:53:11.656Z</time>
      </trkpt>
      <trkpt lat="45.86656" lon="4.81492">
        <ele>253.341855</ele>
        <time>2022-04-19T12:53:35.736Z</time>
      </trkpt>
      <trkpt lat="45.86603" lon="4.81419">
        <ele>256.705532</ele>
        <time>2022-04-19T12:53:55.336Z</time>
      </trkpt>
      <trkpt lat="45.86597" lon="4.81407">
        <ele>257.188843</ele>
        <time>2022-04-19T12:53:57.142Z</time>
      </trkpt>
      <trkpt lat="45.86569" lon="4.81362">
        <ele>259.10331</ele>
        <time>2022-04-19T12:54:07.692Z</time>
      </trkpt>
      <trkpt lat="45.86548" lon="4.81349">
        <ele>260.173224</ele>
        <time>2022-04-19T12:54:14.714Z</time>
      </trkpt>
      <trkpt lat="45.86535" lon="4.81345">
        <ele>260.898459</ele>
        <time>2022-04-19T12:54:17.256Z</time>
      </trkpt>
      <trkpt lat="45.86538" lon="4.81371">
        <ele>262.160349</ele>
        <time>2022-04-19T12:54:37.723Z</time>
      </trkpt>
      <trkpt lat="45.86535" lon="4.81345">
        <ele>263.42224</ele>
        <time>2022-04-19T12:54:55.919Z</time>
      </trkpt>
      <trkpt lat="45.8652" lon="4.81341">
        <ele>264.457757</ele>
        <time>2022-04-19T12:55:01.503Z</time>
      </trkpt>
      <trkpt lat="45.86481" lon="4.81333">
        <ele>267.126973</ele>
        <time>2022-04-19T12:55:13.560Z</time>
      </trkpt>
      <trkpt lat="45.86477" lon="4.81332">
        <ele>267.444122</ele>
        <time>2022-04-19T12:55:14.810Z</time>
      </trkpt>
      <trkpt lat="45.86474" lon="4.81331">
        <ele>267.602393</ele>
        <time>2022-04-19T12:55:15.498Z</time>
      </trkpt>
      <trkpt lat="45.86414" lon="4.8132">
        <ele>271.78815</ele>
        <time>2022-04-19T12:55:39.423Z</time>
      </trkpt>
      <trkpt lat="45.86379" lon="4.81315">
        <ele>274.653273</ele>
        <time>2022-04-19T12:55:53.004Z</time>
      </trkpt>
      <trkpt lat="45.86352" lon="4.8131">
        <ele>277.193439</ele>
        <time>2022-04-19T12:56:05.003Z</time>
      </trkpt>
      <trkpt lat="45.86224" lon="4.81304">
        <ele>289.139052</ele>
        <time>2022-04-19T12:57:00.467Z</time>
      </trkpt>
      <trkpt lat="45.86165" lon="4.81285">
        <ele>292.787283</ele>
        <time>2022-04-19T12:57:23.784Z</time>
      </trkpt>
      <trkpt lat="45.86104" lon="4.81256">
        <ele>296.452833</ele>
        <time>2022-04-19T12:57:42.794Z</time>
      </trkpt>
      <trkpt lat="45.86069" lon="4.81226">
        <ele>298.759699</ele>
        <time>2022-04-19T12:57:52.815Z</time>
      </trkpt>
      <trkpt lat="45.86038" lon="4.81186">
        <ele>300.009591</ele>
        <time>2022-04-19T12:58:01.132Z</time>
      </trkpt>
      <trkpt lat="45.86008" lon="4.81118">
        <ele>300.298519</ele>
        <time>2022-04-19T12:58:09.995Z</time>
      </trkpt>
      <trkpt lat="45.85983" lon="4.8106">
        <ele>300.54372</ele>
        <time>2022-04-19T12:58:15.864Z</time>
      </trkpt>
      <trkpt lat="45.85971" lon="4.81036">
        <ele>300.649313</ele>
        <time>2022-04-19T12:58:17.905Z</time>
      </trkpt>
      <trkpt lat="45.85932" lon="4.80984">
        <ele>300.781455</ele>
        <time>2022-04-19T12:58:22.764Z</time>
      </trkpt>
      <trkpt lat="45.85914" lon="4.80971">
        <ele>300.741885</ele>
        <time>2022-04-19T12:58:24.644Z</time>
      </trkpt>
      <trkpt lat="45.85848" lon="4.80945">
        <ele>300.604989</ele>
        <time>2022-04-19T12:58:31.078Z</time>
      </trkpt>
      <trkpt lat="45.85745" lon="4.80888">
        <ele>302.124655</ele>
        <time>2022-04-19T12:58:48.823Z</time>
      </trkpt>
      <trkpt lat="45.85708" lon="4.80882">
        <ele>303.691972</ele>
        <time>2022-04-19T12:58:56.752Z</time>
      </trkpt>
      <trkpt lat="45.8568" lon="4.80872">
        <ele>304.893529</ele>
        <time>2022-04-19T12:59:04.895Z</time>
      </trkpt>
      <trkpt lat="45.85664" lon="4.80856">
        <ele>305.733613</ele>
        <time>2022-04-19T12:59:10.223Z</time>
      </trkpt>
      <trkpt lat="45.8563" lon="4.80796">
        <ele>308.011965</ele>
        <time>2022-04-19T12:59:27.302Z</time>
      </trkpt>
      <trkpt lat="45.85615" lon="4.80768">
        <ele>309.344075</ele>
        <time>2022-04-19T12:59:35.585Z</time>
      </trkpt>
      <trkpt lat="45.85594" lon="4.80728">
        <ele>311.253981</ele>
        <time>2022-04-19T12:59:48.036Z</time>
      </trkpt>
      <trkpt lat="45.85591" lon="4.80722">
        <ele>311.537008</ele>
        <time>2022-04-19T12:59:50.110Z</time>
      </trkpt>
      <trkpt lat="45.85582" lon="4.80705">
        <ele>312.334718</ele>
        <time>2022-04-19T12:59:55.163Z</time>
      </trkpt>
      <trkpt lat="45.85557" lon="4.80658">
        <ele>314.624785</ele>
        <time>2022-04-19T13:00:07.565Z</time>
      </trkpt>
      <trkpt lat="45.85554" lon="4.80651">
        <ele>314.92631</ele>
        <time>2022-04-19T13:00:08.932Z</time>
      </trkpt>
      <trkpt lat="45.85552" lon="4.80647">
        <ele>315.124075</ele>
        <time>2022-04-19T13:00:09.798Z</time>
      </trkpt>
      <trkpt lat="45.8552" lon="4.80591">
        <ele>317.888949</ele>
        <time>2022-04-19T13:00:22.377Z</time>
      </trkpt>
      <trkpt lat="45.85495" lon="4.8054">
        <ele>319.264702</ele>
        <time>2022-04-19T13:00:31.731Z</time>
      </trkpt>
      <trkpt lat="45.85484" lon="4.80493">
        <ele>320.316647</ele>
        <time>2022-04-19T13:00:38.576Z</time>
      </trkpt>
      <trkpt lat="45.85483" lon="4.80486">
        <ele>320.482648</ele>
        <time>2022-04-19T13:00:39.822Z</time>
      </trkpt>
      <trkpt lat="45.85477" lon="4.80426">
        <ele>321.772548</ele>
        <time>2022-04-19T13:00:49.659Z</time>
      </trkpt>
      <trkpt lat="45.85474" lon="4.80396">
        <ele>322.439608</ele>
        <time>2022-04-19T13:00:54.258Z</time>
      </trkpt>
      <trkpt lat="45.85474" lon="4.80393">
        <ele>322.49575</ele>
        <time>2022-04-19T13:00:54.676Z</time>
      </trkpt>
      <trkpt lat="45.8547" lon="4.80359">
        <ele>323.233863</ele>
        <time>2022-04-19T13:00:59.620Z</time>
      </trkpt>
      <trkpt lat="45.85468" lon="4.80344">
        <ele>323.586713</ele>
        <time>2022-04-19T13:01:01.628Z</time>
      </trkpt>
      <trkpt lat="45.85452" lon="4.80289">
        <ele>325.380984</ele>
        <time>2022-04-19T13:01:08.931Z</time>
      </trkpt>
      <trkpt lat="45.8545" lon="4.80281">
        <ele>325.632325</ele>
        <time>2022-04-19T13:01:10.248Z</time>
      </trkpt>
      <trkpt lat="45.85441" lon="4.80257">
        <ele>326.457532</ele>
        <time>2022-04-19T13:01:13.910Z</time>
      </trkpt>
      <trkpt lat="45.85434" lon="4.80226">
        <ele>327.430333</ele>
        <time>2022-04-19T13:01:19.222Z</time>
      </trkpt>
      <trkpt lat="45.85434" lon="4.80222">
        <ele>327.549068</ele>
        <time>2022-04-19T13:01:19.898Z</time>
      </trkpt>
      <trkpt lat="45.85438" lon="4.80206">
        <ele>328.057071</ele>
        <time>2022-04-19T13:01:22.675Z</time>
      </trkpt>
      <trkpt lat="45.85457" lon="4.80173">
        <ele>329.369311</ele>
        <time>2022-04-19T13:01:31.523Z</time>
      </trkpt>
      <trkpt lat="45.8547" lon="4.80159">
        <ele>330.075703</ele>
        <time>2022-04-19T13:01:36.514Z</time>
      </trkpt>
      <trkpt lat="45.85497" lon="4.80131">
        <ele>331.712979</ele>
        <time>2022-04-19T13:01:47.855Z</time>
      </trkpt>
      <trkpt lat="45.85537" lon="4.80092">
        <ele>335.558933</ele>
        <time>2022-04-19T13:02:06.085Z</time>
      </trkpt>
      <trkpt lat="45.85569" lon="4.80079">
        <ele>338.145042</ele>
        <time>2022-04-19T13:02:17.319Z</time>
      </trkpt>
      <trkpt lat="45.85609" lon="4.80059">
        <ele>341.502951</ele>
        <time>2022-04-19T13:02:33.101Z</time>
      </trkpt>
      <trkpt lat="45.85614" lon="4.80056">
        <ele>341.929694</ele>
        <time>2022-04-19T13:02:35.132Z</time>
      </trkpt>
      <trkpt lat="45.85636" lon="4.80039">
        <ele>343.895512</ele>
        <time>2022-04-19T13:02:44.999Z</time>
      </trkpt>
      <trkpt lat="45.85646" lon="4.8002">
        <ele>345.19892</ele>
        <time>2022-04-19T13:02:52.150Z</time>
      </trkpt>
      <trkpt lat="45.85646" lon="4.80002">
        <ele>346.226722</ele>
        <time>2022-04-19T13:02:57.415Z</time>
      </trkpt>
      <trkpt lat="45.85641" lon="4.79988">
        <ele>347.160117</ele>
        <time>2022-04-19T13:03:02.152Z</time>
      </trkpt>
      <trkpt lat="45.85615" lon="4.79978">
        <ele>349.423366</ele>
        <time>2022-04-19T13:03:13.136Z</time>
      </trkpt>
      <trkpt lat="45.85622" lon="4.79964">
        <ele>350.445694</ele>
        <time>2022-04-19T13:03:18.669Z</time>
      </trkpt>
      <trkpt lat="45.8566" lon="4.79973">
        <ele>353.665026</ele>
        <time>2022-04-19T13:03:35.718Z</time>
      </trkpt>
      <trkpt lat="45.85667" lon="4.79974">
        <ele>354.234281</ele>
        <time>2022-04-19T13:03:39.359Z</time>
      </trkpt>
      <trkpt lat="45.85674" lon="4.79975">
        <ele>354.849486</ele>
        <time>2022-04-19T13:03:42.842Z</time>
      </trkpt>
      <trkpt lat="45.8568" lon="4.79978">
        <ele>355.351611</ele>
        <time>2022-04-19T13:03:45.532Z</time>
      </trkpt>
      <trkpt lat="45.85709" lon="4.80003">
        <ele>358.132909</ele>
        <time>2022-04-19T13:04:00.562Z</time>
      </trkpt>
      <trkpt lat="45.85718" lon="4.79995">
        <ele>359.054935</ele>
        <time>2022-04-19T13:04:04.575Z</time>
      </trkpt>
      <trkpt lat="45.85723" lon="4.79983">
        <ele>359.844543</ele>
        <time>2022-04-19T13:04:08.062Z</time>
      </trkpt>
      <trkpt lat="45.8573" lon="4.79936">
        <ele>362.070731</ele>
        <time>2022-04-19T13:04:19.452Z</time>
      </trkpt>
      <trkpt lat="45.85735" lon="4.79929">
        <ele>362.486216</ele>
        <time>2022-04-19T13:04:22.129Z</time>
      </trkpt>
      <trkpt lat="45.85746" lon="4.7993">
        <ele>363.187229</ele>
        <time>2022-04-19T13:04:25.649Z</time>
      </trkpt>
      <trkpt lat="45.85754" lon="4.79957">
        <ele>364.432009</ele>
        <time>2022-04-19T13:04:31.583Z</time>
      </trkpt>
      <trkpt lat="45.85755" lon="4.80007">
        <ele>366.578789</ele>
        <time>2022-04-19T13:04:42.467Z</time>
      </trkpt>
      <trkpt lat="45.85754" lon="4.80013">
        <ele>366.812957</ele>
        <time>2022-04-19T13:04:43.958Z</time>
      </trkpt>
      <trkpt lat="45.85753" lon="4.80018">
        <ele>367.025121</ele>
        <time>2022-04-19T13:04:45.269Z</time>
      </trkpt>
      <trkpt lat="45.85736" lon="4.80064">
        <ele>369.263265</ele>
        <time>2022-04-19T13:04:58.142Z</time>
      </trkpt>
      <trkpt lat="45.85715" lon="4.80106">
        <ele>371.421286</ele>
        <time>2022-04-19T13:05:13.148Z</time>
      </trkpt>
      <trkpt lat="45.85707" lon="4.8013">
        <ele>373.144257</ele>
        <time>2022-04-19T13:05:21.911Z</time>
      </trkpt>
      <trkpt lat="45.85706" lon="4.80155">
        <ele>374.745013</ele>
        <time>2022-04-19T13:05:27.652Z</time>
      </trkpt>
      <trkpt lat="45.85717" lon="4.80195">
        <ele>377.454366</ele>
        <time>2022-04-19T13:05:38.571Z</time>
      </trkpt>
      <trkpt lat="45.85747" lon="4.80228">
        <ele>380.908343</ele>
        <time>2022-04-19T13:05:53.598Z</time>
      </trkpt>
      <trkpt lat="45.85737" lon="4.80208">
        <ele>382.475771</ele>
        <time>2022-04-19T13:06:02.490Z</time>
      </trkpt>
      <trkpt lat="45.85741" lon="4.802">
        <ele>383.090247</ele>
        <time>2022-04-19T13:06:05.470Z</time>
      </trkpt>
      <trkpt lat="45.85823" lon="4.8012">
        <ele>393.120697</ele>
        <time>2022-04-19T13:07:00.657Z</time>
      </trkpt>
      <trkpt lat="45.85838" lon="4.80098">
        <ele>395.582775</ele>
        <time>2022-04-19T13:07:13.227Z</time>
      </trkpt>
      <trkpt lat="45.85858" lon="4.80071">
        <ele>398.629057</ele>
        <time>2022-04-19T13:07:29.018Z</time>
      </trkpt>
      <trkpt lat="45.85867" lon="4.8007">
        <ele>399.643219</ele>
        <time>2022-04-19T13:07:33.612Z</time>
      </trkpt>
      <trkpt lat="45.85892" lon="4.80077">
        <ele>402.564496</ele>
        <time>2022-04-19T13:07:44.721Z</time>
      </trkpt>
      <trkpt lat="45.85918" lon="4.80064">
        <ele>405.615188</ele>
        <time>2022-04-19T13:07:57.298Z</time>
      </trkpt>
      <trkpt lat="45.85925" lon="4.80063">
        <ele>406.474185</ele>
        <time>2022-04-19T13:08:01.288Z</time>
      </trkpt>
      <trkpt lat="45.85937" lon="4.80053">
        <ele>407.994263</ele>
        <time>2022-04-19T13:08:08.501Z</time>
      </trkpt>
      <trkpt lat="45.85943" lon="4.80052">
        <ele>408.510753</ele>
        <time>2022-04-19T13:08:10.991Z</time>
      </trkpt>
      <trkpt lat="45.86015" lon="4.80041">
        <ele>415.036884</ele>
        <time>2022-04-19T13:08:46.728Z</time>
      </trkpt>
      <trkpt lat="45.86018" lon="4.80041">
        <ele>415.328384</ele>
        <time>2022-04-19T13:08:48.102Z</time>
      </trkpt>
      <trkpt lat="45.86041" lon="4.80036">
        <ele>417.423569</ele>
        <time>2022-04-19T13:08:57.664Z</time>
      </trkpt>
      <trkpt lat="45.86083" lon="4.8002">
        <ele>421.415277</ele>
        <time>2022-04-19T13:09:16.290Z</time>
      </trkpt>
      <trkpt lat="45.86108" lon="4.80005">
        <ele>423.777959</ele>
        <time>2022-04-19T13:09:27.397Z</time>
      </trkpt>
      <trkpt lat="45.86129" lon="4.79991">
        <ele>425.789245</ele>
        <time>2022-04-19T13:09:37.798Z</time>
      </trkpt>
      <trkpt lat="45.86146" lon="4.7998">
        <ele>427.292869</ele>
        <time>2022-04-19T13:09:45.540Z</time>
      </trkpt>
      <trkpt lat="45.86156" lon="4.79981">
        <ele>428.138383</ele>
        <time>2022-04-19T13:09:50.024Z</time>
      </trkpt>
      <trkpt lat="45.86173" lon="4.79984">
        <ele>429.477414</ele>
        <time>2022-04-19T13:09:56.786Z</time>
      </trkpt>
      <trkpt lat="45.86209" lon="4.79968">
        <ele>432.607226</ele>
        <time>2022-04-19T13:10:12.947Z</time>
      </trkpt>
      <trkpt lat="45.86213" lon="4.79945">
        <ele>433.951954</ele>
        <time>2022-04-19T13:10:19.415Z</time>
      </trkpt>
      <trkpt lat="45.86217" lon="4.79915">
        <ele>435.713913</ele>
        <time>2022-04-19T13:10:27.467Z</time>
      </trkpt>
      <trkpt lat="45.8625" lon="4.799">
        <ele>438.49349</ele>
        <time>2022-04-19T13:10:39.555Z</time>
      </trkpt>
      <trkpt lat="45.86284" lon="4.79872">
        <ele>441.620609</ele>
        <time>2022-04-19T13:10:55.406Z</time>
      </trkpt>
      <trkpt lat="45.86279" lon="4.79868">
        <ele>442.058042</ele>
        <time>2022-04-19T13:10:57.921Z</time>
      </trkpt>
      <trkpt lat="45.86261" lon="4.79874">
        <ele>443.500576</ele>
        <time>2022-04-19T13:11:06.058Z</time>
      </trkpt>
      <trkpt lat="45.86219" lon="4.7985">
        <ele>447.044325</ele>
        <time>2022-04-19T13:11:27.296Z</time>
      </trkpt>
      <trkpt lat="45.86212" lon="4.79843">
        <ele>447.695854</ele>
        <time>2022-04-19T13:11:30.947Z</time>
      </trkpt>
      <trkpt lat="45.86189" lon="4.79825">
        <ele>449.771181</ele>
        <time>2022-04-19T13:11:41.062Z</time>
      </trkpt>
      <trkpt lat="45.86188" lon="4.79816">
        <ele>450.259552</ele>
        <time>2022-04-19T13:11:43.500Z</time>
      </trkpt>
      <trkpt lat="45.86186" lon="4.798">
        <ele>451.122621</ele>
        <time>2022-04-19T13:11:46.648Z</time>
      </trkpt>
      <trkpt lat="45.86191" lon="4.79784">
        <ele>452.122139</ele>
        <time>2022-04-19T13:11:51.092Z</time>
      </trkpt>
      <trkpt lat="45.86222" lon="4.79768">
        <ele>454.0329</ele>
        <time>2022-04-19T13:12:00.593Z</time>
      </trkpt>
      <trkpt lat="45.86229" lon="4.79757">
        <ele>454.497219</ele>
        <time>2022-04-19T13:12:03.802Z</time>
      </trkpt>
      <trkpt lat="45.86226" lon="4.79749">
        <ele>454.809042</ele>
        <time>2022-04-19T13:12:05.894Z</time>
      </trkpt>
      <trkpt lat="45.86184" lon="4.79725">
        <ele>456.877093</ele>
        <time>2022-04-19T13:12:17.206Z</time>
      </trkpt>
      <trkpt lat="45.86165" lon="4.79713">
        <ele>457.851245</ele>
        <time>2022-04-19T13:12:22.879Z</time>
      </trkpt>
      <trkpt lat="45.86157" lon="4.79708">
        <ele>458.282681</ele>
        <time>2022-04-19T13:12:25.240Z</time>
      </trkpt>
      <trkpt lat="45.86145" lon="4.79702">
        <ele>458.871331</ele>
        <time>2022-04-19T13:12:28.187Z</time>
      </trkpt>
      <trkpt lat="45.86136" lon="4.79697">
        <ele>459.32244</ele>
        <time>2022-04-19T13:12:31.180Z</time>
      </trkpt>
      <trkpt lat="45.86119" lon="4.79687">
        <ele>460.147202</ele>
        <time>2022-04-19T13:12:35.107Z</time>
      </trkpt>
      <trkpt lat="45.86087" lon="4.79655">
        <ele>462.320472</ele>
        <time>2022-04-19T13:12:44.139Z</time>
      </trkpt>
      <trkpt lat="45.86085" lon="4.79651">
        <ele>462.56992</ele>
        <time>2022-04-19T13:12:44.851Z</time>
      </trkpt>
      <trkpt lat="45.86083" lon="4.79648">
        <ele>462.819014</ele>
        <time>2022-04-19T13:12:45.540Z</time>
      </trkpt>
      <trkpt lat="45.86076" lon="4.79633">
        <ele>463.785775</ele>
        <time>2022-04-19T13:12:48.394Z</time>
      </trkpt>
      <trkpt lat="45.86075" lon="4.79628">
        <ele>464.041447</ele>
        <time>2022-04-19T13:12:49.124Z</time>
      </trkpt>
      <trkpt lat="45.86069" lon="4.79614">
        <ele>464.916846</ele>
        <time>2022-04-19T13:12:52.008Z</time>
      </trkpt>
      <trkpt lat="45.86065" lon="4.79602">
        <ele>465.667321</ele>
        <time>2022-04-19T13:12:54.583Z</time>
      </trkpt>
      <trkpt lat="45.86046" lon="4.79557">
        <ele>468.531744</ele>
        <time>2022-04-19T13:13:06.121Z</time>
      </trkpt>
      <trkpt lat="45.86011" lon="4.79496">
        <ele>472.807267</ele>
        <time>2022-04-19T13:13:29.346Z</time>
      </trkpt>
      <trkpt lat="45.85988" lon="4.79466">
        <ele>475.203207</ele>
        <time>2022-04-19T13:13:45.006Z</time>
      </trkpt>
      <trkpt lat="45.85985" lon="4.79462">
        <ele>475.612218</ele>
        <time>2022-04-19T13:13:47.445Z</time>
      </trkpt>
      <trkpt lat="45.85971" lon="4.79437">
        <ele>478.275188</ele>
        <time>2022-04-19T13:13:59.393Z</time>
      </trkpt>
      <trkpt lat="45.85959" lon="4.79413">
        <ele>480.7144</ele>
        <time>2022-04-19T13:14:10.167Z</time>
      </trkpt>
      <trkpt lat="45.85949" lon="4.79398">
        <ele>482.492316</ele>
        <time>2022-04-19T13:14:17.902Z</time>
      </trkpt>
      <trkpt lat="45.85953" lon="4.79374">
        <ele>484.598343</ele>
        <time>2022-04-19T13:14:27.587Z</time>
      </trkpt>
      <trkpt lat="45.85941" lon="4.79348">
        <ele>487.24539</ele>
        <time>2022-04-19T13:14:39.964Z</time>
      </trkpt>
      <trkpt lat="45.85928" lon="4.79301">
        <ele>491.469812</ele>
        <time>2022-04-19T13:14:59.748Z</time>
      </trkpt>
      <trkpt lat="45.85921" lon="4.79279">
        <ele>493.520557</ele>
        <time>2022-04-19T13:15:09.627Z</time>
      </trkpt>
      <trkpt lat="45.85907" lon="4.79252">
        <ele>496.347934</ele>
        <time>2022-04-19T13:15:22.514Z</time>
      </trkpt>
      <trkpt lat="45.85882" lon="4.79215">
        <ele>499.531308</ele>
        <time>2022-04-19T13:15:41.231Z</time>
      </trkpt>
      <trkpt lat="45.8587" lon="4.79196">
        <ele>500.891368</ele>
        <time>2022-04-19T13:15:48.999Z</time>
      </trkpt>
      <trkpt lat="45.85863" lon="4.79185">
        <ele>501.722678</ele>
        <time>2022-04-19T13:15:53.124Z</time>
      </trkpt>
      <trkpt lat="45.85862" lon="4.7917">
        <ele>502.588567</ele>
        <time>2022-04-19T13:15:58.354Z</time>
      </trkpt>
      <trkpt lat="45.85846" lon="4.7911">
        <ele>506.086286</ele>
        <time>2022-04-19T13:16:12.925Z</time>
      </trkpt>
      <trkpt lat="45.8578" lon="4.78888">
        <ele>517.6172</ele>
        <time>2022-04-19T13:17:04.741Z</time>
      </trkpt>
      <trkpt lat="45.85758" lon="4.78844">
        <ele>519.914675</ele>
        <time>2022-04-19T13:17:16.371Z</time>
      </trkpt>
      <trkpt lat="45.85745" lon="4.78828">
        <ele>520.982672</ele>
        <time>2022-04-19T13:17:22.124Z</time>
      </trkpt>
      <trkpt lat="45.85687" lon="4.78759">
        <ele>525.993808</ele>
        <time>2022-04-19T13:17:47.094Z</time>
      </trkpt>
      <trkpt lat="45.85609" lon="4.78664">
        <ele>533.141507</ele>
        <time>2022-04-19T13:18:22.585Z</time>
      </trkpt>
      <trkpt lat="45.85531" lon="4.78589">
        <ele>539.042497</ele>
        <time>2022-04-19T13:18:55.191Z</time>
      </trkpt>
      <trkpt lat="45.8551" lon="4.78571">
        <ele>540.505115</ele>
        <time>2022-04-19T13:19:02.907Z</time>
      </trkpt>
      <trkpt lat="45.85494" lon="4.7856">
        <ele>541.564195</ele>
        <time>2022-04-19T13:19:08.206Z</time>
      </trkpt>
      <trkpt lat="45.85459" lon="4.78533">
        <ele>543.975976</ele>
        <time>2022-04-19T13:19:19.481Z</time>
      </trkpt>
      <trkpt lat="45.85416" lon="4.78505">
        <ele>546.805613</ele>
        <time>2022-04-19T13:19:32.644Z</time>
      </trkpt>
      <trkpt lat="45.85343" lon="4.78487">
        <ele>551.187931</ele>
        <time>2022-04-19T13:19:52.900Z</time>
      </trkpt>
      <trkpt lat="45.85319" lon="4.78466">
        <ele>552.875802</ele>
        <time>2022-04-19T13:20:01.036Z</time>
      </trkpt>
      <trkpt lat="45.85308" lon="4.78445">
        <ele>553.937161</ele>
        <time>2022-04-19T13:20:06.850Z</time>
      </trkpt>
      <trkpt lat="45.85253" lon="4.78345">
        <ele>560.137462</ele>
        <time>2022-04-19T13:20:40.180Z</time>
      </trkpt>
      <trkpt lat="45.85225" lon="4.78309">
        <ele>563.129743</ele>
        <time>2022-04-19T13:20:55.041Z</time>
      </trkpt>
      <trkpt lat="45.85195" lon="4.78275">
        <ele>566.191024</ele>
        <time>2022-04-19T13:21:10.335Z</time>
      </trkpt>
      <trkpt lat="45.85168" lon="4.78257">
        <ele>568.478977</ele>
        <time>2022-04-19T13:21:21.623Z</time>
      </trkpt>
      <trkpt lat="45.85146" lon="4.78251">
        <ele>570.322311</ele>
        <time>2022-04-19T13:21:29.914Z</time>
      </trkpt>
      <trkpt lat="45.85111" lon="4.78254">
        <ele>572.237975</ele>
        <time>2022-04-19T13:21:42.098Z</time>
      </trkpt>
      <trkpt lat="45.85" lon="4.78326">
        <ele>578.382331</ele>
        <time>2022-04-19T13:22:14.942Z</time>
      </trkpt>
      <trkpt lat="45.84976" lon="4.7833">
        <ele>579.558037</ele>
        <time>2022-04-19T13:22:20.181Z</time>
      </trkpt>
      <trkpt lat="45.84953" lon="4.78319">
        <ele>580.486626</ele>
        <time>2022-04-19T13:22:25.698Z</time>
      </trkpt>
      <trkpt lat="45.84925" lon="4.78278">
        <ele>581.895543</ele>
        <time>2022-04-19T13:22:34.659Z</time>
      </trkpt>
      <trkpt lat="45.84918" lon="4.78237">
        <ele>582.927572</ele>
        <time>2022-04-19T13:22:41.484Z</time>
      </trkpt>
      <trkpt lat="45.84922" lon="4.78222">
        <ele>583.304428</ele>
        <time>2022-04-19T13:22:44.013Z</time>
      </trkpt>
      <trkpt lat="45.84938" lon="4.78209">
        <ele>583.970095</ele>
        <time>2022-04-19T13:22:48.935Z</time>
      </trkpt>
      <trkpt lat="45.84954" lon="4.78223">
        <ele>584.632671</ele>
        <time>2022-04-19T13:22:53.407Z</time>
      </trkpt>
      <trkpt lat="45.84981" lon="4.78272">
        <ele>586.133469</ele>
        <time>2022-04-19T13:23:03.121Z</time>
      </trkpt>
      <trkpt lat="45.84999" lon="4.78275">
        <ele>586.411419</ele>
        <time>2022-04-19T13:23:06.975Z</time>
      </trkpt>
      <trkpt lat="45.85011" lon="4.78254">
        <ele>586.705284</ele>
        <time>2022-04-19T13:23:10.928Z</time>
      </trkpt>
      <trkpt lat="45.85008" lon="4.78239">
        <ele>586.877727</ele>
        <time>2022-04-19T13:23:13.244Z</time>
      </trkpt>
      <trkpt lat="45.84984" lon="4.78197">
        <ele>587.452076</ele>
        <time>2022-04-19T13:23:19.953Z</time>
      </trkpt>
      <trkpt lat="45.84974" lon="4.78182">
        <ele>587.670823</ele>
        <time>2022-04-19T13:23:22.105Z</time>
      </trkpt>
      <trkpt lat="45.84961" lon="4.78166">
        <ele>587.938597</ele>
        <time>2022-04-19T13:23:24.414Z</time>
      </trkpt>
      <trkpt lat="45.84959" lon="4.78163">
        <ele>587.987103</ele>
        <time>2022-04-19T13:23:24.876Z</time>
      </trkpt>
      <trkpt lat="45.84922" lon="4.78101">
        <ele>588.854545</ele>
        <time>2022-04-19T13:23:32.167Z</time>
      </trkpt>
      <trkpt lat="45.84902" lon="4.78085">
        <ele>588.887742</ele>
        <time>2022-04-19T13:23:35.459Z</time>
      </trkpt>
      <trkpt lat="45.84899" lon="4.78083">
        <ele>588.888945</ele>
        <time>2022-04-19T13:23:35.715Z</time>
      </trkpt>
      <trkpt lat="45.84851" lon="4.78043">
        <ele>588.912129</ele>
        <time>2022-04-19T13:23:43.940Z</time>
      </trkpt>
      <trkpt lat="45.84807" lon="4.78021">
        <ele>588.931376</ele>
        <time>2022-04-19T13:23:51.219Z</time>
      </trkpt>
      <trkpt lat="45.84773" lon="4.78019">
        <ele>588.945467</ele>
        <time>2022-04-19T13:23:55.552Z</time>
      </trkpt>
      <trkpt lat="45.84689" lon="4.78029">
        <ele>586.253592</ele>
        <time>2022-04-19T13:24:02.429Z</time>
      </trkpt>
      <trkpt lat="45.84686" lon="4.78018">
        <ele>585.892399</ele>
        <time>2022-04-19T13:24:03.060Z</time>
      </trkpt>
      <trkpt lat="45.8468" lon="4.78015">
        <ele>585.609896</ele>
        <time>2022-04-19T13:24:03.569Z</time>
      </trkpt>
      <trkpt lat="45.8468" lon="4.78003">
        <ele>585.259081</ele>
        <time>2022-04-19T13:24:04.200Z</time>
      </trkpt>
      <trkpt lat="45.84682" lon="4.7798">
        <ele>584.584352</ele>
        <time>2022-04-19T13:24:05.437Z</time>
      </trkpt>
      <trkpt lat="45.84693" lon="4.77948">
        <ele>583.55133</ele>
        <time>2022-04-19T13:24:07.326Z</time>
      </trkpt>
      <trkpt lat="45.84729" lon="4.77876">
        <ele>580.711551</ele>
        <time>2022-04-19T13:24:11.986Z</time>
      </trkpt>
      <trkpt lat="45.84735" lon="4.77856">
        <ele>579.754989</ele>
        <time>2022-04-19T13:24:13.096Z</time>
      </trkpt>
      <trkpt lat="45.84729" lon="4.77832">
        <ele>578.619903</ele>
        <time>2022-04-19T13:24:14.362Z</time>
      </trkpt>
      <trkpt lat="45.8471" lon="4.77833">
        <ele>577.413725</ele>
        <time>2022-04-19T13:24:15.716Z</time>
      </trkpt>
      <trkpt lat="45.84682" lon="4.77897">
        <ele>574.061513</ele>
        <time>2022-04-19T13:24:19.436Z</time>
      </trkpt>
      <trkpt lat="45.84666" lon="4.77922">
        <ele>572.507427</ele>
        <time>2022-04-19T13:24:21.197Z</time>
      </trkpt>
      <trkpt lat="45.84649" lon="4.77923">
        <ele>571.428268</ele>
        <time>2022-04-19T13:24:22.407Z</time>
      </trkpt>
      <trkpt lat="45.8464" lon="4.77904">
        <ele>570.404868</ele>
        <time>2022-04-19T13:24:23.610Z</time>
      </trkpt>
      <trkpt lat="45.84645" lon="4.77884">
        <ele>569.362458</ele>
        <time>2022-04-19T13:24:24.691Z</time>
      </trkpt>
      <trkpt lat="45.84682" lon="4.77833">
        <ele>565.419469</ele>
        <time>2022-04-19T13:24:28.502Z</time>
      </trkpt>
      <trkpt lat="45.84726" lon="4.77702">
        <ele>557.592218</ele>
        <time>2022-04-19T13:24:35.615Z</time>
      </trkpt>
      <trkpt lat="45.84727" lon="4.77681">
        <ele>556.485701</ele>
        <time>2022-04-19T13:24:36.603Z</time>
      </trkpt>
      <trkpt lat="45.84718" lon="4.77641">
        <ele>553.841094</ele>
        <time>2022-04-19T13:24:38.642Z</time>
      </trkpt>
      <trkpt lat="45.84686" lon="4.77568">
        <ele>548.192338</ele>
        <time>2022-04-19T13:24:42.848Z</time>
      </trkpt>
      <trkpt lat="45.84666" lon="4.7756">
        <ele>546.245429</ele>
        <time>2022-04-19T13:24:44.271Z</time>
      </trkpt>
      <trkpt lat="45.84624" lon="4.77564">
        <ele>542.34632</ele>
        <time>2022-04-19T13:24:47.173Z</time>
      </trkpt>
      <trkpt lat="45.846" lon="4.77573">
        <ele>540.060483</ele>
        <time>2022-04-19T13:24:48.904Z</time>
      </trkpt>
      <trkpt lat="45.84573" lon="4.77582">
        <ele>537.758879</ele>
        <time>2022-04-19T13:24:50.869Z</time>
      </trkpt>
      <trkpt lat="45.84534" lon="4.77607">
        <ele>534.397669</ele>
        <time>2022-04-19T13:24:53.859Z</time>
      </trkpt>
      <trkpt lat="45.84525" lon="4.77624">
        <ele>533.205158</ele>
        <time>2022-04-19T13:24:54.898Z</time>
      </trkpt>
      <trkpt lat="45.84524" lon="4.77695">
        <ele>529.328255</ele>
        <time>2022-04-19T13:24:58.409Z</time>
      </trkpt>
      <trkpt lat="45.84518" lon="4.77729">
        <ele>527.403232</ele>
        <time>2022-04-19T13:25:00.109Z</time>
      </trkpt>
      <trkpt lat="45.84508" lon="4.77752">
        <ele>525.916578</ele>
        <time>2022-04-19T13:25:01.465Z</time>
      </trkpt>
      <trkpt lat="45.84415" lon="4.77833">
        <ele>519.56838</ele>
        <time>2022-04-19T13:25:09.366Z</time>
      </trkpt>
      <trkpt lat="45.84362" lon="4.77886">
        <ele>515.935217</ele>
        <time>2022-04-19T13:25:14.484Z</time>
      </trkpt>
      <trkpt lat="45.84348" lon="4.77883">
        <ele>515.121602</ele>
        <time>2022-04-19T13:25:15.619Z</time>
      </trkpt>
      <trkpt lat="45.8434" lon="4.77872">
        <ele>514.572135</ele>
        <time>2022-04-19T13:25:16.405Z</time>
      </trkpt>
      <trkpt lat="45.84337" lon="4.77853">
        <ele>513.842428</ele>
        <time>2022-04-19T13:25:17.448Z</time>
      </trkpt>
      <trkpt lat="45.84343" lon="4.77833">
        <ele>513.061258</ele>
        <time>2022-04-19T13:25:18.587Z</time>
      </trkpt>
      <trkpt lat="45.84386" lon="4.77788">
        <ele>510.273963</ele>
        <time>2022-04-19T13:25:22.583Z</time>
      </trkpt>
      <trkpt lat="45.84392" lon="4.77754">
        <ele>509.028997</ele>
        <time>2022-04-19T13:25:24.371Z</time>
      </trkpt>
      <trkpt lat="45.84379" lon="4.77726">
        <ele>507.829052</ele>
        <time>2022-04-19T13:25:26.095Z</time>
      </trkpt>
      <trkpt lat="45.84352" lon="4.777">
        <ele>506.117584</ele>
        <time>2022-04-19T13:25:28.547Z</time>
      </trkpt>
      <trkpt lat="45.843" lon="4.77672">
        <ele>502.992135</ele>
        <time>2022-04-19T13:25:32.690Z</time>
      </trkpt>
      <trkpt lat="45.84224" lon="4.77679">
        <ele>498.692712</ele>
        <time>2022-04-19T13:25:38.202Z</time>
      </trkpt>
      <trkpt lat="45.84177" lon="4.77653">
        <ele>495.822065</ele>
        <time>2022-04-19T13:25:41.890Z</time>
      </trkpt>
      <trkpt lat="45.84166" lon="4.77655">
        <ele>495.290727</ele>
        <time>2022-04-19T13:25:42.703Z</time>
      </trkpt>
      <trkpt lat="45.84158" lon="4.77684">
        <ele>494.471892</ele>
        <time>2022-04-19T13:25:44.357Z</time>
      </trkpt>
      <trkpt lat="45.84163" lon="4.77698">
        <ele>494.052277</ele>
        <time>2022-04-19T13:25:45.262Z</time>
      </trkpt>
      <trkpt lat="45.84172" lon="4.77706">
        <ele>493.665602</ele>
        <time>2022-04-19T13:25:46.106Z</time>
      </trkpt>
      <trkpt lat="45.84213" lon="4.77721">
        <ele>492.062577</ele>
        <time>2022-04-19T13:25:49.595Z</time>
      </trkpt>
      <trkpt lat="45.8423" lon="4.77748">
        <ele>491.103997</ele>
        <time>2022-04-19T13:25:51.757Z</time>
      </trkpt>
      <trkpt lat="45.84232" lon="4.77772">
        <ele>490.456787</ele>
        <time>2022-04-19T13:25:53.175Z</time>
      </trkpt>
      <trkpt lat="45.84226" lon="4.77791">
        <ele>489.901255</ele>
        <time>2022-04-19T13:25:54.512Z</time>
      </trkpt>
      <trkpt lat="45.8418" lon="4.77847">
        <ele>487.264371</ele>
        <time>2022-04-19T13:25:59.108Z</time>
      </trkpt>
      <trkpt lat="45.84132" lon="4.77932">
        <ele>483.365816</ele>
        <time>2022-04-19T13:26:04.746Z</time>
      </trkpt>
      <trkpt lat="45.84122" lon="4.77941">
        <ele>482.76294</ele>
        <time>2022-04-19T13:26:05.632Z</time>
      </trkpt>
      <trkpt lat="45.84102" lon="4.77937">
        <ele>481.729571</ele>
        <time>2022-04-19T13:26:07.301Z</time>
      </trkpt>
      <trkpt lat="45.84092" lon="4.77914">
        <ele>480.748681</ele>
        <time>2022-04-19T13:26:08.714Z</time>
      </trkpt>
      <trkpt lat="45.84094" lon="4.77898">
        <ele>480.175476</ele>
        <time>2022-04-19T13:26:09.610Z</time>
      </trkpt>
      <trkpt lat="45.8412" lon="4.77836">
        <ele>477.336511</ele>
        <time>2022-04-19T13:26:13.256Z</time>
      </trkpt>
      <trkpt lat="45.84123" lon="4.7778">
        <ele>475.042121</ele>
        <time>2022-04-19T13:26:16.100Z</time>
      </trkpt>
      <trkpt lat="45.84119" lon="4.77763">
        <ele>474.276546</ele>
        <time>2022-04-19T13:26:17.090Z</time>
      </trkpt>
      <trkpt lat="45.84103" lon="4.77749">
        <ele>473.18371</ele>
        <time>2022-04-19T13:26:18.411Z</time>
      </trkpt>
      <trkpt lat="45.84084" lon="4.77756">
        <ele>472.030865</ele>
        <time>2022-04-19T13:26:19.887Z</time>
      </trkpt>
      <trkpt lat="45.84076" lon="4.77775">
        <ele>471.115349</ele>
        <time>2022-04-19T13:26:21.011Z</time>
      </trkpt>
      <trkpt lat="45.84048" lon="4.77893">
        <ele>465.149764</ele>
        <time>2022-04-19T13:26:27.524Z</time>
      </trkpt>
      <trkpt lat="45.84036" lon="4.77908">
        <ele>463.937379</ele>
        <time>2022-04-19T13:26:28.650Z</time>
      </trkpt>
      <trkpt lat="45.84015" lon="4.77902">
        <ele>462.245884</ele>
        <time>2022-04-19T13:26:30.227Z</time>
      </trkpt>
      <trkpt lat="45.84008" lon="4.77882">
        <ele>461.063118</ele>
        <time>2022-04-19T13:26:31.295Z</time>
      </trkpt>
      <trkpt lat="45.8401" lon="4.77863">
        <ele>460.035264</ele>
        <time>2022-04-19T13:26:32.229Z</time>
      </trkpt>
      <trkpt lat="45.84024" lon="4.77836">
        <ele>458.233126</ele>
        <time>2022-04-19T13:26:33.891Z</time>
      </trkpt>
      <trkpt lat="45.84026" lon="4.77821">
        <ele>457.422801</ele>
        <time>2022-04-19T13:26:34.624Z</time>
      </trkpt>
      <trkpt lat="45.84023" lon="4.77806">
        <ele>456.56929</ele>
        <time>2022-04-19T13:26:35.415Z</time>
      </trkpt>
      <trkpt lat="45.8401" lon="4.77795">
        <ele>455.369445</ele>
        <time>2022-04-19T13:26:36.494Z</time>
      </trkpt>
      <trkpt lat="45.8395" lon="4.77797">
        <ele>449.776885</ele>
        <time>2022-04-19T13:26:40.633Z</time>
      </trkpt>
      <trkpt lat="45.83872" lon="4.77803">
        <ele>442.409996</ele>
        <time>2022-04-19T13:26:46.023Z</time>
      </trkpt>
      <trkpt lat="45.83852" lon="4.77798">
        <ele>440.522256</ele>
        <time>2022-04-19T13:26:47.409Z</time>
      </trkpt>
      <trkpt lat="45.83835" lon="4.77779">
        <ele>438.492113</ele>
        <time>2022-04-19T13:26:48.920Z</time>
      </trkpt>
      <trkpt lat="45.83816" lon="4.77736">
        <ele>435.676326</ele>
        <time>2022-04-19T13:26:51.423Z</time>
      </trkpt>
      <trkpt lat="45.83776" lon="4.77576">
        <ele>426.591393</ele>
        <time>2022-04-19T13:26:59.738Z</time>
      </trkpt>
      <trkpt lat="45.8377" lon="4.77514">
        <ele>423.600598</ele>
        <time>2022-04-19T13:27:03.055Z</time>
      </trkpt>
      <trkpt lat="45.83765" lon="4.77496">
        <ele>422.88961</ele>
        <time>2022-04-19T13:27:04.088Z</time>
      </trkpt>
      <trkpt lat="45.83755" lon="4.77485">
        <ele>422.21549</ele>
        <time>2022-04-19T13:27:05.018Z</time>
      </trkpt>
      <trkpt lat="45.83751" lon="4.77458">
        <ele>421.196082</ele>
        <time>2022-04-19T13:27:06.599Z</time>
      </trkpt>
      <trkpt lat="45.83754" lon="4.77435">
        <ele>420.368593</ele>
        <time>2022-04-19T13:27:07.731Z</time>
      </trkpt>
      <trkpt lat="45.83798" lon="4.77369">
        <ele>417.062538</ele>
        <time>2022-04-19T13:27:12.508Z</time>
      </trkpt>
      <trkpt lat="45.83815" lon="4.77337">
        <ele>415.605166</ele>
        <time>2022-04-19T13:27:14.710Z</time>
      </trkpt>
      <trkpt lat="45.83813" lon="4.77324">
        <ele>415.094038</ele>
        <time>2022-04-19T13:27:15.398Z</time>
      </trkpt>
      <trkpt lat="45.83793" lon="4.77289">
        <ele>413.107569</ele>
        <time>2022-04-19T13:27:17.812Z</time>
      </trkpt>
      <trkpt lat="45.83769" lon="4.77216">
        <ele>409.374578</ele>
        <time>2022-04-19T13:27:22.085Z</time>
      </trkpt>
      <trkpt lat="45.83767" lon="4.7719">
        <ele>408.15477</ele>
        <time>2022-04-19T13:27:23.392Z</time>
      </trkpt>
      <trkpt lat="45.8377" lon="4.77169">
        <ele>407.169074</ele>
        <time>2022-04-19T13:27:24.453Z</time>
      </trkpt>
      <trkpt lat="45.8376" lon="4.77166">
        <ele>406.525206</ele>
        <time>2022-04-19T13:27:25.145Z</time>
      </trkpt>
      <trkpt lat="45.83735" lon="4.77155">
        <ele>404.751005</ele>
        <time>2022-04-19T13:27:26.998Z</time>
      </trkpt>
      <trkpt lat="45.83713" lon="4.77149">
        <ele>403.296107</ele>
        <time>2022-04-19T13:27:28.543Z</time>
      </trkpt>
      <trkpt lat="45.8363" lon="4.77145">
        <ele>396.910721</ele>
        <time>2022-04-19T13:27:34.416Z</time>
      </trkpt>
      <trkpt lat="45.83611" lon="4.77145">
        <ele>395.496009</ele>
        <time>2022-04-19T13:27:35.700Z</time>
      </trkpt>
      <trkpt lat="45.83587" lon="4.77144">
        <ele>393.650354</ele>
        <time>2022-04-19T13:27:37.399Z</time>
      </trkpt>
      <trkpt lat="45.83578" lon="4.77143">
        <ele>392.964768</ele>
        <time>2022-04-19T13:27:38.028Z</time>
      </trkpt>
      <trkpt lat="45.83529" lon="4.77141">
        <ele>389.174728</ele>
        <time>2022-04-19T13:27:41.595Z</time>
      </trkpt>
      <trkpt lat="45.83474" lon="4.77141">
        <ele>386.945392</ele>
        <time>2022-04-19T13:27:45.664Z</time>
      </trkpt>
      <trkpt lat="45.83297" lon="4.77136">
        <ele>380.166963</ele>
        <time>2022-04-19T13:28:00.026Z</time>
      </trkpt>
      <trkpt lat="45.83296" lon="4.77123">
        <ele>379.874008</ele>
        <time>2022-04-19T13:28:00.940Z</time>
      </trkpt>
      <trkpt lat="45.83287" lon="4.77123">
        <ele>379.595223</ele>
        <time>2022-04-19T13:28:01.677Z</time>
      </trkpt>
      <trkpt lat="45.83286" lon="4.77137">
        <ele>379.28549</ele>
        <time>2022-04-19T13:28:02.437Z</time>
      </trkpt>
      <trkpt lat="45.83211" lon="4.77137">
        <ele>376.900626</ele>
        <time>2022-04-19T13:28:08.652Z</time>
      </trkpt>
      <trkpt lat="45.8306" lon="4.77136">
        <ele>370.973356</ele>
        <time>2022-04-19T13:28:20.476Z</time>
      </trkpt>
      <trkpt lat="45.83055" lon="4.77138">
        <ele>370.771961</ele>
        <time>2022-04-19T13:28:20.815Z</time>
      </trkpt>
      <trkpt lat="45.82915" lon="4.77186">
        <ele>365.197731</ele>
        <time>2022-04-19T13:28:31.976Z</time>
      </trkpt>
      <trkpt lat="45.82723" lon="4.77254">
        <ele>358.728624</ele>
        <time>2022-04-19T13:28:48.077Z</time>
      </trkpt>
      <trkpt lat="45.82514" lon="4.77329">
        <ele>352.668853</ele>
        <time>2022-04-19T13:29:06.382Z</time>
      </trkpt>
      <trkpt lat="45.82457" lon="4.7735">
        <ele>350.54188</ele>
        <time>2022-04-19T13:29:10.976Z</time>
      </trkpt>
      <trkpt lat="45.82283" lon="4.77414">
        <ele>342.16849</ele>
        <time>2022-04-19T13:29:24.573Z</time>
      </trkpt>
      <trkpt lat="45.82274" lon="4.77417">
        <ele>341.771156</ele>
        <time>2022-04-19T13:29:25.226Z</time>
      </trkpt>
      <trkpt lat="45.82046" lon="4.77498">
        <ele>331.911402</ele>
        <time>2022-04-19T13:29:43.361Z</time>
      </trkpt>
      <trkpt lat="45.82006" lon="4.7751">
        <ele>330.450151</ele>
        <time>2022-04-19T13:29:46.629Z</time>
      </trkpt>
      <trkpt lat="45.81903" lon="4.77536">
        <ele>327.901767</ele>
        <time>2022-04-19T13:29:55.412Z</time>
      </trkpt>
      <trkpt lat="45.81791" lon="4.77567">
        <ele>326.181775</ele>
        <time>2022-04-19T13:30:06.402Z</time>
      </trkpt>
      <trkpt lat="45.81681" lon="4.77596">
        <ele>325.554068</ele>
        <time>2022-04-19T13:30:18.966Z</time>
      </trkpt>
      <trkpt lat="45.81449" lon="4.77659">
        <ele>323.843388</ele>
        <time>2022-04-19T13:30:43.262Z</time>
      </trkpt>
      <trkpt lat="45.81401" lon="4.77669">
        <ele>323.178234</ele>
        <time>2022-04-19T13:30:47.740Z</time>
      </trkpt>
      <trkpt lat="45.81378" lon="4.77672">
        <ele>322.77407</ele>
        <time>2022-04-19T13:30:49.876Z</time>
      </trkpt>
      <trkpt lat="45.81371" lon="4.77662">
        <ele>322.611904</ele>
        <time>2022-04-19T13:30:50.688Z</time>
      </trkpt>
      <trkpt lat="45.81373" lon="4.77652">
        <ele>322.479581</ele>
        <time>2022-04-19T13:30:51.415Z</time>
      </trkpt>
      <trkpt lat="45.81367" lon="4.7763">
        <ele>322.196954</ele>
        <time>2022-04-19T13:30:52.862Z</time>
      </trkpt>
      <trkpt lat="45.81357" lon="4.77622">
        <ele>321.987103</ele>
        <time>2022-04-19T13:30:53.918Z</time>
      </trkpt>
      <trkpt lat="45.81345" lon="4.77624">
        <ele>321.777105</ele>
        <time>2022-04-19T13:30:55.023Z</time>
      </trkpt>
      <trkpt lat="45.81336" lon="4.77636">
        <ele>321.566903</ele>
        <time>2022-04-19T13:30:56.051Z</time>
      </trkpt>
      <trkpt lat="45.81333" lon="4.77653">
        <ele>321.355665</ele>
        <time>2022-04-19T13:30:57.092Z</time>
      </trkpt>
      <trkpt lat="45.81327" lon="4.77664">
        <ele>321.178691</ele>
        <time>2022-04-19T13:30:58.014Z</time>
      </trkpt>
      <trkpt lat="45.81232" lon="4.77735">
        <ele>319.017095</ele>
        <time>2022-04-19T13:31:07.474Z</time>
      </trkpt>
      <trkpt lat="45.8122" lon="4.77743">
        <ele>318.725786</ele>
        <time>2022-04-19T13:31:08.680Z</time>
      </trkpt>
      <trkpt lat="45.80976" lon="4.7789">
        <ele>312.088938</ele>
        <time>2022-04-19T13:31:31.118Z</time>
      </trkpt>
      <trkpt lat="45.80963" lon="4.77898">
        <ele>311.676542</ele>
        <time>2022-04-19T13:31:32.218Z</time>
      </trkpt>
      <trkpt lat="45.80858" lon="4.77957">
        <ele>307.546082</ele>
        <time>2022-04-19T13:31:41.016Z</time>
      </trkpt>
      <trkpt lat="45.80765" lon="4.7801">
        <ele>304.189741</ele>
        <time>2022-04-19T13:31:48.993Z</time>
      </trkpt>
      <trkpt lat="45.80738" lon="4.78026">
        <ele>303.399329</ele>
        <time>2022-04-19T13:31:51.376Z</time>
      </trkpt>
      <trkpt lat="45.8073" lon="4.78031">
        <ele>303.167834</ele>
        <time>2022-04-19T13:31:52.082Z</time>
      </trkpt>
      <trkpt lat="45.8072" lon="4.78037">
        <ele>302.861714</ele>
        <time>2022-04-19T13:31:53.013Z</time>
      </trkpt>
      <trkpt lat="45.80718" lon="4.78031">
        <ele>302.733246</ele>
        <time>2022-04-19T13:31:56.337Z</time>
      </trkpt>
      <trkpt lat="45.80717" lon="4.78027">
        <ele>302.65561</ele>
        <time>2022-04-19T13:31:58.326Z</time>
      </trkpt>
      <trkpt lat="45.80697" lon="4.78042">
        <ele>302.060861</ele>
        <time>2022-04-19T13:32:13.562Z</time>
      </trkpt>
      <trkpt lat="45.80717" lon="4.78027">
        <ele>301.466112</ele>
        <time>2022-04-19T13:32:28.798Z</time>
      </trkpt>
      <trkpt lat="45.80718" lon="4.78031">
        <ele>301.388476</ele>
        <time>2022-04-19T13:32:30.787Z</time>
      </trkpt>
      <trkpt lat="45.8072" lon="4.78037">
        <ele>301.260008</ele>
        <time>2022-04-19T13:32:34.111Z</time>
      </trkpt>
      <trkpt lat="45.8069" lon="4.78055">
        <ele>300.394772</ele>
        <time>2022-04-19T13:32:36.903Z</time>
      </trkpt>
      <trkpt lat="45.80646" lon="4.78082">
        <ele>299.720061</ele>
        <time>2022-04-19T13:32:41.126Z</time>
      </trkpt>
      <trkpt lat="45.80606" lon="4.78106">
        <ele>299.136827</ele>
        <time>2022-04-19T13:32:45.242Z</time>
      </trkpt>
      <trkpt lat="45.80586" lon="4.78118">
        <ele>298.850267</ele>
        <time>2022-04-19T13:32:47.334Z</time>
      </trkpt>
      <trkpt lat="45.80498" lon="4.78173">
        <ele>297.72086</ele>
        <time>2022-04-19T13:32:56.692Z</time>
      </trkpt>
      <trkpt lat="45.80439" lon="4.78225">
        <ele>297.187803</ele>
        <time>2022-04-19T13:33:03.861Z</time>
      </trkpt>
      <trkpt lat="45.80392" lon="4.78271">
        <ele>296.748469</ele>
        <time>2022-04-19T13:33:09.957Z</time>
      </trkpt>
      <trkpt lat="45.80383" lon="4.78279">
        <ele>296.669395</ele>
        <time>2022-04-19T13:33:11.039Z</time>
      </trkpt>
      <trkpt lat="45.80279" lon="4.784">
        <ele>294.441645</ele>
        <time>2022-04-19T13:33:23.840Z</time>
      </trkpt>
      <trkpt lat="45.80183" lon="4.78506">
        <ele>291.439149</ele>
        <time>2022-04-19T13:33:33.748Z</time>
      </trkpt>
      <trkpt lat="45.80173" lon="4.78514">
        <ele>291.071464</ele>
        <time>2022-04-19T13:33:34.638Z</time>
      </trkpt>
      <trkpt lat="45.80162" lon="4.78508">
        <ele>290.67469</ele>
        <time>2022-04-19T13:33:35.653Z</time>
      </trkpt>
      <trkpt lat="45.80149" lon="4.78513">
        <ele>290.253837</ele>
        <time>2022-04-19T13:33:36.693Z</time>
      </trkpt>
      <trkpt lat="45.80142" lon="4.78526">
        <ele>289.888211</ele>
        <time>2022-04-19T13:33:37.578Z</time>
      </trkpt>
      <trkpt lat="45.80141" lon="4.78542">
        <ele>289.522399</ele>
        <time>2022-04-19T13:33:38.520Z</time>
      </trkpt>
      <trkpt lat="45.80133" lon="4.78557">
        <ele>289.102779</ele>
        <time>2022-04-19T13:33:39.584Z</time>
      </trkpt>
      <trkpt lat="45.8012" lon="4.78574">
        <ele>288.543586</ele>
        <time>2022-04-19T13:33:40.960Z</time>
      </trkpt>
      <trkpt lat="45.80068" lon="4.78632">
        <ele>286.799938</ele>
        <time>2022-04-19T13:33:46.281Z</time>
      </trkpt>
      <trkpt lat="45.80018" lon="4.78687">
        <ele>285.479643</ele>
        <time>2022-04-19T13:33:51.631Z</time>
      </trkpt>
      <trkpt lat="45.80011" lon="4.78695">
        <ele>285.290218</ele>
        <time>2022-04-19T13:33:52.433Z</time>
      </trkpt>
      <trkpt lat="45.79997" lon="4.78711">
        <ele>284.917287</ele>
        <time>2022-04-19T13:33:54.087Z</time>
      </trkpt>
      <trkpt lat="45.79973" lon="4.78741">
        <ele>284.246224</ele>
        <time>2022-04-19T13:33:57.181Z</time>
      </trkpt>
      <trkpt lat="45.79962" lon="4.78752">
        <ele>283.976871</ele>
        <time>2022-04-19T13:33:58.452Z</time>
      </trkpt>
      <trkpt lat="45.7985" lon="4.78876">
        <ele>282.676468</ele>
        <time>2022-04-19T13:34:12.392Z</time>
      </trkpt>
      <trkpt lat="45.79846" lon="4.78881">
        <ele>282.633566</ele>
        <time>2022-04-19T13:34:12.937Z</time>
      </trkpt>
      <trkpt lat="45.79832" lon="4.78896">
        <ele>282.494323</ele>
        <time>2022-04-19T13:34:14.841Z</time>
      </trkpt>
      <trkpt lat="45.79816" lon="4.78913">
        <ele>282.333933</ele>
        <time>2022-04-19T13:34:17.016Z</time>
      </trkpt>
      <trkpt lat="45.79683" lon="4.79059">
        <ele>281.635623</ele>
        <time>2022-04-19T13:34:35.092Z</time>
      </trkpt>
      <trkpt lat="45.79646" lon="4.791">
        <ele>281.35609</ele>
        <time>2022-04-19T13:34:40.291Z</time>
      </trkpt>
      <trkpt lat="45.79622" lon="4.79127">
        <ele>281.128726</ele>
        <time>2022-04-19T13:34:43.726Z</time>
      </trkpt>
      <trkpt lat="45.79495" lon="4.79267">
        <ele>279.140058</ele>
        <time>2022-04-19T13:34:59.575Z</time>
      </trkpt>
      <trkpt lat="45.7948" lon="4.79281">
        <ele>278.634863</ele>
        <time>2022-04-19T13:35:01.169Z</time>
      </trkpt>
      <trkpt lat="45.79452" lon="4.79313">
        <ele>277.630687</ele>
        <time>2022-04-19T13:35:04.151Z</time>
      </trkpt>
      <trkpt lat="45.79446" lon="4.7932">
        <ele>277.400327</ele>
        <time>2022-04-19T13:35:04.805Z</time>
      </trkpt>
      <trkpt lat="45.79438" lon="4.79328">
        <ele>277.135619</ele>
        <time>2022-04-19T13:35:05.555Z</time>
      </trkpt>
      <trkpt lat="45.79435" lon="4.79332">
        <ele>276.998675</ele>
        <time>2022-04-19T13:35:05.947Z</time>
      </trkpt>
      <trkpt lat="45.79403" lon="4.79365">
        <ele>275.893875</ele>
        <time>2022-04-19T13:35:09.027Z</time>
      </trkpt>
      <trkpt lat="45.79354" lon="4.7942">
        <ele>273.487509</ele>
        <time>2022-04-19T13:35:13.781Z</time>
      </trkpt>
      <trkpt lat="45.79205" lon="4.79583">
        <ele>266.097924</ele>
        <time>2022-04-19T13:35:27.955Z</time>
      </trkpt>
      <trkpt lat="45.79193" lon="4.79596">
        <ele>265.836846</ele>
        <time>2022-04-19T13:35:29.296Z</time>
      </trkpt>
      <trkpt lat="45.79175" lon="4.79616">
        <ele>265.458956</ele>
        <time>2022-04-19T13:35:31.310Z</time>
      </trkpt>
      <trkpt lat="45.79162" lon="4.7964">
        <ele>265.104395</ele>
        <time>2022-04-19T13:35:33.339Z</time>
      </trkpt>
      <trkpt lat="45.79158" lon="4.79651">
        <ele>264.952837</ele>
        <time>2022-04-19T13:35:34.257Z</time>
      </trkpt>
      <trkpt lat="45.7914" lon="4.79657">
        <ele>264.639397</ele>
        <time>2022-04-19T13:35:36.297Z</time>
      </trkpt>
      <trkpt lat="45.79134" lon="4.79659">
        <ele>264.539626</ele>
        <time>2022-04-19T13:35:36.978Z</time>
      </trkpt>
      <trkpt lat="45.7913" lon="4.79661">
        <ele>264.477997</ele>
        <time>2022-04-19T13:35:37.417Z</time>
      </trkpt>
      <trkpt lat="45.79112" lon="4.7968">
        <ele>264.093644</ele>
        <time>2022-04-19T13:35:40.399Z</time>
      </trkpt>
      <trkpt lat="45.79098" lon="4.79691">
        <ele>263.831224</ele>
        <time>2022-04-19T13:35:42.615Z</time>
      </trkpt>
      <trkpt lat="45.79063" lon="4.7972">
        <ele>263.959347</ele>
        <time>2022-04-19T13:35:48.608Z</time>
      </trkpt>
      <trkpt lat="45.78996" lon="4.79747">
        <ele>264.258049</ele>
        <time>2022-04-19T13:35:59.004Z</time>
      </trkpt>
      <trkpt lat="45.78984" lon="4.79749">
        <ele>264.309018</ele>
        <time>2022-04-19T13:36:00.804Z</time>
      </trkpt>
      <trkpt lat="45.78986" lon="4.79766">
        <ele>264.360971</ele>
        <time>2022-04-19T13:36:02.221Z</time>
      </trkpt>
      <trkpt lat="45.78983" lon="4.798">
        <ele>264.464293</ele>
        <time>2022-04-19T13:36:05.513Z</time>
      </trkpt>
      <trkpt lat="45.78976" lon="4.79824">
        <ele>264.543582</ele>
        <time>2022-04-19T13:36:07.499Z</time>
      </trkpt>
      <trkpt lat="45.78928" lon="4.79934">
        <ele>261.699572</ele>
        <time>2022-04-19T13:36:16.189Z</time>
      </trkpt>
      <trkpt lat="45.7892" lon="4.79954">
        <ele>261.137078</ele>
        <time>2022-04-19T13:36:17.488Z</time>
      </trkpt>
      <trkpt lat="45.78911" lon="4.79979">
        <ele>260.473807</ele>
        <time>2022-04-19T13:36:19.070Z</time>
      </trkpt>
      <trkpt lat="45.78889" lon="4.80028">
        <ele>259.093083</ele>
        <time>2022-04-19T13:36:22.036Z</time>
      </trkpt>
      <trkpt lat="45.78882" lon="4.80046">
        <ele>258.59227</ele>
        <time>2022-04-19T13:36:23.081Z</time>
      </trkpt>
      <trkpt lat="45.78875" lon="4.80062">
        <ele>257.713077</ele>
        <time>2022-04-19T13:36:24.020Z</time>
      </trkpt>
      <trkpt lat="45.78869" lon="4.80078">
        <ele>256.565593</ele>
        <time>2022-04-19T13:36:24.958Z</time>
      </trkpt>
      <trkpt lat="45.7884" lon="4.80139">
        <ele>252.087808</ele>
        <time>2022-04-19T13:36:28.537Z</time>
      </trkpt>
      <trkpt lat="45.78827" lon="4.80154">
        <ele>250.582762</ele>
        <time>2022-04-19T13:36:29.752Z</time>
      </trkpt>
      <trkpt lat="45.78794" lon="4.80176">
        <ele>247.364405</ele>
        <time>2022-04-19T13:36:32.289Z</time>
      </trkpt>
      <trkpt lat="45.78774" lon="4.80177">
        <ele>245.626784</ele>
        <time>2022-04-19T13:36:33.640Z</time>
      </trkpt>
      <trkpt lat="45.78718" lon="4.8016">
        <ele>239.783853</ele>
        <time>2022-04-19T13:36:37.541Z</time>
      </trkpt>
      <trkpt lat="45.78686" lon="4.80147">
        <ele>235.559089</ele>
        <time>2022-04-19T13:36:39.861Z</time>
      </trkpt>
      <trkpt lat="45.78619" lon="4.80119">
        <ele>226.9054</ele>
        <time>2022-04-19T13:36:44.563Z</time>
      </trkpt>
      <trkpt lat="45.78604" lon="4.80112">
        <ele>224.932474</ele>
        <time>2022-04-19T13:36:45.602Z</time>
      </trkpt>
      <trkpt lat="45.78596" lon="4.80107">
        <ele>223.829947</ele>
        <time>2022-04-19T13:36:46.196Z</time>
      </trkpt>
      <trkpt lat="45.78581" lon="4.80099">
        <ele>221.892101</ele>
        <time>2022-04-19T13:36:47.227Z</time>
      </trkpt>
      <trkpt lat="45.78523" lon="4.80056">
        <ele>212.65972</ele>
        <time>2022-04-19T13:36:51.616Z</time>
      </trkpt>
      <trkpt lat="45.78502" lon="4.80074">
        <ele>209.206468</ele>
        <time>2022-04-19T13:37:21.562Z</time>
      </trkpt>
      <trkpt lat="45.78493" lon="4.8008">
        <ele>207.69978</ele>
        <time>2022-04-19T13:37:34.467Z</time>
      </trkpt>
      <trkpt lat="45.78474" lon="4.80091">
        <ele>204.778653</ele>
        <time>2022-04-19T13:37:35.806Z</time>
      </trkpt>
      <trkpt lat="45.78455" lon="4.80093">
        <ele>201.964438</ele>
        <time>2022-04-19T13:37:37.119Z</time>
      </trkpt>
      <trkpt lat="45.78364" lon="4.80025">
        <ele>190.054933</ele>
        <time>2022-04-19T13:37:43.972Z</time>
      </trkpt>
      <trkpt lat="45.78311" lon="4.80026">
        <ele>185.522386</ele>
        <time>2022-04-19T13:37:47.642Z</time>
      </trkpt>
      <trkpt lat="45.78306" lon="4.80019">
        <ele>184.949515</ele>
        <time>2022-04-19T13:37:48.155Z</time>
      </trkpt>
      <trkpt lat="45.7827" lon="4.79981">
        <ele>181.101344</ele>
        <time>2022-04-19T13:37:51.574Z</time>
      </trkpt>
      <trkpt lat="45.78246" lon="4.79969">
        <ele>178.947848</ele>
        <time>2022-04-19T13:37:53.470Z</time>
      </trkpt>
      <trkpt lat="45.7823" lon="4.79961">
        <ele>178.351926</ele>
        <time>2022-04-19T13:37:54.779Z</time>
      </trkpt>
      <trkpt lat="45.78206" lon="4.79965">
        <ele>177.636582</ele>
        <time>2022-04-19T13:37:56.616Z</time>
      </trkpt>
      <trkpt lat="45.78184" lon="4.79956">
        <ele>176.961408</ele>
        <time>2022-04-19T13:37:58.410Z</time>
      </trkpt>
      <trkpt lat="45.78175" lon="4.79961">
        <ele>176.662559</ele>
        <time>2022-04-19T13:37:59.240Z</time>
      </trkpt>
      <trkpt lat="45.78163" lon="4.79983">
        <ele>176.085417</ele>
        <time>2022-04-19T13:38:00.888Z</time>
      </trkpt>
      <trkpt lat="45.78163" lon="4.79993">
        <ele>175.887474</ele>
        <time>2022-04-19T13:38:01.467Z</time>
      </trkpt>
      <trkpt lat="45.78163" lon="4.79999">
        <ele>175.760977</ele>
        <time>2022-04-19T13:38:01.836Z</time>
      </trkpt>
      <trkpt lat="45.78151" lon="4.80018">
        <ele>175.239307</ele>
        <time>2022-04-19T13:38:03.320Z</time>
      </trkpt>
      <trkpt lat="45.78123" lon="4.80033">
        <ele>174.346271</ele>
        <time>2022-04-19T13:38:05.889Z</time>
      </trkpt>
      <trkpt lat="45.78113" lon="4.80038">
        <ele>174.032822</ele>
        <time>2022-04-19T13:38:06.814Z</time>
      </trkpt>
      <trkpt lat="45.78081" lon="4.80056">
        <ele>173.37389</ele>
        <time>2022-04-19T13:38:09.879Z</time>
      </trkpt>
      <trkpt lat="45.78059" lon="4.80072">
        <ele>173.209081</ele>
        <time>2022-04-19T13:38:12.287Z</time>
      </trkpt>
      <trkpt lat="45.78053" lon="4.80077">
        <ele>173.159944</ele>
        <time>2022-04-19T13:38:13.011Z</time>
      </trkpt>
      <trkpt lat="45.78047" lon="4.80083">
        <ele>173.112281</ele>
        <time>2022-04-19T13:38:13.742Z</time>
      </trkpt>
      <trkpt lat="45.78039" lon="4.80089">
        <ele>173.051258</ele>
        <time>2022-04-19T13:38:14.784Z</time>
      </trkpt>
      <trkpt lat="45.78029" lon="4.80098">
        <ele>172.974869</ele>
        <time>2022-04-19T13:38:15.996Z</time>
      </trkpt>
      <trkpt lat="45.77998" lon="4.80126">
        <ele>172.731528</ele>
        <time>2022-04-19T13:38:19.993Z</time>
      </trkpt>
      <trkpt lat="45.77986" lon="4.80136">
        <ele>172.636356</ele>
        <time>2022-04-19T13:38:21.542Z</time>
      </trkpt>
      <trkpt lat="45.77924" lon="4.80189">
        <ele>172.251695</ele>
        <time>2022-04-19T13:38:29.590Z</time>
      </trkpt>
      <trkpt lat="45.77896" lon="4.80214">
        <ele>172.200292</ele>
        <time>2022-04-19T13:38:33.424Z</time>
      </trkpt>
      <trkpt lat="45.77878" lon="4.8023">
        <ele>172.167687</ele>
        <time>2022-04-19T13:38:35.924Z</time>
      </trkpt>
      <trkpt lat="45.77863" lon="4.80243">
        <ele>172.140821</ele>
        <time>2022-04-19T13:38:37.919Z</time>
      </trkpt>
      <trkpt lat="45.77856" lon="4.80249">
        <ele>172.128468</ele>
        <time>2022-04-19T13:38:38.883Z</time>
      </trkpt>
      <trkpt lat="45.77792" lon="4.80305">
        <ele>172.014446</ele>
        <time>2022-04-19T13:38:47.747Z</time>
      </trkpt>
      <trkpt lat="45.77746" lon="4.80347">
        <ele>171.825504</ele>
        <time>2022-04-19T13:38:53.746Z</time>
      </trkpt>
      <trkpt lat="45.77723" lon="4.80367">
        <ele>171.726884</ele>
        <time>2022-04-19T13:38:56.531Z</time>
      </trkpt>
      <trkpt lat="45.77705" lon="4.80384">
        <ele>171.64601</ele>
        <time>2022-04-19T13:38:58.816Z</time>
      </trkpt>
      <trkpt lat="45.77689" lon="4.80397">
        <ele>171.579582</ele>
        <time>2022-04-19T13:39:00.718Z</time>
      </trkpt>
      <trkpt lat="45.77623" lon="4.80454">
        <ele>171.396719</ele>
        <time>2022-04-19T13:39:08.796Z</time>
      </trkpt>
      <trkpt lat="45.77538" lon="4.80529">
        <ele>171.948639</ele>
        <time>2022-04-19T13:39:21.599Z</time>
      </trkpt>
      <trkpt lat="45.77531" lon="4.80523">
        <ele>171.994939</ele>
        <time>2022-04-19T13:39:22.824Z</time>
      </trkpt>
      <trkpt lat="45.77521" lon="4.80526">
        <ele>172.050145</ele>
        <time>2022-04-19T13:39:24.293Z</time>
      </trkpt>
      <trkpt lat="45.77516" lon="4.80539">
        <ele>172.105734</ele>
        <time>2022-04-19T13:39:25.775Z</time>
      </trkpt>
      <trkpt lat="45.77523" lon="4.80554">
        <ele>172.17429</ele>
        <time>2022-04-19T13:39:27.793Z</time>
      </trkpt>
      <trkpt lat="45.77517" lon="4.80574">
        <ele>172.257186</ele>
        <time>2022-04-19T13:39:30.214Z</time>
      </trkpt>
      <trkpt lat="45.77508" lon="4.80584">
        <ele>172.317812</ele>
        <time>2022-04-19T13:39:32.062Z</time>
      </trkpt>
      <trkpt lat="45.77462" lon="4.80682">
        <ele>173.781088</ele>
        <time>2022-04-19T13:39:46.354Z</time>
      </trkpt>
      <trkpt lat="45.77455" lon="4.80698">
        <ele>174.014838</ele>
        <time>2022-04-19T13:39:48.650Z</time>
      </trkpt>
      <trkpt lat="45.77418" lon="4.80775">
        <ele>175.179216</ele>
        <time>2022-04-19T13:40:02.024Z</time>
      </trkpt>
      <trkpt lat="45.77375" lon="4.80873">
        <ele>175.499869</ele>
        <time>2022-04-19T13:40:14.179Z</time>
      </trkpt>
      <trkpt lat="45.77365" lon="4.80897">
        <ele>175.48954</ele>
        <time>2022-04-19T13:40:16.603Z</time>
      </trkpt>
      <trkpt lat="45.7735" lon="4.80934">
        <ele>175.473745</ele>
        <time>2022-04-19T13:40:19.863Z</time>
      </trkpt>
      <trkpt lat="45.77341" lon="4.80951">
        <ele>175.465952</ele>
        <time>2022-04-19T13:40:21.436Z</time>
      </trkpt>
      <trkpt lat="45.77333" lon="4.80965">
        <ele>175.459222</ele>
        <time>2022-04-19T13:40:22.756Z</time>
      </trkpt>
      <trkpt lat="45.77317" lon="4.80999">
        <ele>175.444033</ele>
        <time>2022-04-19T13:40:25.540Z</time>
      </trkpt>
      <trkpt lat="45.77256" lon="4.8107">
        <ele>173.603717</ele>
        <time>2022-04-19T13:40:32.502Z</time>
      </trkpt>
      <trkpt lat="45.77235" lon="4.81095">
        <ele>172.826255</ele>
        <time>2022-04-19T13:40:34.712Z</time>
      </trkpt>
      <trkpt lat="45.77215" lon="4.81117">
        <ele>172.127208</ele>
        <time>2022-04-19T13:40:36.644Z</time>
      </trkpt>
      <trkpt lat="45.77186" lon="4.81146">
        <ele>171.122867</ele>
        <time>2022-04-19T13:40:39.438Z</time>
      </trkpt>
      <trkpt lat="45.7716" lon="4.81162">
        <ele>170.314874</ele>
        <time>2022-04-19T13:40:41.751Z</time>
      </trkpt>
      <trkpt lat="45.77102" lon="4.8119">
        <ele>169.032862</ele>
        <time>2022-04-19T13:40:46.754Z</time>
      </trkpt>
      <trkpt lat="45.7709" lon="4.81196">
        <ele>168.771581</ele>
        <time>2022-04-19T13:40:47.786Z</time>
      </trkpt>
      <trkpt lat="45.77028" lon="4.81227">
        <ele>167.384646</ele>
        <time>2022-04-19T13:40:53.378Z</time>
      </trkpt>
      <trkpt lat="45.77002" lon="4.81235">
        <ele>166.809966</ele>
        <time>2022-04-19T13:40:56.007Z</time>
      </trkpt>
      <trkpt lat="45.76998" lon="4.81247">
        <ele>166.607193</ele>
        <time>2022-04-19T13:40:56.951Z</time>
      </trkpt>
      <trkpt lat="45.76998" lon="4.81258">
        <ele>166.651286</ele>
        <time>2022-04-19T13:40:57.803Z</time>
      </trkpt>
      <trkpt lat="45.76994" lon="4.81262">
        <ele>166.756455</ele>
        <time>2022-04-19T13:40:58.410Z</time>
      </trkpt>
      <trkpt lat="45.76989" lon="4.81269">
        <ele>166.897428</ele>
        <time>2022-04-19T13:40:59.262Z</time>
      </trkpt>
      <trkpt lat="45.76972" lon="4.81271">
        <ele>167.279183</ele>
        <time>2022-04-19T13:41:01.624Z</time>
      </trkpt>
      <trkpt lat="45.76969" lon="4.81269">
        <ele>167.346999</ele>
        <time>2022-04-19T13:41:02.093Z</time>
      </trkpt>
      <trkpt lat="45.76903" lon="4.81278">
        <ele>168.746781</ele>
        <time>2022-04-19T13:41:15.713Z</time>
      </trkpt>
      <trkpt lat="45.76854" lon="4.81284">
        <ele>169.798741</ele>
        <time>2022-04-19T13:41:28.692Z</time>
      </trkpt>
      <trkpt lat="45.76814" lon="4.81311">
        <ele>171.318582</ele>
        <time>2022-04-19T13:41:42.617Z</time>
      </trkpt>
      <trkpt lat="45.7679" lon="4.81337">
        <ele>173.005656</ele>
        <time>2022-04-19T13:41:53.042Z</time>
      </trkpt>
      <trkpt lat="45.76763" lon="4.81381">
        <ele>175.272452</ele>
        <time>2022-04-19T13:42:08.870Z</time>
      </trkpt>
      <trkpt lat="45.76733" lon="4.81462">
        <ele>178.85813</ele>
        <time>2022-04-19T13:42:33.153Z</time>
      </trkpt>
      <trkpt lat="45.76731" lon="4.8147">
        <ele>179.186925</ele>
        <time>2022-04-19T13:42:35.048Z</time>
      </trkpt>
      <trkpt lat="45.76687" lon="4.81596">
        <ele>181.465768</ele>
        <time>2022-04-19T13:43:01.952Z</time>
      </trkpt>
      <trkpt lat="45.76653" lon="4.8178">
        <ele>183.020493</ele>
        <time>2022-04-19T13:43:21.864Z</time>
      </trkpt>
      <trkpt lat="45.76647" lon="4.81861">
        <ele>183.259454</ele>
        <time>2022-04-19T13:43:29.162Z</time>
      </trkpt>
      <trkpt lat="45.76651" lon="4.81919">
        <ele>183.430772</ele>
        <time>2022-04-19T13:43:36.522Z</time>
      </trkpt>
      <trkpt lat="45.76665" lon="4.81988">
        <ele>183.642292</ele>
        <time>2022-04-19T13:43:48.186Z</time>
      </trkpt>
      <trkpt lat="45.76666" lon="4.81993">
        <ele>183.66508</ele>
        <time>2022-04-19T13:43:49.234Z</time>
      </trkpt>
      <trkpt lat="45.76669" lon="4.82003">
        <ele>183.742463</ele>
        <time>2022-04-19T13:43:50.942Z</time>
      </trkpt>
      <trkpt lat="45.76683" lon="4.82061">
        <ele>184.209622</ele>
        <time>2022-04-19T13:44:02.683Z</time>
      </trkpt>
      <trkpt lat="45.76687" lon="4.82075">
        <ele>184.322516</ele>
        <time>2022-04-19T13:44:05.893Z</time>
      </trkpt>
      <trkpt lat="45.76733" lon="4.82244">
        <ele>185.312216</ele>
        <time>2022-04-19T13:44:29.074Z</time>
      </trkpt>
      <trkpt lat="45.76738" lon="4.82312">
        <ele>183.603005</ele>
        <time>2022-04-19T13:44:34.662Z</time>
      </trkpt>
      <trkpt lat="45.76743" lon="4.82382">
        <ele>181.832209</ele>
        <time>2022-04-19T13:44:39.951Z</time>
      </trkpt>
      <trkpt lat="45.76742" lon="4.82386">
        <ele>181.708384</ele>
        <time>2022-04-19T13:44:40.340Z</time>
      </trkpt>
      <trkpt lat="45.76741" lon="4.82393">
        <ele>181.53248</ele>
        <time>2022-04-19T13:44:40.882Z</time>
      </trkpt>
      <trkpt lat="45.7675" lon="4.8263">
        <ele>176.155576</ele>
        <time>2022-04-19T13:44:59.099Z</time>
      </trkpt>
      <trkpt lat="45.76732" lon="4.82709">
        <ele>174.413178</ele>
        <time>2022-04-19T13:45:06.782Z</time>
      </trkpt>
      <trkpt lat="45.76712" lon="4.82763">
        <ele>173.424351</ele>
        <time>2022-04-19T13:45:12.671Z</time>
      </trkpt>
      <trkpt lat="45.76638" lon="4.82868">
        <ele>171.866945</ele>
        <time>2022-04-19T13:45:26.997Z</time>
      </trkpt>
      <trkpt lat="45.76637" lon="4.82872">
        <ele>171.826766</ele>
        <time>2022-04-19T13:45:27.366Z</time>
      </trkpt>
      <trkpt lat="45.76629" lon="4.8288">
        <ele>171.687032</ele>
        <time>2022-04-19T13:45:28.273Z</time>
      </trkpt>
      <trkpt lat="45.76624" lon="4.82885">
        <ele>171.590489</ele>
        <time>2022-04-19T13:45:28.867Z</time>
      </trkpt>
      <trkpt lat="45.76537" lon="4.82914">
        <ele>169.970044</ele>
        <time>2022-04-19T13:45:36.417Z</time>
      </trkpt>
      <trkpt lat="45.7648" lon="4.82917">
        <ele>168.813593</ele>
        <time>2022-04-19T13:45:41.221Z</time>
      </trkpt>
      <trkpt lat="45.76468" lon="4.82924">
        <ele>168.555405</ele>
        <time>2022-04-19T13:45:42.281Z</time>
      </trkpt>
      <trkpt lat="45.76449" lon="4.8294">
        <ele>168.097118</ele>
        <time>2022-04-19T13:45:44.228Z</time>
      </trkpt>
      <trkpt lat="45.76349" lon="4.82944">
        <ele>167.164793</ele>
        <time>2022-04-19T13:45:54.054Z</time>
      </trkpt>
      <trkpt lat="45.76334" lon="4.82944">
        <ele>167.117962</ele>
        <time>2022-04-19T13:45:55.789Z</time>
      </trkpt>
      <trkpt lat="45.76323" lon="4.82944">
        <ele>167.083984</ele>
        <time>2022-04-19T13:45:57.044Z</time>
      </trkpt>
      <trkpt lat="45.7631" lon="4.82943">
        <ele>167.04405</ele>
        <time>2022-04-19T13:45:58.516Z</time>
      </trkpt>
      <trkpt lat="45.76298" lon="4.8294">
        <ele>167.006906</ele>
        <time>2022-04-19T13:46:00.135Z</time>
      </trkpt>
      <trkpt lat="45.7624" lon="4.82921">
        <ele>166.826066</ele>
        <time>2022-04-19T13:46:08.222Z</time>
      </trkpt>
      <trkpt lat="45.76173" lon="4.82885">
        <ele>167.085033</ele>
        <time>2022-04-19T13:46:16.621Z</time>
      </trkpt>
      <trkpt lat="45.76132" lon="4.8287">
        <ele>167.262165</ele>
        <time>2022-04-19T13:46:21.520Z</time>
      </trkpt>
      <trkpt lat="45.76129" lon="4.82868">
        <ele>167.275069</ele>
        <time>2022-04-19T13:46:21.898Z</time>
      </trkpt>
      <trkpt lat="45.76058" lon="4.82844">
        <ele>167.67156</ele>
        <time>2022-04-19T13:46:31.533Z</time>
      </trkpt>
      <trkpt lat="45.76053" lon="4.82842">
        <ele>167.779499</ele>
        <time>2022-04-19T13:46:32.394Z</time>
      </trkpt>
      <trkpt lat="45.75983" lon="4.82805">
        <ele>169.393875</ele>
        <time>2022-04-19T13:46:47.135Z</time>
      </trkpt>
      <trkpt lat="45.75978" lon="4.82804">
        <ele>169.510787</ele>
        <time>2022-04-19T13:46:48.234Z</time>
      </trkpt>
      <trkpt lat="45.75973" lon="4.828">
        <ele>169.648766</ele>
        <time>2022-04-19T13:46:49.385Z</time>
      </trkpt>
      <trkpt lat="45.75964" lon="4.82794">
        <ele>169.854944</ele>
        <time>2022-04-19T13:46:50.964Z</time>
      </trkpt>
      <trkpt lat="45.75963" lon="4.82798">
        <ele>169.928319</ele>
        <time>2022-04-19T13:46:51.693Z</time>
      </trkpt>
      <trkpt lat="45.75962" lon="4.828">
        <ele>169.957828</ele>
        <time>2022-04-19T13:46:51.958Z</time>
      </trkpt>
      <trkpt lat="45.75935" lon="4.82899">
        <ele>171.567159</ele>
        <time>2022-04-19T13:47:06.728Z</time>
      </trkpt>
      <trkpt lat="45.75927" lon="4.82927">
        <ele>171.996704</ele>
        <time>2022-04-19T13:47:11.095Z</time>
      </trkpt>
      <trkpt lat="45.75924" lon="4.82938">
        <ele>172.157055</ele>
        <time>2022-04-19T13:47:12.520Z</time>
      </trkpt>
      <trkpt lat="45.75923" lon="4.82943">
        <ele>172.231054</ele>
        <time>2022-04-19T13:47:13.369Z</time>
      </trkpt>
      <trkpt lat="45.75918" lon="4.82956">
        <ele>172.432118</ele>
        <time>2022-04-19T13:47:15.814Z</time>
      </trkpt>
      <trkpt lat="45.75915" lon="4.82964">
        <ele>172.555371</ele>
        <time>2022-04-19T13:47:16.935Z</time>
      </trkpt>
      <trkpt lat="45.75903" lon="4.82999">
        <ele>173.103774</ele>
        <time>2022-04-19T13:47:22.743Z</time>
      </trkpt>
      <trkpt lat="45.75902" lon="4.83004">
        <ele>173.185003</ele>
        <time>2022-04-19T13:47:23.625Z</time>
      </trkpt>
      <trkpt lat="45.75883" lon="4.83068">
        <ele>174.156764</ele>
        <time>2022-04-19T13:47:32.997Z</time>
      </trkpt>
      <trkpt lat="45.75882" lon="4.83073">
        <ele>174.231367</ele>
        <time>2022-04-19T13:47:33.544Z</time>
      </trkpt>
      <trkpt lat="45.75878" lon="4.83089">
        <ele>174.463033</ele>
        <time>2022-04-19T13:47:35.430Z</time>
      </trkpt>
      <trkpt lat="45.75876" lon="4.83098">
        <ele>174.604249</ele>
        <time>2022-04-19T13:47:36.571Z</time>
      </trkpt>
      <trkpt lat="45.75865" lon="4.83137">
        <ele>175.112617</ele>
        <time>2022-04-19T13:47:39.783Z</time>
      </trkpt>
      <trkpt lat="45.75863" lon="4.83136">
        <ele>175.124718</ele>
        <time>2022-04-19T13:47:41.260Z</time>
      </trkpt>
      <trkpt lat="45.75862" lon="4.83141">
        <ele>175.148726</ele>
        <time>2022-04-19T13:47:44.240Z</time>
      </trkpt>
      <trkpt lat="45.75863" lon="4.83136">
        <ele>175.172735</ele>
        <time>2022-04-19T13:47:47.219Z</time>
      </trkpt>
      <trkpt lat="45.75865" lon="4.83137">
        <ele>175.184835</ele>
        <time>2022-04-19T13:47:48.697Z</time>
      </trkpt>
      <trkpt lat="45.75837" lon="4.83239">
        <ele>175.617387</ele>
        <time>2022-04-19T13:47:59.368Z</time>
      </trkpt>
      <trkpt lat="45.75834" lon="4.8325">
        <ele>175.667123</ele>
        <time>2022-04-19T13:48:00.822Z</time>
      </trkpt>
      <trkpt lat="45.75814" lon="4.83323">
        <ele>175.97348</ele>
        <time>2022-04-19T13:48:09.480Z</time>
      </trkpt>
      <trkpt lat="45.75799" lon="4.83378">
        <ele>175.705797</ele>
        <time>2022-04-19T13:48:14.546Z</time>
      </trkpt>
      <trkpt lat="45.75791" lon="4.8341">
        <ele>175.188845</ele>
        <time>2022-04-19T13:48:16.731Z</time>
      </trkpt>
      <trkpt lat="45.75787" lon="4.83429">
        <ele>174.892023</ele>
        <time>2022-04-19T13:48:17.887Z</time>
      </trkpt>
      <trkpt lat="45.75788" lon="4.83436">
        <ele>174.773082</ele>
        <time>2022-04-19T13:48:18.371Z</time>
      </trkpt>
      <trkpt lat="45.75772" lon="4.8349">
        <ele>173.891173</ele>
        <time>2022-04-19T13:48:21.687Z</time>
      </trkpt>
      <trkpt lat="45.75761" lon="4.83532">
        <ele>173.208817</ele>
        <time>2022-04-19T13:48:24.250Z</time>
      </trkpt>
      <trkpt lat="45.75759" lon="4.83537">
        <ele>173.123243</ele>
        <time>2022-04-19T13:48:24.580Z</time>
      </trkpt>
      <trkpt lat="45.75757" lon="4.83543">
        <ele>173.021934</ele>
        <time>2022-04-19T13:48:24.978Z</time>
      </trkpt>
      <trkpt lat="45.75731" lon="4.83632">
        <ele>172.004816</ele>
        <time>2022-04-19T13:48:30.458Z</time>
      </trkpt>
      <trkpt lat="45.7573" lon="4.83655">
        <ele>171.904962</ele>
        <time>2022-04-19T13:48:31.737Z</time>
      </trkpt>
      <trkpt lat="45.75722" lon="4.8369">
        <ele>171.742866</ele>
        <time>2022-04-19T13:48:33.844Z</time>
      </trkpt>
      <trkpt lat="45.7571" lon="4.83712">
        <ele>171.621386</ele>
        <time>2022-04-19T13:48:35.433Z</time>
      </trkpt>
      <trkpt lat="45.7564" lon="4.83955">
        <ele>173.302833</ele>
        <time>2022-04-19T13:49:08.323Z</time>
      </trkpt>
      <trkpt lat="45.7562" lon="4.84015">
        <ele>174.403637</ele>
        <time>2022-04-19T13:49:18.945Z</time>
      </trkpt>
      <trkpt lat="45.75616" lon="4.84029">
        <ele>174.659562</ele>
        <time>2022-04-19T13:49:21.260Z</time>
      </trkpt>
      <trkpt lat="45.75612" lon="4.84043">
        <ele>174.917027</ele>
        <time>2022-04-19T13:49:23.557Z</time>
      </trkpt>
      <trkpt lat="45.75598" lon="4.84083">
        <ele>175.504534</ele>
        <time>2022-04-19T13:49:29.459Z</time>
      </trkpt>
      <trkpt lat="45.75596" lon="4.8409">
        <ele>175.571996</ele>
        <time>2022-04-19T13:49:30.531Z</time>
      </trkpt>
      <trkpt lat="45.75566" lon="4.84175">
        <ele>176.389962</ele>
        <time>2022-04-19T13:49:43.003Z</time>
      </trkpt>
      <trkpt lat="45.75537" lon="4.84257">
        <ele>177.177329</ele>
        <time>2022-04-19T13:49:52.265Z</time>
      </trkpt>
      <trkpt lat="45.75533" lon="4.84267">
        <ele>177.279568</ele>
        <time>2022-04-19T13:49:53.315Z</time>
      </trkpt>
      <trkpt lat="45.75529" lon="4.84285">
        <ele>177.439566</ele>
        <time>2022-04-19T13:49:54.684Z</time>
      </trkpt>
      <trkpt lat="45.75531" lon="4.84298">
        <ele>177.553036</ele>
        <time>2022-04-19T13:49:55.553Z</time>
      </trkpt>
      <trkpt lat="45.7552" lon="4.84328">
        <ele>177.566355</ele>
        <time>2022-04-19T13:49:57.963Z</time>
      </trkpt>
      <trkpt lat="45.75504" lon="4.84376">
        <ele>177.566355</ele>
        <time>2022-04-19T13:50:01.858Z</time>
      </trkpt>
      <trkpt lat="45.75481" lon="4.84442">
        <ele>177.566355</ele>
        <time>2022-04-19T13:50:07.705Z</time>
      </trkpt>
      <trkpt lat="45.75447" lon="4.8454">
        <ele>177.566355</ele>
        <time>2022-04-19T13:50:17.356Z</time>
      </trkpt>
      <trkpt lat="45.75443" lon="4.8455">
        <ele>177.566355</ele>
        <time>2022-04-19T13:50:18.323Z</time>
      </trkpt>
      <trkpt lat="45.75437" lon="4.84538">
        <ele>177.566355</ele>
        <time>2022-04-19T13:50:19.636Z</time>
      </trkpt>
      <trkpt lat="45.75405" lon="4.84467">
        <ele>177.566355</ele>
        <time>2022-04-19T13:50:26.263Z</time>
      </trkpt>
    </trkseg>
  </trk>
</gpx>